[[{"header":{"parameterUnit":"m.s-1","parameterCategory":1,"la1":31.0,"la2":29.5877,"lo1":-88.7671,"lo2":-86.6584,"dy":0.0162,"dx":0.0185,"nx":115,"ny":88,"refTime":"2026-04-09T12:00:00:Z","depth":0,"parameterNumber":2,"parameterNumberName":"U-component_of_WINDS"},"data":[0.0,0.0,0.0,0.0,0.0,0.0,0.0,0.0,0.0,0.0,0.0,0.0,0.0,0.0,0.0,0.0,0.0,0.0,0.0,0.0,0.0,0.0,0.0,0.0,0.0,0.0,0.0,0.0,0.0,0.0,0.0,0.0,0.0,0.0,0.0,0.0,0.0,0.0,0.0,0.0,0.0,0.0,0.0,0.0,0.0,0.0,0.0,0.0,0.0,0.0,0.0,0.0,0.0,0.0,0.0,0.0,0.0,0.0,0.0,0.0,0.0,0.0,0.0,0.0,0.0,0.0,0.0,0.0,0.0,0.0,0.0,0.0,0.0,0.0,0.0,0.0,0.0,0.0,0.0,0.0,0.0,0.0,0.0,0.0,0.0,0.0,0.0,0.0,0.0,0.0,0.0,0.0,0.0,0.0,0.0,0.0,0.0,0.0,0.0,0.0,0.0,0.0,0.0,0.0,0.0,0.0,0.0,0.0,0.0,0.0,0.0,0.0,0.0,0.0,0.0,0.0,0.0,0.0,0.0,0.0,0.0,0.0,0.0,0.0,0.0,0.0,0.0,0.0,0.0,0.0,0.0,0.0,0.0,0.0,0.0,0.0,0.0,0.0,0.0,0.0,0.0,0.0,0.0,0.0,0.0,0.0,0.0,0.0,0.0,0.0,0.0,0.0,0.0,0.0,0.0,0.0,0.0,0.0,0.0,0.0,0.0,0.0,0.0,0.0,0.0,0.0,0.0,0.0,0.0,0.0,0.0,0.0,0.0,0.0,0.0,0.0,0.0,0.0,0.0,0.0,0.0,0.0,0.0,0.0,0.0,0.0,0.0,0.0,0.0,0.0,0.0,0.0,0.0,0.0,0.0,0.0,0.0,0.0,0.0,0.0,0.0,0.0,0.0,0.0,0.0,0.0,0.0,0.0,0.0,0.0,0.0,0.0,0.0,0.0,0.0,0.0,0.0,0.0,0.0,0.0,0.0,0.0,0.0,0.0,0.0,0.0,0.0,0.0,0.0,0.0,0.0,0.0,0.0,0.0,0.0,0.0,0.0,0.0,0.0,0.0,0.0,0.0,0.0,0.0,0.0,0.0,0.0,0.0,0.0,0.0,0.0,0.0,0.0,0.0,0.0,0.0,0.0,0.0,0.0,0.0,0.0,0.0,0.0,0.0,0.0,0.0,0.0,0.0,0.0,0.0,0.0,0.0,0.0,0.0,0.0,0.0,0.0,0.0,0.0,0.0,0.0,0.0,0.0,0.0,0.0,0.0,0.0,0.0,0.0,0.0,0.0,0.0,0.0,0.0,0.0,0.0,0.0,0.0,0.0,0.0,0.0,0.0,0.0,0.0,0.0,0.0,0.0,0.0,0.0,0.0,0.0,0.0,0.0,0.0,0.0,0.0,0.0,0.0,0.0,0.0,0.0,0.0,0.0,0.0,0.0,0.0,0.0,0.0,0.0,0.0,0.0,0.0,0.0,0.0,0.0,0.0,0.0,0.0,0.0,0.0,0.0,0.0,0.0,0.0,0.0,0.0,0.0,0.0,0.0,0.0,0.0,0.0,0.0,0.0,0.0,0.0,0.0,0.0,0.0,0.0,0.0,0.0,0.0,0.0,0.0,0.0,0.0,0.0,0.0,0.0,0.0,0.0,0.0,0.0,0.0,0.0,0.0,0.0,0.0,0.0,0.0,0.0,0.0,0.0,0.0,0.0,0.0,0.0,0.0,0.0,0.0,0.0,0.0,0.0,0.0,0.0,0.0,0.0,0.0,0.0,0.0,0.0,0.0,0.0,0.0,0.0,0.0,0.0,0.0,0.0,0.0,0.0,0.0,0.0,0.0,0.0,0.0,0.0,0.0,0.0,0.0,0.0,0.0,0.0,0.0,0.0,0.0,0.0,0.0,0.0,0.0,0.0,0.0,0.0,0.0,0.0,0.0,0.0,0.0,0.0,0.0,0.0,0.0,0.0,0.0,0.0,0.0,0.0,0.0,0.0,0.0,0.0,0.0,0.0,0.0,0.0,0.0,0.0,0.0,0.0,0.0,0.0,0.0,0.0,0.0,0.0,0.0,0.0,0.0,0.0,0.0,0.0,0.0,0.0,0.0,0.0,0.0,0.0,0.0,0.0,0.0,0.0,0.0,0.0,0.0,0.0,0.0,0.0,0.0,0.0,0.0,0.0,0.0,0.0,0.0,0.0,0.0,0.0,0.0,0.0,0.0,0.0,0.0,0.0,0.0,0.0,0.0,0.0,0.0,0.0,0.0,0.0,0.0,0.0,0.0,0.0,0.0,0.0,0.0,0.0,0.0,0.0,0.0,0.0,0.0,0.0,0.0,0.0,0.0,0.0,0.0,0.0,0.0,0.0,0.0,0.0,0.0,0.0,0.0,0.0,0.0,0.0,0.0,0.0,0.0,0.0,0.0,0.0,0.0,0.0,0.0,0.0,0.0,0.0,0.0,0.0,0.0,0.0,0.0,0.0,0.0,0.0,0.0,0.0,0.0,0.0,0.0,0.0,0.0,0.0,0.0,0.0,0.0,0.0,0.0,0.0,0.0,0.0,0.0,0.0,0.0,0.0,0.0,0.0,0.0,0.0,0.0,0.0,0.0,0.0,0.0,0.0,0.0,0.0,0.0,0.0,0.0,0.0,0.0,0.0,0.0,0.0,0.0,0.0,0.0,0.0,0.0,0.0,0.0,0.0,0.0,0.0,0.0,0.0,0.0,0.0,0.0,0.0,0.0,0.0,0.0,0.0,0.0,0.0,0.0,0.0,0.0,0.0,0.0,0.0,0.0,0.0,0.0,0.0,0.0,0.0,0.0,0.0,0.0,0.0,0.0,0.0,0.0,0.0,0.0,0.0,0.0,0.0,0.0,0.0,0.0,0.0,0.0,0.0,0.0,0.0,0.0,0.0,0.0,0.0,0.0,0.0,0.0,0.0,0.0,0.0,0.0,0.0,0.0,0.0,0.0,0.0,0.0,0.0,0.0,0.0,0.0,0.0,0.0,0.0,0.0,0.0,0.0,0.0,0.0,0.0,0.0,0.0,0.0,0.0,0.0,0.0,0.0,0.0,0.0,0.0,0.0,0.0,0.0,0.0,0.0,0.0,0.0,0.0,0.0,0.0,0.0,0.0,0.0,0.0,0.0,0.0,0.0,0.0,0.0,0.0,0.0,0.0,0.0,0.0,0.0,0.0,0.0,0.0,0.0,0.0,0.0,0.0,0.0,0.0,0.0,0.0,0.0,0.0,0.0,0.0,0.0,0.0,0.0,0.0,0.0,0.0,0.0,0.0,0.0,0.0,0.0,0.0,0.0,0.0,0.0,0.0,0.0,0.0,0.0,0.0,0.0,0.0,0.0,0.0,0.0,0.0,0.0,0.0,0.0,0.0,0.0,0.0,0.0,0.0,0.0,0.0,0.0,0.0,0.0,0.0,0.0,0.0,0.0,0.0,0.0,0.0,0.0,0.0,0.0,0.0,0.0,0.0,0.0,0.0,0.0,0.0,0.0,0.0,0.0,0.0,0.0,0.0,0.0,0.0,0.0,0.0,0.0,0.0,0.0,0.0,0.0,0.0,0.0,0.0,0.0,0.0,0.0,0.0,0.0,0.0,0.0,0.0,0.0,0.0,0.0,0.0,0.0,0.0,0.0,0.0,0.0,0.0,0.0,0.0,0.0,0.0,0.0,0.0,0.0,0.0,0.0,0.0,0.0,0.0,0.0,0.0,0.0,0.0,0.0,0.0,0.0,0.0,0.0,0.0,0.0,0.0,0.0,0.0,0.0,0.0,0.0,0.0,0.0,0.0,0.0,0.0,0.0,0.0,0.0,0.0,0.0,0.0,0.0,0.0,0.0,0.0,0.0,0.0,0.0,0.0,0.0,0.0,0.0,0.0,0.0,0.0,0.0,0.0,0.0,0.0,0.0,0.0,0.0,0.0,0.0,0.0,0.0,0.0,0.0,0.0,0.0,0.0,0.0,0.0,0.0,0.0,0.0,0.0,0.0,0.0,0.0,0.0,0.0,0.0,0.0,0.0,0.0,0.0,0.0,0.0,0.0,0.0,0.0,0.0,0.0,0.0,0.0,0.0,0.0,0.0,0.0,0.0,0.0,0.0,0.0,0.0,0.0,0.0,0.0,0.0,0.0,0.0,0.0,0.0,0.0,0.0,0.0,0.0,0.0,0.0,0.0,0.0,0.0,0.0,0.0,0.0,0.0,0.0,0.0,0.0,0.0,0.0,0.0,0.0,0.0,0.0,0.0,0.0,0.0,0.0,-0.75,0.0,0.0,0.0,0.0,0.0,0.0,0.0,0.0,0.0,0.0,0.0,0.0,0.0,0.0,0.0,0.0,0.0,0.0,0.0,0.0,0.0,0.0,0.0,0.0,0.0,0.0,0.0,0.0,0.0,0.0,0.0,0.0,0.0,0.0,0.0,0.0,0.0,0.0,0.0,0.0,0.0,0.0,0.0,0.0,0.0,0.0,0.0,0.0,0.0,0.0,0.0,0.0,0.0,0.0,0.0,0.0,0.0,0.0,0.0,0.0,0.0,0.0,0.0,0.0,0.0,0.0,0.0,0.0,0.0,0.0,0.0,0.0,0.0,0.0,0.0,0.0,0.0,0.0,0.0,0.0,0.0,0.0,0.0,0.0,0.0,0.0,0.0,0.0,0.0,0.0,0.0,0.0,0.0,0.0,0.0,0.0,0.0,0.0,0.0,0.0,0.0,0.0,0.0,0.0,0.0,0.0,0.0,0.0,0.0,0.0,-0.9937,-0.8939,-0.8865,-0.8425,-0.7524,0.0,0.0,0.0,0.0,0.0,0.0,0.0,0.0,0.0,0.0,0.0,0.0,0.0,0.0,0.0,0.0,0.0,0.0,0.0,0.0,0.0,0.0,0.0,0.0,0.0,0.0,0.0,0.0,0.0,0.0,0.0,0.0,0.0,0.0,0.0,0.0,0.0,0.0,0.0,0.0,0.0,0.0,0.0,0.0,0.0,0.0,0.0,0.0,0.0,0.0,0.0,0.0,0.0,0.0,0.0,0.0,0.0,0.0,0.0,0.0,0.0,0.0,0.0,0.0,0.0,0.0,0.0,0.0,0.0,0.0,0.0,0.0,0.0,0.0,0.0,0.0,0.0,0.0,0.0,0.0,0.0,0.0,0.0,0.0,0.0,0.0,0.0,0.0,0.0,0.0,0.0,0.0,0.0,0.0,0.0,0.0,0.0,0.0,0.0,0.0,0.0,0.0,0.0,0.0,0.0,0.0,0.0,0.0,0.0,0.0,0.0,0.0,-0.8826,-0.8651,-0.8207,0.0,0.0,0.0,0.0,0.0,0.0,0.0,0.0,0.0,0.0,0.0,0.0,0.0,0.0,0.0,0.0,0.0,0.0,0.0,0.0,0.0,0.0,0.0,0.0,0.0,0.0,0.0,0.0,0.0,0.0,0.0,0.0,0.0,0.0,0.0,0.0,0.0,0.0,0.0,0.0,0.0,0.0,0.0,0.0,0.0,0.0,0.0,0.0,0.0,0.0,0.0,0.0,0.0,0.0,0.0,0.0,0.0,0.0,0.0,0.0,0.0,0.0,0.0,0.0,0.0,0.0,0.0,0.0,0.0,0.0,0.0,0.0,0.0,0.0,0.0,0.0,0.0,0.0,0.0,0.0,0.0,0.0,0.0,0.0,0.0,0.0,0.0,0.0,0.0,0.0,0.0,0.0,0.0,0.0,0.0,0.0,0.0,0.0,0.0,0.0,0.0,0.0,0.0,0.0,0.0,0.0,0.0,0.0,0.0,0.0,-1.0081,-0.9432,-0.998,0.0,-1.0126,0.0,0.0,0.0,0.0,0.0,0.0,0.0,0.0,0.0,0.0,0.0,0.0,0.0,0.0,0.0,0.0,0.0,0.0,0.0,0.0,0.0,0.0,0.0,0.0,0.0,0.0,0.0,0.0,0.0,0.0,0.0,0.0,0.0,0.0,0.0,0.0,0.0,0.0,0.0,0.0,0.0,0.0,0.0,0.0,0.0,0.0,0.0,0.0,0.0,0.0,0.0,0.0,0.0,0.0,0.0,0.0,0.0,0.0,0.0,0.0,0.0,0.0,0.0,0.0,0.0,0.0,0.0,0.0,0.0,0.0,0.0,0.0,0.0,0.0,0.0,0.0,0.0,0.0,0.0,0.0,0.0,0.0,0.0,0.0,0.0,0.0,0.0,0.0,0.0,0.0,0.0,0.0,0.0,0.0,0.0,0.0,0.0,0.0,0.0,0.0,0.0,0.0,0.0,0.0,0.0,0.0,0.0,0.0,0.0,0.0,-0.9425,-0.9546,-0.9826,-0.9937,0.0,0.0,0.0,0.0,0.0,0.0,0.0,0.0,0.0,0.0,0.0,0.0,0.0,0.0,0.0,0.0,0.0,0.0,0.0,0.0,0.0,0.0,0.0,0.0,0.0,0.0,0.0,0.0,0.0,0.0,0.0,0.0,0.0,0.0,0.0,0.0,0.0,0.0,0.0,0.0,0.0,0.0,0.0,0.0,0.0,0.0,0.0,0.0,0.0,0.0,0.0,0.0,0.0,0.0,0.0,0.0,0.0,0.0,0.0,0.0,0.0,0.0,0.0,0.0,0.0,0.0,0.0,0.0,0.0,0.0,0.0,0.0,0.0,0.0,0.0,0.0,0.0,0.0,0.0,0.0,0.0,0.0,0.0,0.0,0.0,0.0,0.0,0.0,0.0,0.0,0.0,0.0,0.0,0.0,0.0,0.0,0.0,0.0,0.0,0.0,0.0,0.0,0.0,0.0,0.0,0.0,0.0,0.0,0.0,0.0,-0.8433,0.0,-1.0049,-0.9773,-0.9643,-0.9768,0.0,0.0,0.0,0.0,0.0,0.0,0.0,0.0,0.0,0.0,0.0,0.0,0.0,0.0,0.0,0.0,0.0,0.0,0.0,0.0,0.0,0.0,0.0,0.0,0.0,0.0,0.0,0.0,0.0,0.0,0.0,0.0,0.0,0.0,0.0,0.0,0.0,0.0,0.0,0.0,0.0,0.0,0.0,0.0,0.0,0.0,0.0,0.0,0.0,0.0,0.0,0.0,0.0,0.0,0.0,0.0,0.0,0.0,0.0,0.0,0.0,0.0,0.0,0.0,0.0,0.0,0.0,0.0,0.0,0.0,0.0,0.0,0.0,0.0,0.0,0.0,0.0,0.0,0.0,0.0,0.0,0.0,0.0,0.0,0.0,0.0,0.0,0.0,0.0,0.0,0.0,0.0,0.0,0.0,0.0,0.0,0.0,0.0,0.0,0.0,0.0,0.0,0.0,0.0,0.0,0.0,0.0,0.0,0.0,-0.8868,-1.0136,-1.1282,-1.0238,-0.9865,0.0,0.0,0.0,0.0,0.0,0.0,0.0,0.0,0.0,0.0,0.0,0.0,0.0,0.0,0.0,0.0,0.0,0.0,0.0,0.0,0.0,0.0,0.0,0.0,0.0,0.0,0.0,0.0,0.0,0.0,0.0,0.0,0.0,0.0,0.0,0.0,0.0,0.0,0.0,0.0,0.0,0.0,0.0,0.0,0.0,0.0,0.0,0.0,0.0,0.0,0.0,0.0,0.0,0.0,0.0,0.0,0.0,0.0,0.0,0.0,0.0,0.0,0.0,0.0,0.0,0.0,0.0,0.0,0.0,0.0,0.0,0.0,0.0,0.0,0.0,0.0,0.0,0.0,0.0,0.0,0.0,0.0,0.0,0.0,0.0,0.0,0.0,0.0,0.0,0.0,0.0,0.0,0.0,0.0,0.0,0.0,0.0,0.0,0.0,0.0,0.0,0.0,0.0,0.0,0.0,0.0,0.0,0.0,0.0,-0.7691,-0.8912,-0.9817,-1.0248,-0.9817,-0.9511,0.0,0.0,0.0,0.0,0.0,0.0,0.0,0.0,0.0,0.0,0.0,0.0,0.0,0.0,0.0,0.0,0.0,0.0,0.0,0.0,0.0,0.0,0.0,0.0,0.0,0.0,0.0,0.0,0.0,0.0,0.0,0.0,0.0,0.0,0.0,0.0,0.0,0.0,0.0,0.0,0.0,0.0,0.0,0.0,0.0,0.0,0.0,0.0,0.0,0.0,0.0,0.0,0.0,0.0,0.0,0.0,0.0,0.0,0.0,0.0,0.0,0.0,0.0,0.0,0.0,0.0,0.0,0.0,0.0,0.0,0.0,0.0,0.0,0.0,0.0,0.0,0.0,0.0,0.0,0.0,0.0,0.0,0.0,0.0,0.0,0.0,0.0,0.0,0.0,0.0,0.0,0.0,0.0,0.0,0.0,0.0,0.0,0.0,0.0,0.0,0.0,0.0,0.0,0.0,0.0,0.0,0.0,0.0,0.0,-0.8573,0.0,-1.0209,0.0,-1.0006,-0.9676,0.0,0.0,0.0,0.0,0.0,0.0,0.0,0.0,0.0,0.0,0.0,0.0,0.0,0.0,0.0,0.0,0.0,0.0,0.0,0.0,0.0,0.0,0.0,0.0,0.0,0.0,0.0,0.0,0.0,0.0,0.0,0.0,0.0,0.0,0.0,0.0,0.0,0.0,0.0,0.0,0.0,0.0,0.0,0.0,0.0,0.0,0.0,0.0,0.0,0.0,0.0,0.0,0.0,0.0,0.0,0.0,0.0,0.0,0.0,0.0,0.0,0.0,0.0,0.0,0.0,0.0,0.0,0.0,0.0,0.0,0.0,0.0,0.0,0.0,0.0,0.0,0.0,0.0,0.0,0.0,0.0,0.0,0.0,0.0,0.0,0.0,0.0,0.0,0.0,0.0,0.0,0.0,0.0,0.0,0.0,0.0,0.0,0.0,0.0,0.0,0.0,0.0,0.0,0.0,0.0,0.0,0.0,0.0,-1.0517,-1.0517,-1.1129,-1.1445,-1.1471,-1.0813,-1.0473,0.0,0.0,0.0,0.0,0.0,0.0,0.0,0.0,0.0,0.0,0.0,0.0,0.0,0.0,0.0,0.0,0.0,0.0,0.0,0.0,0.0,0.0,0.0,0.0,0.0,0.0,0.0,0.0,0.0,0.0,0.0,0.0,0.0,0.0,0.0,0.0,0.0,0.0,0.0,0.0,0.0,0.0,0.0,0.0,0.0,0.0,0.0,0.0,0.0,0.0,0.0,0.0,0.0,0.0,0.0,0.0,0.0,0.0,0.0,0.0,0.0,0.0,0.0,0.0,0.0,0.0,0.0,0.0,0.0,0.0,0.0,0.0,0.0,0.0,0.0,0.0,0.0,0.0,0.0,0.0,0.0,0.0,0.0,0.0,0.0,0.0,0.0,0.0,0.0,0.0,0.0,0.0,0.0,0.0,0.0,0.0,0.0,0.0,0.0,0.0,0.0,0.0,0.0,0.0,0.0,0.0,0.0,0.0,0.0,-1.1231,-1.18,-1.171,-1.0871,-1.0604,-1.0289,0.0,0.0,0.0,0.0,0.0,0.0,0.0,0.0,0.0,0.0,0.0,0.0,0.0,0.0,0.0,0.0,0.0,0.0,0.0,0.0,0.0,0.0,0.0,0.0,0.0,0.0,0.0,0.0,0.0,0.0,0.0,0.0,0.0,0.0,0.0,0.0,0.0,0.0,0.0,0.0,0.0,0.0,0.0,0.0,0.0,0.0,0.0,0.0,0.0,0.0,0.0,0.0,0.0,0.0,0.0,0.0,0.0,0.0,0.0,0.0,0.0,0.0,0.0,0.0,0.0,0.0,0.0,0.0,0.0,0.0,0.0,0.0,0.0,0.0,0.0,0.0,0.0,0.0,0.0,0.0,0.0,0.0,0.0,0.0,0.0,0.0,0.0,0.0,0.0,0.0,0.0,0.0,0.0,0.0,0.0,0.0,0.0,0.0,0.0,0.0,0.0,0.0,0.0,0.0,0.0,0.0,0.0,0.0,0.0,-1.3279,-1.3398,-1.2992,-1.1948,-1.1458,-1.1002,-1.0566,0.0,0.0,0.0,0.0,0.0,0.0,0.0,0.0,0.0,0.0,0.0,0.0,0.0,0.0,0.0,0.0,0.0,0.0,0.0,0.0,0.0,0.0,0.0,0.0,0.0,0.0,0.0,0.0,0.0,0.0,0.0,0.0,0.0,0.0,0.0,0.0,0.0,0.0,0.0,0.0,0.0,0.0,0.0,0.0,0.0,0.0,0.0,0.0,0.0,0.0,0.0,0.0,0.0,0.0,0.0,0.0,0.0,0.0,0.0,0.0,0.0,0.0,0.0,0.0,0.0,0.0,0.0,0.0,0.0,0.0,0.0,0.0,0.0,0.0,0.0,0.0,0.0,0.0,0.0,0.0,0.0,0.0,0.0,0.0,0.0,0.0,0.0,0.0,0.0,0.0,0.0,0.0,0.0,0.0,0.0,0.0,0.0,0.0,0.0,0.0,0.0,0.0,0.0,0.0,0.0,0.0,0.0,0.0,-1.6343,-1.5791,-1.5124,-1.4341,-1.3139,-1.2433,0.0,0.0,0.0,0.0,0.0,0.0,0.0,0.0,0.0,0.0,0.0,0.0,0.0,0.0,0.0,0.0,0.0,0.0,0.0,0.0,0.0,0.0,0.0,0.0,0.0,0.0,0.0,0.0,0.0,0.0,0.0,0.0,0.0,0.0,0.0,0.0,0.0,0.0,0.0,0.0,0.0,0.0,0.0,0.0,0.0,0.0,0.0,0.0,0.0,0.0,0.0,0.0,0.0,0.0,0.0,0.0,0.0,0.0,0.0,0.0,0.0,0.0,0.0,0.0,0.0,0.0,0.0,0.0,0.0,0.0,0.0,0.0,0.0,0.0,0.0,0.0,0.0,0.0,0.0,0.0,0.0,0.0,0.0,0.0,0.0,0.0,0.0,0.0,0.0,0.0,0.0,0.0,0.0,0.0,0.0,0.0,0.0,0.0,0.0,0.0,0.0,0.0,0.0,0.0,0.0,0.0,0.0,0.0,0.0,-1.8274,-1.8187,-1.7127,-1.5124,-1.4239,-1.3302,0.0,0.0,0.0,0.0,0.0,0.0,0.0,0.0,0.0,0.0,0.0,0.0,0.0,0.0,0.0,0.0,0.0,0.0,0.0,0.0,0.0,0.0,0.0,0.0,0.0,0.0,0.0,0.0,0.0,0.0,0.0,0.0,0.0,0.0,0.0,0.0,0.0,0.0,0.0,0.0,0.0,0.0,0.0,0.0,0.0,0.0,0.0,0.0,0.0,0.0,0.0,0.0,0.0,0.0,0.0,0.0,0.0,0.0,0.0,0.0,0.0,0.0,0.0,0.0,0.0,0.0,0.0,0.0,0.0,0.0,0.0,0.0,0.0,0.0,0.0,0.0,0.0,0.0,0.0,0.0,0.0,0.0,0.0,0.0,0.0,0.0,0.0,0.0,0.0,0.0,0.0,0.0,0.0,0.0,0.0,0.0,0.0,0.0,0.0,0.0,0.0,0.0,0.0,0.0,0.0,0.0,0.0,0.0,-1.81,-1.9087,-1.9899,-1.9213,-1.6953,-1.5502,-1.4327,0.0,0.0,0.0,0.0,0.0,0.0,0.0,0.0,0.0,0.0,0.0,0.0,0.0,0.0,0.0,0.0,0.0,0.0,0.0,0.0,0.0,0.0,0.0,0.0,0.0,0.0,0.0,0.0,0.0,0.0,0.0,0.0,0.0,0.0,0.0,0.0,0.0,0.0,0.0,0.0,0.0,0.0,0.0,0.0,0.0,0.0,0.0,0.0,0.0,0.0,0.0,0.0,0.0,0.0,0.0,0.0,0.0,0.0,0.0,0.0,0.0,0.0,0.0,0.0,0.0,0.0,0.0,0.0,0.0,0.0,0.0,0.0,0.0,0.0,0.0,0.0,0.0,0.0,0.0,0.0,0.0,0.0,0.0,0.0,0.0,0.0,0.0,0.0,0.0,0.0,0.0,0.0,0.0,0.0,0.0,0.0,0.0,0.0,0.0,0.0,0.0,0.0,0.0,0.0,0.0,0.0,0.0,0.0,-1.8825,-1.9508,-2.1191,-2.1278,-1.9522,-1.6982,-1.544,0.0,0.0,0.0,0.0,0.0,0.0,0.0,0.0,0.0,0.0,0.0,0.0,0.0,0.0,0.0,0.0,0.0,0.0,0.0,0.0,0.0,0.0,0.0,0.0,0.0,0.0,0.0,0.0,0.0,0.0,0.0,0.0,0.0,0.0,0.0,0.0,0.0,0.0,0.0,0.0,0.0,0.0,0.0,0.0,0.0,0.0,0.0,0.0,0.0,0.0,0.0,0.0,0.0,0.0,0.0,0.0,0.0,0.0,0.0,0.0,0.0,0.0,0.0,0.0,0.0,0.0,0.0,0.0,0.0,0.0,0.0,0.0,0.0,0.0,0.0,0.0,0.0,0.0,0.0,0.0,0.0,0.0,0.0,0.0,0.0,0.0,0.0,0.0,0.0,0.0,0.0,0.0,0.0,0.0,0.0,0.0,0.0,0.0,0.0,0.0,0.0,0.0,0.0,0.0,0.0,0.0,0.0,0.0,-2.0959,-2.2048,-2.2482,-2.2519,-2.2098,-1.9155,-1.6814,0.0,0.0,0.0,0.0,0.0,0.0,0.0,0.0,0.0,0.0,0.0,0.0,0.0,0.0,0.0,0.0,0.0,0.0,0.0,0.0,0.0,0.0,0.0,0.0,0.0,0.0,0.0,0.0,0.0,0.0,0.0,0.0,0.0,0.0,0.0,0.0,0.0,0.0,0.0,0.0,0.0,0.0,0.0,0.0,0.0,0.0,0.0,0.0,-0.4857,0.0,0.0,0.0,0.0,0.0,0.0,0.0,0.0,0.0,0.0,0.0,0.0,0.0,0.0,0.0,0.0,0.0,0.0,0.0,0.0,0.0,0.0,0.0,0.0,0.0,0.0,0.0,0.0,0.0,0.0,0.0,0.0,0.0,0.0,0.0,0.0,0.0,0.0,0.0,0.0,0.0,0.0,0.0,0.0,0.0,0.0,0.0,0.0,0.0,0.0,0.0,0.0,0.0,0.0,0.0,0.0,0.0,0.0,0.0,-2.1946,-2.2873,-2.3482,-2.3496,-2.2844,-2.0706,-1.8534,0.0,0.0,0.0,0.0,0.0,0.0,0.0,0.0,0.0,0.0,0.0,0.0,0.0,0.0,0.0,0.0,0.0,0.0,0.0,0.0,0.0,0.0,0.0,0.0,0.0,0.0,0.0,0.0,0.0,0.0,0.0,0.0,0.0,0.0,0.0,0.0,0.0,0.0,0.0,0.0,0.0,0.0,0.0,0.0,0.0,0.0,0.0,0.0,0.0,0.0,0.0,0.0,0.0,0.0,0.0,0.0,0.0,0.0,0.0,0.0,0.0,0.0,0.0,0.0,0.0,0.0,0.0,0.0,0.0,0.0,0.0,0.0,0.0,0.0,0.0,0.0,0.0,0.0,0.0,0.0,0.0,0.0,0.0,0.0,0.0,0.0,0.0,0.0,0.0,0.0,0.0,0.0,0.0,0.0,0.0,0.0,0.0,0.0,0.0,0.0,0.0,0.0,0.0,0.0,0.0,0.0,0.0,-2.0629,-2.252,-2.3238,-2.4346,-2.4389,-2.3207,-2.1852,-2.0125,-1.7971,0.0,0.0,0.0,0.0,0.0,0.0,0.0,0.0,0.0,0.0,0.0,0.0,0.0,0.0,0.0,0.0,0.0,0.0,0.0,0.0,0.0,0.0,0.0,0.0,0.0,0.0,0.0,0.0,0.0,0.0,0.0,0.0,0.0,0.0,0.0,0.0,0.0,0.0,-0.5146,-0.5894,0.0,0.0,0.0,0.0,0.0,0.0,0.0,0.0,-0.5219,0.0,0.0,0.0,0.0,0.0,0.0,0.0,0.0,0.0,0.0,0.0,0.0,0.0,0.0,0.0,0.0,0.0,0.0,0.0,0.0,0.0,0.0,0.0,0.0,0.0,0.0,0.0,0.0,0.0,0.0,0.0,0.0,0.0,0.0,0.0,0.0,0.0,0.0,0.0,0.0,0.0,0.0,0.0,0.0,0.0,0.0,0.0,0.0,0.0,0.0,0.0,0.0,0.0,0.0,0.0,0.0,-1.854,-2.1451,-2.3491,-2.4635,-2.529,-2.527,-2.4467,-2.2751,-2.0643,-1.8072,0.0,0.0,0.0,0.0,0.0,0.0,0.0,0.0,0.0,0.0,0.0,0.0,0.0,0.0,0.0,0.0,0.0,0.0,0.0,0.0,0.0,0.0,0.0,0.0,0.0,0.0,0.0,0.0,0.0,0.0,0.0,0.0,0.0,0.0,0.0,0.0,0.0,0.0,0.0,-0.6861,-0.7253,0.0,0.0,0.0,0.0,0.0,0.0,0.0,0.0,-0.5817,0.0,0.0,0.0,0.0,0.0,0.0,0.0,0.0,0.0,0.0,0.0,0.0,0.0,0.0,0.0,0.0,0.0,0.0,0.0,0.0,0.0,0.0,0.0,0.0,0.0,0.0,0.0,0.0,0.0,0.0,0.0,0.0,0.0,0.0,0.0,0.0,0.0,0.0,0.0,0.0,0.0,0.0,0.0,0.0,0.0,0.0,0.0,0.0,0.0,0.0,0.0,0.0,0.0,0.0,0.0,-1.944,-2.2006,-2.3886,-2.5047,-2.5573,-2.5502,-2.4824,-2.2657,-2.0382,0.0,0.0,0.0,0.0,0.0,0.0,0.0,0.0,0.0,0.0,0.0,0.0,0.0,0.0,0.0,0.0,0.0,0.0,0.0,0.0,0.0,0.0,0.0,0.0,0.0,0.0,0.0,0.0,0.0,0.0,0.0,0.0,0.0,0.0,0.0,0.0,0.0,0.0,0.0,0.0,-0.7755,-0.8309,-0.8516,0.0,0.0,0.0,0.0,0.0,0.0,-0.6136,-0.6073,0.0,0.0,0.0,0.0,0.0,0.0,0.0,0.0,0.0,0.0,0.0,0.0,0.0,0.0,0.0,0.0,0.0,0.0,0.0,0.0,0.0,0.0,0.0,0.0,0.0,0.0,0.0,0.0,0.0,0.0,0.0,0.0,0.0,0.0,0.0,0.0,0.0,0.0,0.0,0.0,0.0,0.0,0.0,0.0,0.0,0.0,0.0,0.0,0.0,0.0,0.0,0.0,0.0,0.0,0.0,-2.0122,-2.2541,-2.4216,-2.5221,-2.5754,-2.5633,-2.4878,-2.2614,-2.0338,0.0,0.0,0.0,0.0,0.0,0.0,0.0,0.0,0.0,0.0,0.0,0.0,0.0,0.0,0.0,0.0,0.0,0.0,0.0,0.0,0.0,0.0,0.0,0.0,0.0,0.0,0.0,0.0,0.0,0.0,0.0,0.0,0.0,0.0,0.0,0.0,0.0,0.0,0.0,0.0,0.0,-0.91,-0.9822,-0.9381,0.0,0.0,0.0,0.0,-0.7281,-0.7054,0.0,0.0,0.0,0.0,0.0,0.0,0.0,0.0,0.0,0.0,0.0,0.0,0.0,0.0,0.0,0.0,0.0,0.0,0.0,0.0,0.0,0.0,0.0,0.0,0.0,0.0,0.0,0.0,0.0,0.0,0.0,0.0,0.0,0.0,0.0,0.0,0.0,0.0,0.0,0.0,0.0,0.0,0.0,0.0,0.0,0.0,0.0,0.0,0.0,0.0,0.0,0.0,0.0,0.0,0.0,0.0,-2.039,-2.3137,-2.4844,-2.5399,-2.6232,-2.6112,-2.4907,-2.3447,-2.1251,0.0,0.0,0.0,0.0,0.0,0.0,0.0,0.0,0.0,0.0,0.0,0.0,0.0,0.0,0.0,0.0,0.0,0.0,0.0,0.0,0.0,0.0,0.0,0.0,0.0,0.0,0.0,0.0,0.0,0.0,0.0,0.0,0.0,0.0,0.0,0.0,0.0,0.0,0.0,0.0,0.0,-0.908,-0.9571,-0.9575,-0.9481,0.0,0.0,-0.8807,-0.8478,-0.8713,0.0,0.0,0.0,0.0,0.0,0.0,0.0,0.0,0.0,0.0,0.0,0.0,0.0,0.0,0.0,0.0,0.0,0.0,0.0,0.0,0.0,0.0,0.0,0.0,0.0,0.0,0.0,0.0,0.0,0.0,0.0,0.0,0.0,0.0,0.0,0.0,0.0,0.0,0.0,0.0,0.0,0.0,0.0,0.0,0.0,0.0,0.0,0.0,0.0,0.0,0.0,0.0,0.0,0.0,0.0,-1.8605,-2.1108,-2.3641,-2.5311,-2.6057,-2.6557,-2.617,-2.4853,-2.3267,-2.1069,0.0,0.0,0.0,0.0,0.0,0.0,0.0,0.0,0.0,0.0,0.0,0.0,0.0,0.0,0.0,0.0,0.0,0.0,0.0,0.0,0.0,0.0,0.0,0.0,0.0,0.0,0.0,0.0,0.0,0.0,0.0,0.0,0.0,0.0,0.0,0.0,0.0,0.0,0.0,0.0,0.0,0.0,-1.056,-1.0852,0.0,0.0,0.0,-1.0934,-1.103,0.0,0.0,0.0,0.0,0.0,0.0,0.0,0.0,0.0,0.0,0.0,0.0,0.0,0.0,0.0,0.0,0.0,0.0,0.0,0.0,0.0,0.0,0.0,0.0,0.0,0.0,0.0,0.0,0.0,0.0,0.0,0.0,0.0,0.0,0.0,0.0,0.0,0.0,0.0,0.0,0.0,0.0,0.0,0.0,0.0,0.0,0.0,0.0,0.0,0.0,0.0,0.0,0.0,0.0,0.0,0.0,0.0,-2.1935,-2.4395,-2.5925,-2.6557,-2.6729,-2.6155,-2.4853,-2.3151,0.0,0.0,0.0,0.0,0.0,0.0,0.0,0.0,0.0,0.0,0.0,0.0,0.0,0.0,0.0,0.0,0.0,0.0,0.0,0.0,0.0,0.0,0.0,0.0,0.0,0.0,0.0,-0.3646,0.0,0.0,0.0,0.0,0.0,0.0,0.0,0.0,0.0,0.0,0.0,0.0,0.0,0.0,-1.1299,-1.1724,-1.2412,-1.3046,0.0,0.0,-1.3298,-1.3506,-1.2996,-1.204,0.0,0.0,0.0,0.0,0.0,0.0,0.0,0.0,0.0,0.0,0.0,0.0,0.0,0.0,0.0,0.0,0.0,0.0,0.0,0.0,0.0,0.0,0.0,0.0,0.0,0.0,0.0,0.0,0.0,0.0,0.0,0.0,0.0,0.0,0.0,0.0,0.0,0.0,0.0,0.0,0.0,0.0,0.0,0.0,0.0,0.0,0.0,0.0,0.0,0.0,0.0,0.0,0.0,0.0,0.0,-2.2755,-2.558,-2.6892,-2.6626,-2.6729,-2.6184,-2.4907,-2.3548,-2.1634,0.0,0.0,0.0,0.0,0.0,0.0,0.0,0.0,0.0,0.0,0.0,0.0,0.0,0.0,0.0,0.0,0.0,0.0,0.0,0.0,0.0,0.0,0.0,0.0,0.0,0.0,0.0,0.0,0.0,0.0,0.0,0.0,0.0,0.0,0.0,0.0,0.0,0.0,0.0,0.0,0.0,-1.2283,-1.2738,-1.4055,-1.5106,0.0,0.0,-1.6073,-1.5431,-1.4514,-1.3317,-1.1737,0.0,0.0,0.0,0.0,0.0,0.0,0.0,0.0,0.0,0.0,0.0,0.0,0.0,0.0,0.0,0.0,0.0,0.0,0.0,0.0,0.0,0.0,0.0,0.0,0.0,0.0,0.0,0.0,0.0,0.0,0.0,0.0,0.0,0.0,0.0,0.0,0.0,0.0,0.0,0.0,0.0,0.0,0.0,0.0,0.0,0.0,0.0,0.0,0.0,0.0,0.0,0.0,0.0,-2.091,-2.3412,-2.6315,-2.7622,-2.7225,-2.6946,-2.617,-2.4868,-2.3215,-2.1322,0.0,0.0,0.0,0.0,0.0,0.0,0.0,0.0,0.0,0.0,0.0,0.0,0.0,0.0,0.0,0.0,0.0,0.0,0.0,0.0,0.0,0.0,0.0,0.0,0.0,0.0,0.0,0.0,-0.4873,-0.5048,-0.584,0.0,0.0,0.0,0.0,0.0,0.0,0.0,0.0,0.0,0.0,-1.4132,-1.5001,-1.6802,0.0,0.0,-1.8896,-1.8908,-1.8216,-1.7094,-1.569,-1.3819,-1.1712,0.0,0.0,0.0,0.0,0.0,0.0,0.0,0.0,0.0,0.0,0.0,0.0,0.0,0.0,0.0,0.0,0.0,0.0,0.0,0.0,0.0,0.0,0.0,0.0,0.0,0.0,0.0,0.0,0.0,0.0,0.0,0.0,0.0,0.0,0.0,0.0,0.0,0.0,0.0,0.0,0.0,0.0,0.0,0.0,0.0,0.0,0.0,0.0,0.0,0.0,0.0,0.0,-2.1328,-2.4169,-2.7101,-2.829,-2.7725,-2.7207,-2.6269,-2.4946,-2.3233,-2.1407,0.0,0.0,0.0,0.0,0.0,0.0,0.0,0.0,0.0,0.0,0.0,0.0,0.0,0.0,0.0,0.0,0.0,0.0,0.0,0.0,0.0,0.0,0.0,0.0,0.0,0.0,0.0,0.0,-0.579,-0.5944,-0.6318,0.0,0.0,0.0,0.0,0.0,0.0,0.0,0.0,0.0,0.0,-1.5576,-1.673,-1.861,-2.0134,-2.0835,-2.0784,-2.0589,-2.0191,-1.8658,-1.6916,-1.5171,0.0,0.0,0.0,0.0,0.0,0.0,0.0,0.0,0.0,0.0,0.0,0.0,0.0,0.0,0.0,0.0,0.0,0.0,0.0,0.0,0.0,0.0,0.0,0.0,0.0,0.0,0.0,0.0,0.0,0.0,-1.4331,0.0,0.0,0.0,0.0,0.0,0.0,0.0,0.0,0.0,0.0,0.0,0.0,0.0,0.0,0.0,0.0,0.0,0.0,0.0,0.0,0.0,0.0,-2.2585,-2.5169,-2.7967,-2.8981,-2.8039,-2.7473,-2.6558,-2.5236,-2.3816,-2.214,-2.0162,0.0,0.0,0.0,0.0,0.0,0.0,0.0,0.0,0.0,0.0,0.0,0.0,0.0,0.0,0.0,0.0,0.0,0.0,0.0,0.0,0.0,0.0,0.0,0.0,0.0,0.0,-0.6484,-0.647,-0.6491,0.0,0.0,0.0,0.0,0.0,0.0,0.0,0.0,0.0,0.0,-1.4541,-1.6405,-1.7652,-1.9124,-2.072,-2.2128,-2.1342,-2.0668,-2.1042,-1.8757,-1.6571,0.0,0.0,0.0,0.0,0.0,0.0,0.0,0.0,0.0,0.0,0.0,0.0,0.0,0.0,0.0,0.0,0.0,0.0,0.0,0.0,0.0,0.0,0.0,0.0,0.0,0.0,0.0,-2.0304,-1.9558,0.0,0.0,0.0,0.0,0.0,0.0,0.0,0.0,0.0,0.0,0.0,-2.6901,-2.642,0.0,0.0,0.0,0.0,0.0,0.0,0.0,0.0,0.0,0.0,0.0,0.0,-2.2264,-2.5234,-2.7889,-2.8975,-2.8463,-2.7634,-2.6717,-2.574,-2.382,-2.1532,-1.8953,0.0,0.0,0.0,0.0,0.0,0.0,0.0,0.0,0.0,0.0,0.0,0.0,0.0,0.0,0.0,0.0,0.0,0.0,0.0,0.0,0.0,0.0,0.0,0.0,0.0,-0.7088,0.0,0.0,0.0,0.0,0.0,0.0,0.0,0.0,0.0,0.0,0.0,-1.237,-1.439,-1.6403,-1.826,-1.9892,-2.1629,-2.2914,0.0,0.0,0.0,0.0,0.0,0.0,0.0,0.0,0.0,0.0,0.0,0.0,0.0,0.0,-1.2631,-1.0771,-1.0261,-0.9812,-0.882,0.0,0.0,0.0,0.0,0.0,0.0,0.0,0.0,0.0,0.0,0.0,0.0,0.0,0.0,-2.4149,0.0,-2.1882,0.0,0.0,0.0,0.0,0.0,0.0,0.0,0.0,-2.8357,-2.9569,-3.0265,-3.0282,-3.0282,0.0,-3.0282,-2.8276,0.0,0.0,0.0,0.0,0.0,0.0,0.0,0.0,-2.2753,-2.5757,-2.8519,-2.9682,-2.9226,-2.8505,-2.7712,-2.6872,-2.4388,-2.1874,-1.9397,-1.7654,-1.5914,0.0,0.0,0.0,0.0,0.0,0.0,0.0,0.0,0.0,0.0,0.0,0.0,0.0,0.0,0.0,0.0,0.0,0.0,0.0,0.0,0.0,0.0,0.0,-0.7715,0.0,0.0,0.0,0.0,0.0,0.0,0.0,0.0,0.0,-1.1758,-1.2659,-1.3979,-1.5803,-1.7838,-1.9754,-2.1378,0.0,0.0,0.0,0.0,0.0,0.0,0.0,-1.9718,-2.037,-1.9337,-1.8337,-1.8024,-1.7477,-1.6915,-1.6347,0.0,0.0,-1.2989,-1.2402,-1.1914,-1.0776,-1.1351,-1.1583,-1.0008,-1.0641,-1.1366,0.0,0.0,0.0,0.0,0.0,0.0,0.0,0.0,-2.816,-2.7564,0.0,-2.5209,0.0,0.0,0.0,0.0,0.0,-2.4663,0.0,0.0,-3.1752,-3.3176,-3.3839,-3.3856,-3.3912,-3.3889,-3.3846,-3.3027,-3.1399,-2.6665,0.0,0.0,0.0,0.0,0.0,0.0,-2.4029,-2.6669,-2.9775,-3.1023,-3.0228,-2.9956,-2.9427,-2.8505,-2.554,-2.3158,-2.1554,-2.0123,-1.8175,-1.5639,-1.4861,0.0,0.0,0.0,0.0,0.0,0.0,0.0,0.0,0.0,0.0,0.0,0.0,0.0,0.0,0.0,0.0,0.0,0.0,0.0,0.0,-0.8349,0.0,0.0,0.0,0.0,0.0,0.0,0.0,0.0,0.0,0.0,-1.3319,-1.4739,-1.6042,-1.6793,0.0,0.0,0.0,0.0,-2.4519,-2.5548,-2.4724,-2.4142,-2.4552,-2.2668,-2.1324,-2.1948,0.0,0.0,-2.0132,-1.9907,-1.9432,-1.8125,-1.7889,-1.7324,-1.5774,-1.4982,-1.4224,-1.3173,-1.3735,-1.4006,-1.3,-1.3657,-1.4687,-3.7062,0.0,0.0,0.0,0.0,-3.2503,-3.3442,-3.4054,-3.3127,-3.2437,-3.1807,-2.9599,0.0,0.0,0.0,0.0,0.0,0.0,-3.0758,-3.2597,-3.427,-3.5446,-3.6158,-3.6158,-3.6158,-3.6125,-3.5628,-3.4883,-3.3872,-3.1437,-2.8575,-2.5392,0.0,0.0,0.0,0.0,-2.4164,-2.6817,-2.9295,-3.0626,-3.0681,-3.0628,-2.9835,-2.8273,-2.5784,-2.4168,-2.3539,-2.1193,-1.9263,-1.7864,-1.6203,0.0,0.0,0.0,0.0,0.0,0.0,0.0,0.0,0.0,0.0,0.0,0.0,0.0,0.0,0.0,0.0,0.0,0.0,0.0,-0.8959,-0.9484,-0.9859,0.0,0.0,0.0,0.0,0.0,0.0,0.0,0.0,0.0,-1.7623,-1.7772,-1.8264,0.0,0.0,-2.2774,-2.4022,-2.4894,-2.55,-2.5783,-2.553,0.0,0.0,-2.4229,-2.3557,-2.4593,-2.4607,-2.4413,-2.4205,-2.344,-2.2564,-2.1667,-2.0832,-1.9968,-1.9093,-1.7713,-1.6224,-1.4892,-1.5467,-1.5984,-1.505,-1.5601,-1.6409,-4.2824,-3.7367,-3.6531,-3.5992,-3.5901,-3.7301,-3.8344,-3.8974,-3.8245,-3.75,-3.6671,-3.4518,-3.2762,-3.1326,-2.9566,0.0,0.0,0.0,-3.4154,-3.5611,-3.7052,-3.7963,-3.8411,-3.8692,-3.851,-3.7947,-3.75,-3.6771,-3.576,-3.4866,-3.3193,-3.0647,0.0,0.0,-2.6071,-2.5425,-2.6279,-2.8673,-3.0538,-3.1589,-3.1806,-3.147,-3.053,-2.9037,-2.6819,-2.544,-2.4901,-2.2389,-2.0502,-1.9351,-1.7269,-1.5342,0.0,0.0,0.0,0.0,0.0,0.0,0.0,0.0,0.0,0.0,0.0,-0.7789,-0.806,0.0,0.0,0.0,-0.9285,-0.9822,-1.0463,-1.126,0.0,0.0,0.0,0.0,0.0,0.0,0.0,-1.6293,-1.7371,-1.8858,-2.0994,-2.1244,-2.1456,-2.2133,-2.3239,-2.43,-2.5065,0.0,-2.6367,-2.6099,-2.672,-2.7089,-2.6778,-2.6341,-2.6186,-2.6582,-2.6891,-2.6666,-2.5964,-2.5274,-2.4404,-2.3361,-2.2479,-2.1758,-2.0914,-1.9814,-1.8604,-1.7117,-1.7624,-1.8023,-1.7181,-1.761,-1.8171,-4.7246,-4.4984,-4.2932,-4.1553,-4.0779,-4.2104,-4.3069,-4.3698,-4.2969,-4.2303,-4.1524,-3.9394,-3.7615,-3.6059,-3.4054,0.0,-3.5197,-3.5992,-3.7085,-3.8417,-3.9802,-4.0492,-4.0525,-4.1094,-4.068,-3.9381,-3.9265,-3.8493,-3.7193,-3.7036,-3.6704,-3.5943,-3.0659,-2.8591,-2.9648,-2.9069,-2.9658,-3.155,-3.283,-3.3426,-3.3266,-3.2328,-3.1365,-3.0449,-2.8313,-2.6688,-2.567,-2.3628,-2.1799,-2.0277,-1.8233,-1.6638,-1.558,0.0,0.0,0.0,0.0,0.0,0.0,0.0,0.0,0.0,0.0,0.0,0.0,0.0,0.0,0.0,-1.0782,0.0,-1.2524,-1.3396,0.0,0.0,0.0,-1.5082,-1.5704,-1.6362,-1.7175,-1.8254,0.0,0.0,-2.3488,-2.4789,-2.5212,-2.4139,-2.4952,-2.5621,-2.5678,-2.6721,-2.7223,-2.678,-2.8183,-2.9069,-2.8538,-2.8792,-2.8859,-2.8229,-2.8422,-2.8071,-2.6582,-2.5921,-2.5177,-2.3631,-2.3168,-2.2718,-2.1561,-2.1327,-2.1068,-1.9894,-1.988,-1.9969,-1.9453,-1.9608,-1.9855,-5.0358,-4.8994,-4.8479,-4.6188,-4.2936,-4.3794,-4.4589,-4.5185,-4.4489,-4.4075,-4.3777,-4.1607,-3.9553,-3.7649,-3.7135,-3.7085,-3.7483,-3.8785,-3.9547,-3.9901,-4.0763,-4.1177,-4.1177,-4.1326,-4.0961,-4.0111,-3.899,-3.8295,-3.7914,-3.6804,-3.6456,-3.6721,-3.4883,-3.3541,-3.2746,-3.2055,-3.1858,-3.227,-3.3663,-3.4283,-3.4007,-3.2691,-3.1586,-3.079,-2.8689,-2.6941,-2.566,-2.3941,-2.2522,-2.1431,-1.9694,-1.8294,-1.7266,-1.5667,0.0,0.0,0.0,0.0,0.0,0.0,0.0,0.0,0.0,-0.9674,-1.0348,0.0,-1.0787,0.0,-1.2505,-1.3255,-1.4163,-1.453,0.0,0.0,-1.7326,-1.7831,-1.8008,-1.9086,-1.9846,-1.9866,-2.205,-2.383,-2.4561,-2.6624,-2.7941,-2.7614,-2.7502,-2.762,-2.8061,-2.8367,-2.8718,-2.9082,-2.9929,-3.066,-3.0874,-3.1085,-3.0956,-2.9999,-2.9631,-2.9055,-2.8169,-2.6821,-2.5611,-2.4657,-2.3716,-2.2873,-2.2137,-2.2348,-2.255,-2.2198,-2.1153,-2.0458,-2.1124,-2.0969,-2.0905,-5.1916,-5.0892,-5.0908,-4.9177,-4.6545,-4.699,-4.7371,-4.7686,-4.6974,-4.6477,-4.603,-4.4191,-4.27,-4.1607,-4.1591,-4.1591,-4.1624,-4.2088,-4.2332,-4.2332,-4.2353,-4.2373,-4.2373,-4.2373,-4.1827,-4.0812,-3.9702,-3.8841,-3.8169,-3.7384,-3.7185,-3.7573,-3.75,-3.7052,-3.6232,-3.4849,-3.4313,-3.4532,-3.4897,-3.4865,-3.4292,-3.2796,-3.1801,-3.1341,-2.9016,-2.7203,-2.6115,-2.4259,-2.2975,-2.2367,-2.0518,-1.9288,-1.8788,-1.6925,-1.5018,0.0,0.0,0.0,0.0,0.0,0.0,0.0,0.0,0.0,0.0,0.0,-1.3023,-1.4604,-1.5007,-1.5653,-1.6782,-1.7325,-1.8153,-1.942,-2.0352,-2.0894,-2.0894,-2.1584,-2.2093,-2.2186,-2.4004,-2.5649,-2.6714,-2.8258,-2.9516,-2.9964,-2.9493,-2.9157,-2.9243,-2.9485,-2.9854,-3.0225,-3.1322,-3.2298,-3.2881,-3.2865,-3.2464,-3.1509,-3.0582,-2.9712,-2.883,-2.7383,-2.602,-2.5175,-2.443,-2.3769,-2.322,-2.3544,-2.3926,-2.3828,-2.3315,-2.2856,-2.2874,-2.2616,-2.2512,-5.2621,-5.1727,-5.1727,-5.1239,-5.0503,-5.052,-5.0336,-4.9987,-4.9392,-4.863,-4.7785,-4.6493,-4.5831,-4.5696,-4.5649,-4.5582,-4.5483,-4.4754,-4.4456,-4.4506,-4.381,-4.3499,-4.3615,-4.3615,-4.282,-4.138,-4.0713,-3.9669,-3.8377,-3.8235,-3.8261,-3.8377,-3.9,-3.9315,-3.9232,-3.7367,-3.6688,-3.7193,-3.6172,-3.5233,-3.4455,-3.2942,-3.206,-3.1769,-2.9259,-2.7381,-2.6409,-2.4507,-2.332,-2.297,-2.1081,-2.0093,-2.0235,-1.7853,-1.6029,0.0,-1.4172,0.0,0.0,0.0,0.0,0.0,0.0,0.0,0.0,-1.4597,-1.5792,-1.7674,-1.7814,-1.8359,-1.9671,-2.0557,-2.1404,-2.2303,-2.3231,-2.3739,-2.3642,-2.3771,-2.4108,-2.4611,-2.5798,-2.7285,-2.8939,-2.9744,-3.0522,-3.13,-3.1162,-3.0712,-3.0256,-3.0461,-3.0732,-3.0897,-3.2495,-3.3794,-3.4167,-3.4061,-3.35,-3.2501,-3.1288,-3.0076,-2.8886,-2.7636,-2.6427,-2.5442,-2.5119,-2.4922,-2.4402,-2.4824,-2.5217,-2.5231,-2.557,-2.5556,-2.4613,-2.4191,-2.3994,-5.323,-5.2908,-5.2874,-5.2619,-5.2154,-5.2154,-5.1071,-4.9309,-4.9177,-4.8349,-4.7106,-4.6808,-4.6013,-4.492,-4.4903,-4.4589,-4.3962,-4.3264,-4.3264,-4.3794,-4.3035,-4.3019,-4.3582,-4.3615,-4.285,-4.1442,-4.0713,-3.9945,-3.9083,-3.8493,-3.851,-3.91,-3.9232,-3.9315,-3.9282,0.0,0.0,0.0,-3.6419,-3.5529,-3.5324,-3.3762,-3.2319,-3.1114,-2.9486,0.0,-2.5068,-2.4499,-2.3736,-2.2602,-2.1951,0.0,0.0,0.0,0.0,0.0,0.0,0.0,0.0,0.0,0.0,0.0,-2.0825,-2.008,-1.8331,-1.8952,-1.9641,-2.0034,-2.0081,-2.0444,-2.1349,-2.1689,-2.2448,-2.3804,-2.4719,-2.4968,-2.4452,-2.5359,-2.6112,-2.6128,-2.7327,-2.8666,-2.9925,-3.0966,-3.1602,-3.183,-3.2365,-3.277,-3.2673,-3.1894,-3.1738,-3.2706,-3.3923,-3.4721,-3.4806,-3.4486,-3.3824,-3.2617,-3.1359,-3.015,-2.897,-2.7734,-2.6652,-2.5865,-2.5752,-2.5711,-2.5597,-2.6048,-2.6469,-2.6469,-2.6975,-2.7074,-2.5809,-2.5175,-2.4655,-5.3923,0.0,-5.3347,-5.2972,0.0,-5.2605,-5.1652,-5.0137,-4.9806,-4.8829,-4.7454,-4.7454,-4.6825,-4.5765,-4.5384,-4.4821,-4.4108,-4.2986,-4.2688,-4.3019,-4.2655,-4.2688,-4.3069,-4.3416,-4.3002,-4.1955,-4.1226,-4.0514,-3.9846,-3.9471,-3.9471,-3.9862,-4.015,-4.0166,-3.9846,-3.9464,-3.8924,-3.8228,-3.7261,-3.6392,-3.5594,-3.4349,-3.3153,-3.2012,0.0,0.0,0.0,0.0,0.0,0.0,0.0,0.0,0.0,0.0,0.0,-1.9682,-1.9749,-2.0054,-2.0614,-2.2025,-2.3349,-2.4455,-2.5505,-2.4854,-2.1955,-2.2244,-2.2733,-2.3069,-2.2797,-2.2896,-2.362,-2.3465,-2.3872,-2.5349,-2.5904,-2.6102,-2.6166,-2.6733,-2.7312,-2.7696,-2.8575,-2.9681,-3.0839,-3.1596,-3.2301,-3.2741,-3.2853,-3.329,-3.4168,-3.3889,-3.3814,-3.4768,-3.5156,-3.5327,-3.4967,-3.462,-3.407,-3.2964,-3.2075,-3.1007,-2.9768,-2.883,-2.7902,-2.7059,-2.6821,-2.6849,-2.6891,-2.7326,-2.7734,-2.7804,-2.824,-2.8366,-2.7439,-2.654,-2.5598,-5.4649,-5.429,-5.3702,-5.3124,-5.2676,-5.2659,-5.2154,-5.1231,0.0,0.0,0.0,-4.8249,-4.7785,-4.704,-4.6179,-4.5384,-4.4605,-4.3181,-4.2555,-4.2688,-4.2555,-4.2555,-4.2721,-4.33,-4.3218,-4.2473,-4.186,-4.1243,-4.058,-4.0591,-4.0564,-4.0613,-4.1127,-4.1061,-4.0393,-3.968,-3.9017,-3.8427,-3.8147,-3.7357,-3.6038,-3.5036,-3.412,-3.3324,-3.1362,-2.954,-2.7948,-2.6762,-2.5778,-2.4903,-2.4233,-2.4092,-2.4492,-2.3324,-2.271,-2.2925,-2.282,-2.3293,-2.4595,-2.5576,-2.6673,-2.7955,-2.9176,-2.8478,-2.5218,-2.5148,-2.5438,-2.594,-2.5422,-2.5324,-2.5924,-2.5438,-2.5584,-2.6911,-2.7073,-2.73,-2.7786,-2.7899,-2.8174,-2.8892,-2.9345,-3.0196,-3.1374,-3.1974,-3.2541,-3.3263,-3.3172,-3.3393,-3.5044,-3.5475,-3.566,-3.6184,-3.6042,-3.5705,-3.5055,-3.462,-3.4142,-3.336,-3.2778,-3.2005,-3.0979,-3.0277,-2.9518,-2.8507,-2.8338,-2.8508,-2.8523,-2.893,-2.9167,-2.9181,-2.9574,-2.9757,-2.9083,-2.8127,-2.6891,-5.5192,-5.4532,-5.443,-5.3819,-5.2885,-5.2868,-5.2259,-5.1265,-5.0535,-5.0104,-4.9872,-4.9226,-4.8547,-4.7769,-4.6411,-4.5384,-4.4605,-4.3181,-4.282,0.0,-4.2771,-4.2837,-4.3433,-4.3549,-4.3218,-4.2522,-4.2373,-4.196,-4.1342,-4.1293,-4.1259,-4.1276,-4.1359,-4.1077,-4.0409,-3.968,-3.9249,-3.9133,-3.8378,-3.7887,-3.7646,-3.6084,-3.4886,-3.4129,-3.2569,-3.0749,-2.8725,-2.845,-2.7737,-2.6477,-2.6296,-2.626,-2.6302,-2.594,-2.5715,-2.5622,-2.6525,-2.751,-2.8424,-2.9223,-3.0149,-3.1207,-3.1521,-3.0593,-2.8233,-2.8112,-2.798,-2.7494,-2.7348,-2.7284,-2.7397,-2.7316,-2.7543,-2.8341,-2.8487,-2.8547,-2.8644,-2.8676,-2.8973,-2.9653,-2.9248,-2.9744,-3.1326,-3.2058,-3.2364,-3.2562,-3.3521,-3.4705,-3.5166,-3.5968,-3.6338,-3.643,-3.6195,-3.5703,-3.5055,-3.462,-3.4128,-3.3417,-3.2848,-3.223,-3.1499,-3.1246,-3.0867,-3.0235,-3.0375,-3.0726,-3.0829,-3.1021,-3.0923,-3.0881,-3.0993,-3.0895,-3.0291,-2.9574,-2.8394,-5.6105,-5.57,-5.4938,-5.4174,-5.3456,-5.2877,-5.2352,-5.1879,-5.1545,-5.0932,-5.0171,-4.9425,-4.8696,-4.7901,-4.646,-4.5384,-4.4638,-4.3595,-4.3267,-4.3549,-4.3251,-4.3267,-4.3615,-4.4026,-4.3827,-4.3135,-4.3512,-4.333,-4.2667,-4.2589,-4.2589,-4.2555,-4.2191,-4.1856,-4.1491,-4.0431,-3.9696,-3.9299,-3.8904,-3.8461,-3.7985,-3.7144,-3.613,-3.4919,-3.3754,-3.2336,-3.0603,-3.0166,-2.9308,-2.7903,-2.7818,-2.7656,-2.7284,-2.7453,-2.7672,-2.7842,-2.8834,-2.9717,-3.0402,-3.131,-3.2241,-3.3056,-3.3129,-3.2555,-3.1156,-3.0726,-3.0409,-3.0053,-2.9696,-2.9432,-2.9416,-2.9113,-2.9038,-2.9362,-2.9394,-2.941,-2.9459,-2.9745,-3.0085,-3.0393,-3.0506,-3.0858,-3.1606,-3.2157,-3.2612,-3.2835,-3.4058,-3.4763,-3.4428,-3.4863,-3.56,-3.6245,-3.6226,-3.5735,-3.5106,-3.4687,-3.4128,-3.3431,-3.3101,-3.2651,-3.2117,-3.1991,-3.1724,-3.1204,-3.1331,-3.1457,-3.1513,-3.1485,-3.1485,-3.1485,-3.1485,-3.1316,-3.1021,-3.0305,-2.8759,-5.6934,-5.6681,-5.5581,-5.4679,-5.3924,-5.285,-5.2409,-5.2409,-5.2409,-5.1744,-5.0684,-4.9922,-4.9276,-4.8597,-4.704,-4.598,-4.5367,-4.4522,-4.4095,-4.4078,-4.4078,-4.4095,-4.4158,-4.4688,-4.4556,-4.3946,-4.4423,-4.4324,-4.3681,-4.3615,-4.3615,-4.3499,-4.2688,-4.2241,-4.2208,-4.0845,-3.9879,-3.9348,-3.9315,-3.8914,-3.8088,-3.7896,-3.719,-3.5997,-3.5078,-3.4003,-3.2789,-3.2004,-3.1056,-2.9842,-2.9475,-2.9016,-2.8493,-2.9011,-2.953,-2.9943,-3.0852,-3.1566,-3.1998,-3.2821,-3.355,-3.4036,-3.4101,-3.3874,-3.334,-3.2821,-3.2319,-3.1988,-3.1373,-3.1098,-3.1017,-3.0668,-3.0383,-3.0366,-3.0383,-3.0415,-3.0431,-3.083,-3.105,-3.1034,-3.1429,-3.1593,-3.1532,-3.2103,-3.2987,-3.389,-3.4463,-3.4441,-3.4052,-3.4264,-3.5063,-3.5876,-3.6088,-3.5542,-3.5014,-3.4684,-3.4133,-3.3452,-3.3262,-3.3059,-3.2721,-3.2609,-3.2469,-3.2047,-3.1949,-3.2019,-3.1935,-3.1949,-3.1991,-3.2033,-3.2061,-3.1935,-3.1696,-3.0881,-2.9279,-5.7391,-5.6833,-5.663,-5.5572,-5.3975,-5.2884,-5.2459,-5.2442,-5.2409,-5.234,-5.2061,-5.1396,-5.105,-5.0684,-4.8713,-4.7703,-4.7504,-4.6228,-4.5599,-4.5582,-4.5599,-4.5599,-4.5549,-4.5665,-4.5301,-4.4655,-4.4671,-4.4357,-4.3631,-4.3615,-4.3615,-4.3433,-4.2191,-4.1558,-4.1392,-4.016,-3.9398,-3.9315,-3.9315,-3.8924,-3.8209,-3.7949,-3.775,-3.7576,-3.6582,-3.5736,-3.4855,-3.4198,-3.3453,-3.2676,-3.1413,-3.0678,-3.0661,-3.1276,-3.1697,-3.1771,-3.2983,-3.3833,-3.3824,-3.3946,-3.4003,-3.4084,-3.4101,-3.4084,-3.402,-3.3939,-3.3356,-3.2449,-3.2028,-3.194,-3.1898,-3.185,-3.1817,-3.1801,-3.1817,-3.1801,-3.1769,-3.185,-3.1632,-3.0969,-3.1147,-3.0745,-3.0557,-3.1702,-3.346,-3.5038,-3.4768,-3.4691,-3.512,-3.5164,-3.5323,-3.5845,-3.5597,-3.4998,-3.4571,-3.4507,-3.4119,-3.3444,-3.3276,-3.3241,-3.3108,-3.3157,-3.3171,-3.2876,-3.2988,-3.296,-3.3016,-3.3108,-3.3024,-3.289,-3.2904,-3.2932,-3.2426,-3.1738,-3.0333,-5.7712,-5.7391,-5.6985,-5.5977,-5.4625,-5.3931,-5.34,-5.3003,-5.2986,-5.2771,-5.2357,-5.2078,-5.173,-5.1199,-4.9442,-4.8663,-4.858,-4.757,-4.709,-4.7057,-4.6676,-4.6427,-4.6444,-4.6444,-4.5847,-4.4804,-4.5119,-4.4738,-4.378,-4.3615,-4.3615,-4.3499,-4.2539,-4.2042,-4.1939,-4.0647,-3.9945,-3.9945,-3.9406,-3.8972,-3.8698,-3.8504,-3.8139,-3.7622,-3.714,-3.6578,-3.5914,-3.5542,-3.4878,-3.3761,-3.3113,-3.2393,-3.1607,-3.2255,-3.2643,-3.2708,-3.355,-3.4101,-3.4101,-3.4101,-3.4101,-3.4101,-3.4101,-3.4262,-3.4683,-3.4732,-3.4635,-3.4522,-3.3777,-3.3242,-3.3242,-3.3259,-3.3242,-3.3242,-3.3242,-3.3097,-3.2692,-3.3016,-3.2838,-3.1817,-3.1947,-3.1891,-3.1408,-3.2167,-3.3604,-3.5035,-3.4937,-3.4963,-3.5448,-3.5256,-3.5071,-3.5093,-3.4912,-3.4857,-3.4671,-3.412,-3.3753,-3.3394,-3.3276,-3.3276,-3.3312,-3.3276,-3.3312,-3.3276,-3.3276,-3.3276,-3.322,-3.3276,-3.3276,-3.3276,-3.3262,-3.3108,-3.2539,-3.2216,-3.112,-5.7881,-5.778,-5.6995,-5.6172,-5.5361,-5.4741,-5.4175,-5.3715,-5.3516,-5.3119,-5.2655,-5.2509,-5.2092,-5.1446,-5.0253,-4.9707,-4.9591,-4.873,-4.8299,-4.8216,-4.7554,-4.7206,-4.7206,-4.7206,-4.6527,-4.5533,-4.5616,-4.5036,-4.3747,-4.3615,-4.3615,-4.3499,-4.2853,-4.239,-4.2121,-4.0978,-4.0409,-4.0299,-3.9528,-3.9149,-3.9172,-3.8958,-3.8488,-3.7851,-3.7653,-3.7371,-3.6902,-3.6675,-3.6108,-3.504,-3.4619,-3.3939,-3.3,-3.3413,-3.3785,-3.3987,-3.4424,-3.47,-3.47,-3.47,-3.4716,-3.4716,-3.47,-3.4926,-3.5347,-3.5493,-3.5736,-3.6044,-3.5315,-3.4716,-3.4716,-3.4716,-3.47,-3.47,-3.47,-3.4408,-3.385,-3.4133,-3.3825,-3.2627,-3.2676,-3.2902,-3.253,-3.2967,-3.3946,-3.5198,-3.5508,-3.5571,-3.5839,-3.5707,-3.5312,-3.4924,-3.4925,-3.4713,-3.4604,-3.427,-3.3576,-3.3214,-3.3254,-3.3396,-3.3361,-3.3361,-3.3276,-3.3276,-3.3276,-3.3276,-3.3276,-3.3276,-3.3276,-3.3276,-3.3262,-3.3164,-3.2834,-3.2679,-3.1949,-5.7881,-5.7744,-5.6704,-5.6201,-5.6081,-5.5024,-5.4506,-5.4407,-5.3765,-5.3417,-5.3235,-5.2688,-5.2409,-5.226,-5.1464,-5.1183,-5.1,-4.9641,-4.8995,-4.8912,-4.8233,-4.7934,-4.7968,-4.7934,-4.7504,-4.6593,-4.6013,-4.5052,-4.3681,-4.3615,-4.3615,-4.3565,-4.2853,-4.2158,-4.1574,-4.0845,-4.0442,-4.0448,-3.9791,-3.9534,-3.9762,-3.9242,-3.8804,-3.8649,-3.8427,-3.8262,-3.8165,-3.7603,-3.7182,-3.7128,-3.5866,-3.513,-3.5049,-3.5065,-3.5331,-3.5963,-3.6108,-3.6157,-3.6108,-3.6049,-3.6092,-3.6141,-3.6027,-3.6189,-3.6222,-3.6254,-3.6319,-3.6351,-3.6335,-3.6206,-3.6189,-3.6027,-3.6044,-3.6108,-3.6141,-3.5768,-3.5163,-3.4975,-3.4498,-3.3413,-3.3113,-3.321,-3.3113,-3.3631,-3.4716,-3.5952,-3.6685,-3.7118,-3.7456,-3.7174,-3.6706,-3.6151,-3.5614,-3.4783,-3.3678,-3.4002,-3.3999,-3.3774,-3.3797,-3.3691,-3.3543,-3.3466,-3.3389,-3.3304,-3.3304,-3.3304,-3.329,-3.3276,-3.3276,-3.3276,-3.3276,-3.315,-3.3038,-3.3178,-3.2539,-5.7808,-5.7665,-5.7117,-5.683,-5.6646,-5.6132,-5.5636,-5.5185,-5.492,-5.4241,-5.3467,-5.3135,-5.2804,-5.2409,-5.2144,-5.1746,-5.1199,-4.9756,-4.911,-4.9011,-4.8365,-4.8001,-4.8001,-4.8001,-4.762,-4.6891,-4.6146,-4.5052,-4.3747,-4.3615,-4.3615,-4.3482,-4.2853,-4.234,-4.2009,-4.1409,-4.1259,-4.1595,-4.0943,-4.0798,-4.1227,-4.0561,-4.0074,-3.9952,-3.8963,-3.8391,-3.8391,-3.8132,-3.7809,-3.7311,-3.6805,-3.6351,-3.5963,-3.5898,-3.6011,-3.627,-3.6276,-3.6276,-3.6276,-3.6276,-3.6276,-3.6276,-3.6276,-3.6546,-3.6826,-3.6939,-3.7101,-3.7501,-3.7647,-3.7647,-3.7452,-3.6869,-3.6481,-3.6821,-3.6562,-3.6254,-3.5882,-3.5477,-3.4797,-3.3987,-3.3744,-3.3906,-3.4271,-3.4677,-3.5542,-3.7242,-3.7801,-3.8314,-3.9103,-3.8926,-3.82,-3.7677,-3.7023,-3.6134,-3.4819,-3.4733,-3.4802,-3.4789,-3.476,-3.4709,-3.4594,-3.41,-3.3972,-3.374,-3.3613,-3.3382,-3.3382,-3.3276,-3.3276,-3.3276,-3.3276,-3.3276,-3.3276,-3.3276,-3.2721,-5.7752,-5.7588,-5.7327,-5.7139,-5.6987,-5.6796,-5.6415,-5.5951,-5.5681,-5.5019,-5.4125,-5.3612,-5.3135,-5.2721,-5.2525,-5.2161,-5.1564,-5.0386,-4.9806,-4.9707,-4.8812,-4.8349,-4.8315,-4.8117,-4.7736,-4.7206,-4.6493,-4.54,-4.4108,-4.3976,-4.383,-4.3565,-4.3069,-4.2704,-4.2456,-4.1993,-4.2026,-4.2274,-4.1675,-4.1585,-4.2061,-4.1347,-4.0812,-4.0515,-3.9437,-3.8748,-3.8732,-3.8521,-3.8197,-3.7716,-3.7663,-3.7452,-3.7031,-3.6983,-3.6983,-3.6967,-3.6999,-3.6983,-3.6983,-3.6983,-3.6999,-3.6983,-3.6999,-3.7209,-3.7603,-3.7651,-3.7938,-3.8278,-3.8391,-3.8391,-3.823,-3.7533,-3.7177,-3.7533,-3.7242,-3.6772,-3.6351,-3.5866,-3.5137,-3.4295,-3.4052,-3.4311,-3.4748,-3.4982,-3.5705,-3.7132,-3.7689,-3.8615,-3.9205,-3.9405,-3.8794,-3.7921,-3.759,-3.6763,-3.5926,-3.5735,-3.5478,-3.5375,-3.5364,-3.5439,-3.5356,-3.4837,-3.4478,-3.4217,-3.3936,-3.3621,-3.3424,-3.3319,-3.3304,-3.3304,-3.3276,-3.3276,-3.3276,-3.3276,-3.275,-5.7588,-5.7514,-5.7176,-5.6987,-5.6949,-5.6757,-5.668,-5.6514,-5.5968,-5.5565,-5.5152,-5.4092,-5.3549,-5.3251,-5.2738,-5.2442,-5.2194,-5.1514,-5.1149,-5.0949,-4.9657,-4.9028,-4.8978,-4.8315,-4.7918,-4.7752,-4.7189,-4.6096,-4.4655,-4.4556,-4.4274,-4.3681,-4.3565,-4.3184,-4.2555,-4.2522,-4.2506,-4.2456,-4.1914,-4.175,-4.1976,-4.1524,-4.1066,-4.0683,-3.9975,-3.9603,-3.9554,-3.8812,-3.8375,-3.8343,-3.8327,-3.8375,-3.823,-3.8213,-3.8311,-3.8213,-3.8311,-3.8327,-3.8294,-3.8246,-3.8165,-3.8165,-3.8294,-3.8197,-3.823,-3.8278,-3.8327,-3.8375,-3.8391,-3.8391,-3.8391,-3.8262,-3.8213,-3.8359,-3.8116,-3.7517,-3.6627,-3.6238,-3.5704,-3.4441,-3.4101,-3.4117,-3.427,-3.4694,-3.524,-3.578,-3.6685,-3.7705,-3.797,-3.8294,-3.7773,-3.6999,-3.6802,-3.6566,-3.6599,-3.6678,-3.6216,-3.5863,-3.5823,-3.5829,-3.5737,-3.5409,-3.5068,-3.4829,-3.4534,-3.4197,-3.3916,-3.3831,-3.3557,-3.3515,-3.3417,-3.3319,-3.3276,-3.322,-3.2974,-5.7439,-5.7176,-5.7063,-5.6911,-5.6796,-5.6719,-5.6697,-5.668,-5.6432,-5.6084,-5.5565,-5.5102,-5.4357,-5.3533,-5.3169,-5.2837,-5.2409,-5.2161,-5.1812,-5.1149,-4.9806,-4.9144,-4.8995,-4.8349,-4.7736,-4.7289,-4.7007,-4.6146,-4.5,-4.4752,-4.4324,-4.3731,-4.3615,-4.3482,-4.3234,-4.3251,-4.3234,-4.3218,-4.293,-4.2858,-4.2966,-4.2558,-4.2246,-4.2089,-4.1381,-4.0948,-4.0867,-3.9298,-3.844,-3.844,-3.8391,-3.8391,-3.8391,-3.8391,-3.8391,-3.8391,-3.8391,-3.8391,-3.8391,-3.8391,-3.8391,-3.8391,-3.8391,-3.8391,-3.8391,-3.8391,-3.8391,-3.8391,-3.8391,-3.8391,-3.8391,-3.8391,-3.8424,-3.8391,-3.7954,-3.7404,-3.6465,-3.5493,-3.4667,-3.4246,-3.4101,-3.4505,-3.5166,-3.5358,-3.5203,-3.6035,-3.6472,-3.6756,-3.7686,-3.7263,-3.7185,-3.6953,-3.6741,-3.6242,-3.6222,-3.6497,-3.6627,-3.6539,-3.6545,-3.6339,-3.6241,-3.6029,-3.5709,-3.5358,-3.5026,-3.4745,-3.4514,-3.4197,-3.388,-3.3683,-3.3585,-3.3459,-3.3333,-3.315,-3.2974,-5.7252,-5.6987,-5.6911,-5.6851,-5.6697,-5.6697,-5.6697,-5.6697,-5.6697,-5.6432,-5.6034,-5.5681,-5.5102,-5.4208,-5.3645,-5.3185,-5.2754,-5.2506,-5.2177,-5.1614,-5.0502,-4.9806,-4.9409,-4.8448,-4.7802,-4.7388,-4.7305,-4.6692,-4.5566,-4.5467,-4.5019,-4.4191,-4.4026,-4.383,-4.3648,-4.3615,-4.3615,-4.3598,-4.3446,-4.3372,-4.3251,-4.3054,-4.2868,-4.2693,-4.1999,-4.1628,-4.1482,-3.9994,-3.9169,-3.912,-3.8958,-3.8699,-3.8456,-3.8391,-3.8391,-3.8391,-3.8391,-3.8391,-3.8391,-3.8391,-3.8391,-3.8391,-3.8391,-3.8391,-3.8391,-3.8391,-3.8391,-3.8391,-3.8391,-3.8391,-3.8424,-3.8683,-3.878,-3.8796,-3.8213,-3.7452,-3.6675,-3.5655,-3.5056,-3.4982,-3.4923,-3.5178,-3.5341,-3.5155,-3.4745,-3.5464,-3.5428,-3.5335,-3.6334,-3.6125,-3.612,-3.6141,-3.584,-3.5575,-3.5601,-3.6136,-3.6843,-3.7155,-3.7344,-3.711,-3.6915,-3.6644,-3.6304,-3.5808,-3.5442,-3.5105,-3.4823,-3.4407,-3.4062,-3.3908,-3.3838,-3.3459,-3.3276,-3.3276,-3.3122,-5.6987,-5.6949,-5.6812,-5.6719,-5.6697,-5.6697,-5.6697,-5.6697,-5.6697,-5.6663,-5.6498,-5.6034,-5.5615,-5.5234,-5.4208,-5.3632,-5.3301,-5.2804,-5.2492,-5.2194,-5.1512,-5.0833,-4.9823,-4.8713,-4.81,-4.7918,-4.7918,-4.752,-4.6676,-4.6643,-4.6162,-4.487,-4.4721,-4.4456,-4.4075,-4.378,-4.3896,-4.3929,-4.366,-4.3413,-4.3227,-4.2961,-4.2806,-4.2618,-4.2051,-4.1742,-4.1644,-4.0998,-4.0513,-4.0335,-3.9654,-3.9072,-3.8553,-3.8391,-3.8391,-3.8391,-3.8391,-3.8391,-3.8391,-3.8391,-3.8391,-3.8391,-3.8391,-3.8391,-3.8363,-3.8335,-3.8307,-3.8307,-3.8307,-3.8367,-3.8574,-3.9007,-3.9379,-3.9473,-3.8893,-3.8197,-3.7506,-3.6853,-3.6465,-3.6357,-3.6201,-3.5814,-3.5214,-3.4659,-3.3861,-3.3347,-3.3676,-3.4046,-3.4191,-3.448,-3.4335,-3.4407,-3.4655,-3.5005,-3.5096,-3.5637,-3.6396,-3.7098,-3.7401,-3.7341,-3.7187,-3.6944,-3.6782,-3.63,-3.5892,-3.5527,-3.5273,-3.5012,-3.4722,-3.4638,-3.4295,-3.3599,-3.3508,-3.3719,-3.3733,-5.6911,-5.6757,-5.6735,-5.6697,-5.6697,-5.6697,-5.6697,-5.6697,-5.6697,-5.6697,-5.663,-5.6498,-5.61,-5.5565,-5.5185,-5.4456,-5.3599,-5.3218,-5.2804,-5.2407,-5.2243,-5.0999,-4.969,-4.9044,-4.8531,-4.8117,-4.805,-4.762,-4.6941,-4.6957,-4.6427,-4.5533,-4.5483,-4.54,-4.5235,-4.5135,-4.5218,-4.5088,-4.4362,-4.3945,-4.377,-4.3049,-4.2665,-4.257,-4.2392,-4.2295,-4.2311,-4.2149,-4.1241,-3.9849,-3.9619,-3.9181,-3.8586,-3.8489,-3.8537,-3.8521,-3.8472,-3.844,-3.8456,-3.8456,-3.844,-3.8391,-3.8553,-3.8351,-3.825,-3.8119,-3.8062,-3.8033,-3.8033,-3.8332,-3.8882,-3.9337,-3.9719,-4.0043,-3.9719,-3.9172,-3.88,-3.8311,-3.7857,-3.7765,-3.7122,-3.6498,-3.5823,-3.4964,-3.4015,-3.3349,-3.3201,-3.3341,-3.3416,-3.3275,-3.3343,-3.3437,-3.3685,-3.4268,-3.4748,-3.5247,-3.5913,-3.6847,-3.7173,-3.7264,-3.7148,-3.6989,-3.6908,-3.6764,-3.6553,-3.623,-3.6216,-3.6079,-3.5826,-3.5321,-3.4927,-3.4421,-3.4562,-3.4767,-3.4697,-5.6812,-5.6697,-5.6697,-5.6697,-5.6697,-5.6697,-5.6697,-5.6697,-5.6697,-5.6697,-5.6697,-5.6697,-5.6465,-5.6084,-5.5752,-5.4953,-5.391,-5.3549,-5.3019,-5.2492,-5.2393,-5.1514,-5.027,-4.9773,-4.9193,-4.8531,-4.8448,-4.805,-4.7487,-4.7355,-4.6957,-4.6394,-4.6262,-4.6113,-4.5732,-4.5798,-4.5814,-4.5586,-4.4776,-4.4194,-4.4113,-4.3164,-4.2682,-4.2602,-4.2602,-4.2602,-4.2602,-4.2586,-4.1873,-4.0707,-4.038,-4.0073,-3.9379,-3.9282,-3.9282,-3.9282,-3.9282,-3.9314,-3.9282,-3.9282,-3.9282,-3.9298,-3.9282,-3.9166,-3.8977,-3.8706,-3.8511,-3.8501,-3.8497,-3.8808,-3.934,-3.9962,-4.0675,-4.1211,-4.0893,-4.0365,-3.9803,-3.9307,-3.9082,-3.8814,-3.816,-3.7134,-3.6414,-3.5284,-3.4182,-3.3215,-3.2817,-3.2935,-3.299,-3.2733,-3.2774,-3.3209,-3.3804,-3.4588,-3.5459,-3.6063,-3.6474,-3.7275,-3.7263,-3.7272,-3.7264,-3.7119,-3.6964,-3.6964,-3.6978,-3.6936,-3.6821,-3.6595,-3.6145,-3.5723,-3.547,-3.5316,-3.5302,-3.5456,-3.5414,-5.6697,-5.6697,-5.6697,-5.6697,-5.6697,-5.6697,-5.6697,-5.6697,-5.6697,-5.6697,-5.6697,-5.6697,-5.6647,-5.663,-5.6051,-5.5251,-5.4423,-5.3881,-5.3119,-5.2605,-5.2376,-5.1928,-5.1313,-5.0585,-4.9839,-4.9127,-4.9094,-4.8614,-4.805,-4.7918,-4.7636,-4.7156,-4.7007,-4.6676,-4.6394,-4.6179,-4.6063,-4.6,-4.5236,-4.4702,-4.4507,-4.3716,-4.3168,-4.3088,-4.2877,-4.2845,-4.278,-4.2651,-4.2245,-4.1742,-4.1661,-4.1079,-4.0529,-4.0402,-4.0356,-4.0261,-4.0181,-4.0229,-4.0402,-4.0256,-4.0383,-4.0289,-4.0291,-4.0303,-3.9762,-3.9343,-3.9031,-3.8905,-3.922,-3.9392,-3.9988,-4.087,-4.1504,-4.1908,-4.1931,-4.1181,-4.0353,-4.0034,-4.0114,-3.9971,-3.9136,-3.7835,-3.6486,-3.5369,-3.4406,-3.363,-3.334,-3.3696,-3.3842,-3.3896,-3.3819,-3.3896,-3.4545,-3.5314,-3.6178,-3.7063,-3.7445,-3.7892,-3.7565,-3.7501,-3.7535,-3.7386,-3.7105,-3.6978,-3.6978,-3.6978,-3.6975,-3.6666,-3.6342,-3.6216,-3.6075,-3.5752,-3.5527,-3.5808,-3.5906,-5.6697,-5.6697,-5.6697,-5.6697,-5.6697,-5.6697,-5.6697,-5.6697,-5.6697,-5.6697,-5.6697,-5.6697,-5.6697,-5.6697,-5.6432,-5.5769,-5.461,-5.4162,-5.3632,-5.2492,-5.2409,-5.2359,-5.2011,-5.1363,-5.0369,-4.9508,-4.9144,-4.873,-4.8216,-4.8067,-4.7934,-4.7769,-4.7653,-4.7669,-4.7471,-4.7322,-4.752,-4.7323,-4.6421,-4.5832,-4.5571,-4.4773,-4.4188,-4.4156,-4.3735,-4.3476,-4.333,-4.2894,-4.2538,-4.2279,-4.1889,-4.1294,-4.0655,-4.031,-4.0265,-4.0251,-4.0217,-4.0232,-4.0351,-4.0536,-4.0469,-4.0478,-4.0375,-3.9968,-3.9613,-3.9249,-3.8962,-3.8818,-3.8883,-3.9516,-4.0562,-4.1082,-4.1492,-4.1636,-4.1048,-4.0243,-3.9771,-4.0307,-4.0577,-4.0166,-3.9281,-3.8136,-3.66,-3.5717,-3.4855,-3.4116,-3.4239,-3.4685,-3.4854,-3.4922,-3.4965,-3.4956,-3.5532,-3.6359,-3.7222,-3.7959,-3.8294,-3.8453,-3.8136,-3.7884,-3.7957,-3.7763,-3.747,-3.7203,-3.6978,-3.6993,-3.7035,-3.695,-3.6669,-3.668,-3.6652,-3.6441,-3.6286,-3.6413,-3.637,-5.6697,-5.6697,-5.6697,-5.6697,-5.6697,-5.6697,-5.6697,-5.6697,-5.6697,-5.6697,-5.6697,-5.6697,-5.6697,-5.6697,-5.663,-5.5901,-5.4593,-5.3765,-5.3119,-5.2492,-5.2409,-5.2409,-5.2376,-5.1995,-5.1181,-5.0253,-5.0154,-4.9558,-4.8796,-4.8465,-4.8349,-4.8017,-4.8001,-4.7951,-4.8001,-4.8001,-4.7951,-4.7737,-4.6963,-4.6372,-4.6225,-4.5374,-4.4804,-4.4771,-4.4399,-4.4107,-4.3686,-4.3347,-4.2911,-4.2508,-4.2074,-4.1642,-4.1195,-4.0864,-4.0658,-4.0626,-4.0674,-4.0801,-4.1006,-4.1269,-4.141,-4.1114,-4.0864,-4.053,-4.0175,-3.9716,-3.9465,-3.9379,-3.9545,-4.002,-4.1118,-4.1071,-4.1211,-4.1233,-4.0309,-3.9367,-3.9109,-3.9674,-4.0125,-3.9608,-3.8694,-3.7587,-3.6531,-3.5866,-3.5284,-3.4553,-3.486,-3.5305,-3.5654,-3.5764,-3.6083,-3.6257,-3.6751,-3.7425,-3.8286,-3.8852,-3.9104,-3.9096,-3.8854,-3.8627,-3.8577,-3.8241,-3.7903,-3.7625,-3.74,-3.7147,-3.7147,-3.7077,-3.6993,-3.688,-3.6838,-3.6936,-3.6936,-3.6835,-3.6778,-5.6697,-5.6697,-5.6697,-5.6697,-5.6697,-5.6697,-5.6697,-5.6697,-5.6697,-5.6697,-5.6697,-5.6697,-5.6697,-5.6697,-5.6697,-5.5852,-5.451,-5.3334,-5.2688,-5.2423,-5.2409,-5.2409,-5.2376,-5.226,-5.2045,-5.1514,-5.1199,-5.0386,-4.9375,-4.9061,-4.8614,-4.8133,-4.8001,-4.8001,-4.8001,-4.8001,-4.8001,-4.7885,-4.7161,-4.6684,-4.6552,-4.5748,-4.5339,-4.5289,-4.5014,-4.4723,-4.4302,-4.3945,-4.3477,-4.2607,-4.2302,-4.2076,-4.1802,-4.1574,-4.1309,-4.1142,-4.1086,-4.1221,-4.1532,-4.1997,-4.2236,-4.2029,-4.1592,-4.1162,-4.0727,-4.0293,-4.0002,-3.9958,-4.0032,-4.043,-4.1198,-4.0909,-4.0864,-4.0793,-3.9708,-3.8704,-3.8243,-3.8388,-3.8431,-3.8303,-3.7658,-3.6741,-3.6468,-3.6043,-3.5528,-3.5234,-3.5645,-3.6054,-3.6489,-3.6736,-3.7114,-3.7331,-3.7723,-3.8275,-3.9107,-3.9749,-3.9974,-3.975,-3.952,-3.9415,-3.9267,-3.924,-3.8917,-3.8201,-3.7892,-3.7625,-3.7316,-3.7133,-3.7063,-3.7021,-3.7021,-3.7063,-3.7091,-3.7119,-3.7217,-5.6697,-5.6697,-5.6697,-5.6697,-5.6697,-5.6697,-5.6697,-5.6697,-5.6697,-5.6697,-5.6697,-5.6697,-5.6697,-5.6697,-5.6697,-5.5852,-5.456,-5.3533,-5.287,-5.2456,-5.2409,-5.2409,-5.2409,-5.2409,-5.231,-5.2059,-5.168,-5.0618,-4.9558,-4.9077,-4.8895,-4.8233,-4.8067,-4.8084,-4.8017,-4.8001,-4.8001,-4.7902,-4.744,-4.7191,-4.6976,-4.6557,-4.6223,-4.6175,-4.5737,-4.5415,-4.5256,-4.4819,-4.4155,-4.32,-4.2726,-4.1927,-4.1158,-4.078,-4.0677,-4.0597,-4.06,-4.0839,-4.1258,-4.1915,-4.1964,-4.1687,-4.1451,-4.1031,-4.0636,-4.0217,-4.0086,-3.999,-4.0046,-4.0288,-4.06,-4.0484,-4.0114,-3.974,-3.9092,-3.809,-3.7375,-3.7002,-3.7027,-3.7148,-3.6582,-3.6381,-3.6522,-3.6743,-3.6761,-3.6895,-3.7426,-3.7941,-3.8463,-3.8405,-3.8333,-3.8463,-3.858,-3.9175,-3.9857,-4.0427,-4.0758,-4.0433,-4.0215,-4.0249,-4.0181,-4.0365,-4.0041,-3.9212,-3.8496,-3.806,-3.7723,-3.7428,-3.733,-3.7428,-3.7316,-3.7217,-3.7498,-3.7779,-3.8044,-5.6697,-5.6697,-5.6697,-5.6697,-5.6697,-5.6697,-5.6697,-5.6697,-5.6697,-5.6697,-5.6697,-5.6697,-5.6697,-5.6697,-5.6697,-5.5868,-5.4626,-5.3732,-5.3036,-5.2525,-5.2409,-5.2409,-5.2409,-5.2409,-5.2409,-5.2326,-5.1943,-5.1297,-5.0336,-5.027,-4.9558,-4.8796,-4.858,-4.8398,-4.8084,-4.8001,-4.7935,-4.782,-4.7521,-4.7217,-4.6996,-4.6563,-4.6369,-4.6205,-4.5997,-4.568,-4.5367,-4.5277,-4.4547,-4.3616,-4.3034,-4.2074,-4.1076,-4.0349,-4.0049,-3.9894,-3.9864,-4.0065,-4.0742,-4.1543,-4.2159,-4.1818,-4.1697,-4.1544,-4.1111,-4.0794,-4.0402,-4.0447,-4.0434,-4.0618,-4.0895,-4.0461,-4.0347,-4.0163,-3.916,-3.8069,-3.7399,-3.6592,-3.6491,-3.6602,-3.649,-3.672,-3.7302,-3.7603,-3.7974,-3.8489,-3.9117,-3.9668,-4.0205,-3.977,-3.9276,-3.916,-3.916,-3.9538,-4.0162,-4.0746,-4.1088,-4.0818,-4.0641,-4.0688,-4.0689,-4.066,-4.0533,-4.0055,-3.9381,-3.8735,-3.8426,-3.8269,-3.8086,-3.7932,-3.803,-3.8143,-3.8271,-3.8482,-3.8664,-5.6697,-5.6697,-5.6697,-5.6697,-5.6697,-5.6697,-5.6697,-5.6697,-5.6697,-5.6697,-5.6697,-5.6697,-5.6697,-5.6697,-5.6531,-5.5901,-5.4543,-5.3827,-5.3235,-5.2525,-5.2409,-5.2409,-5.2409,-5.2409,-5.2409,-5.2409,-5.2343,-5.2011,-5.1265,-5.1133,-5.0369,-4.9409,-4.9061,-4.873,-4.815,-4.7935,-4.7853,-4.7638,-4.7268,-4.6892,-4.6301,-4.5837,-4.5526,-4.5526,-4.5562,-4.5299,-4.5033,-4.5257,-4.4735,-4.3945,-4.3207,-4.2479,-4.1249,-4.03,-3.9688,-3.938,-3.9275,-3.9436,-4.0162,-4.1341,-4.2047,-4.1663,-4.2094,-4.1949,-4.1603,-4.11,-4.1001,-4.1067,-4.0999,-4.0783,-4.0688,-4.0576,-4.042,-4.0092,-3.9104,-3.8077,-3.7646,-3.7174,-3.6948,-3.6928,-3.6738,-3.7334,-3.826,-3.8648,-3.9095,-3.9862,-4.051,-4.0525,-4.0887,-4.0307,-3.9871,-3.9668,-3.9654,-3.9871,-4.0365,-4.096,-4.1076,-4.0778,-4.0726,-4.0687,-4.0718,-4.0688,-4.0547,-4.0407,-4.0252,-3.9648,-3.9394,-3.8972,-3.8635,-3.8536,-3.8804,-3.8972,-3.8988,-3.9086,-3.9226,-5.6697,-5.6697,-5.6697,-5.6697,-5.6697,-5.6697,-5.6697,-5.6697,-5.6697,-5.6697,-5.6697,-5.6697,-5.6697,-5.6697,-5.6697,-5.5852,-5.4841,-5.4311,-5.3566,-5.2575,-5.2409,-5.2409,-5.2409,-5.2409,-5.2409,-5.2409,-5.2409,-5.1995,-5.158,-5.1431,-5.0618,-4.9558,-4.9293,-4.8763,-4.8233,-4.8035,-4.7754,-4.7605,-4.6997,-4.6214,-4.5421,-4.4902,-4.4677,-4.4662,-4.4662,-4.4728,-4.4797,-4.5138,-4.4923,-4.3987,-4.3577,-4.2738,-4.152,-4.0533,-4.013,-3.9746,-3.9436,-3.9126,-3.9856,-4.1092,-4.1775,-4.1607,-4.1873,-4.1707,-4.1496,-4.1196,-4.0949,-4.0742,-4.0763,-4.063,-4.0436,-4.0188,-3.9712,-3.9328,-3.8846,-3.8202,-3.7793,-3.7943,-3.7721,-3.8229,-3.8392,-3.8925,-3.9692,-3.9935,-4.0288,-4.1105,-4.1744,-4.1671,-4.1453,-4.0844,-4.0249,-3.9973,-4.0075,-4.0307,-4.0412,-4.1036,-4.1107,-4.0823,-4.067,-4.063,-4.0647,-4.0645,-4.0645,-4.0533,-4.0435,-4.0308,-3.9901,-3.9493,-3.9113,-3.9113,-3.938,-3.9493,-3.9606,-3.9704,-3.9802,-5.6697,-5.6697,-5.6697,-5.6697,-5.6697,-5.6697,-5.6697,-5.6697,-5.6697,-5.6697,-5.6697,-5.6697,-5.6697,-5.6697,-5.6697,-5.5885,-5.4775,-5.4527,-5.3732,-5.2655,-5.2426,-5.2409,-5.2409,-5.2409,-5.2409,-5.2409,-5.2393,-5.2343,-5.1962,-5.1812,-5.1313,-5.0469,-5.022,-4.9756,-4.8647,-4.8431,-4.805,-4.7415,-4.6426,-4.5405,-4.4692,-4.4159,-4.381,-4.381,-4.381,-4.4004,-4.4335,-4.4737,-4.4756,-4.4072,-4.3853,-4.313,-4.1972,-4.1101,-4.0539,-4.007,-3.978,-3.9742,-4.018,-4.1257,-4.1603,-4.1882,-4.2151,-4.2438,-4.1888,-4.158,-4.1434,-4.1507,-4.1127,-4.0802,-4.0451,-4.028,-3.988,-3.9421,-3.8797,-3.8834,-3.8598,-3.8509,-3.8691,-3.939,-4.0023,-4.0313,-4.0568,-4.0713,-4.0916,-4.1468,-4.1918,-4.1903,-4.1686,-4.1279,-4.067,-4.0118,-4.0379,-4.0742,-4.076,-4.101,-4.1112,-4.088,-4.0403,-4.0434,-4.0534,-4.0561,-4.0547,-4.0421,-4.0238,-4.0154,-4.0154,-4.0126,-3.9873,-3.9873,-3.9915,-4.0027,-4.0126,-4.0238,-4.0336,-5.6697,-5.6697,-5.6697,-5.6697,-5.6697,-5.6697,-5.6697,-5.6697,-5.6697,-5.6697,-5.6697,-5.6697,-5.6697,-5.6697,-5.6614,-5.6017,-5.4821,-5.4572,-5.3781,-5.2986,-5.2473,-5.2409,-5.2409,-5.2409,-5.2409,-5.2409,-5.2409,-5.2359,-5.2376,-5.2277,-5.1945,-5.1348,-5.11,-5.0353,-4.9374,-4.8693,-4.8176,-4.6872,-4.566,-4.4715,-4.402,-4.3344,-4.305,-4.297,-4.301,-4.3155,-4.3536,-4.3989,-4.4105,-4.3897,-4.3773,-4.3166,-4.2303,-4.1686,-4.1233,-4.0858,-4.0706,-4.0731,-4.1047,-4.1592,-4.1971,-4.2194,-4.2485,-4.2617,-4.2193,-4.2092,-4.2078,-4.1974,-4.1668,-4.1262,-4.0829,-4.0332,-3.9804,-3.9406,-3.9042,-3.9329,-3.9436,-3.8961,-3.8999,-3.9712,-4.0299,-4.0971,-4.1221,-4.1366,-4.1613,-4.1947,-4.2092,-4.2092,-4.1874,-4.1584,-4.1323,-4.08,-4.0989,-4.1152,-4.0854,-4.0905,-4.1003,-4.091,-4.0432,-4.0336,-4.0534,-4.0463,-4.0364,-4.0224,-4.0069,-4.0013,-3.9999,-4.0364,-4.0688,-4.0477,-4.0336,-4.0505,-4.0631,-4.0702,-4.0702,-5.6697,-5.6697,-5.6697,-5.6697,-5.6697,-5.6697,-5.6697,-5.6697,-5.6697,-5.6697,-5.6697,-5.6697,-5.6697,-5.6697,-5.663,-5.6249,-5.5433,-5.4787,-5.4026,-5.3334,-5.2754,-5.2525,-5.2442,-5.2409,-5.2409,-5.2409,-5.2409,-5.2409,-5.2409,-5.2409,-5.1962,-5.1431,-5.1514,-5.0452,-4.9521,-4.8902,-4.7867,-4.6558,-4.527,-4.4304,-4.3523,-4.2788,-4.2284,-4.2242,-4.2242,-4.2325,-4.2555,-4.314,-4.3403,-4.322,-4.3299,-4.318,-4.2537,-4.2091,-4.1756,-4.1657,-4.1628,-4.1654,-4.1831,-4.1726,-4.169,-4.1882,-4.2115,-4.2433,-4.2133,-4.2092,-4.2092,-4.2063,-4.1787,-4.1308,-4.0684,-4.0031,-3.9552,-3.9131,-3.8841,-3.8812,-3.8913,-3.8797,-3.8966,-3.9828,-4.0539,-4.1163,-4.1642,-4.1744,-4.1758,-4.2049,-4.2092,-4.2092,-4.2092,-4.1889,-4.1932,-4.1758,-4.1802,-4.1589,-4.0876,-4.0797,-4.0691,-4.0713,-4.0476,-4.0464,-4.0618,-4.0477,-4.0378,-4.0154,-4.0041,-3.9943,-3.9957,-4.0393,-4.0688,-4.0702,-4.0702,-4.0702,-4.0702,-4.0702,-4.0702,-5.6697,-5.6697,-5.6697,-5.6697,-5.6697,-5.6697,-5.6697,-5.6697,-5.6697,-5.6697,-5.6697,-5.6697,-5.6697,-5.6697,-5.6647,-5.6299,-5.5615,-5.5334,-5.4456,-5.3699,-5.3119,-5.2788,-5.2589,-5.2426,-5.2409,-5.2409,-5.2409,-5.2409,-5.2409,-5.2409,-5.2326,-5.2045,-5.1893,-5.1415,-5.0512,-4.9235,-4.8007,-4.678,-4.5457,-4.4401,-4.3692,-4.2676,-4.2092,-4.2092,-4.2092,-4.2216,-4.2433,-4.2714,-4.2835,-4.285,-4.2905,-4.2758,-4.2555,-4.2242,-4.2133,-4.2092,-4.2092,-4.2092,-4.2092,-4.198,-4.1945,-4.1974,-4.2111,-4.2175,-4.2107,-4.2092,-4.2092,-4.199,-4.1758,-4.1236,-4.0916,-4.0046,-3.9291,-3.8841,-3.8638,-3.8594,-3.8652,-3.8768,-3.9276,-4.0292,-4.0757,-4.1221,-4.1657,-4.2049,-4.2049,-4.2092,-4.2092,-4.2107,-4.2165,-4.2237,-4.2295,-4.2397,-4.244,-4.2026,-4.1311,-4.083,-4.0406,-4.0374,-4.0435,-4.059,-4.0659,-4.0659,-4.0533,-4.028,-4.0097,-4.0112,-4.0238,-4.0519,-4.0674,-4.0716,-4.0716,-4.0702,-4.0702,-4.0702,-4.0702,-5.6697,-5.6697,-5.6697,-5.6697,-5.6697,-5.6697,-5.6697,-5.6697,-5.6697,-5.6697,-5.6697,-5.6697,-5.6697,-5.6697,-5.6663,-5.6498,-5.6001,-5.5615,-5.4953,-5.4241,-5.3665,-5.3185,-5.2771,-5.2542,-5.2409,-5.2409,-5.2409,-5.2409,-5.2409,-5.2409,-5.2376,-5.2324,-5.2288,-5.1825,-5.1006,-4.9655,-4.8286,-4.7129,-4.569,-4.4474,-4.3764,-4.2743,-4.2092,-4.215,-4.2281,-4.2468,-4.2721,-4.2975,-4.3057,-4.2925,-4.2808,-4.2609,-4.2398,-4.216,-4.2092,-4.2092,-4.2092,-4.2092,-4.2092,-4.2092,-4.2092,-4.2061,-4.209,-4.2092,-4.2092,-4.2092,-4.2092,-4.2063,-4.1671,-4.1323,-4.1192,-4.0408,-3.9828,-3.9523,-3.9276,-3.9218,-3.9349,-3.9494,-4.0089,-4.08,-4.1076,-4.1265,-4.1744,-4.2136,-4.2194,-4.2165,-4.2092,-4.2252,-4.2528,-4.26,-4.2687,-4.2818,-4.2934,-4.2374,-4.1718,-4.109,-4.0455,-4.0194,-4.0351,-4.0618,-4.0702,-4.0758,-4.0575,-4.0168,-4.0097,-4.0266,-4.0631,-4.1053,-4.0955,-4.0758,-4.08,-4.0842,-4.0702,-4.0702,-4.0702,-5.6697,-5.6697,-5.6697,-5.6697,-5.6697,-5.6697,-5.6697,-5.6697,-5.6697,-5.6697,-5.6697,-5.6697,-5.6697,-5.6697,-5.6697,-5.6597,-5.6432,-5.5968,-5.5466,-5.5069,-5.4241,-5.3632,-5.3152,-5.2821,-5.2558,-5.2426,-5.2409,-5.2409,-5.2409,-5.2409,-5.2409,-5.2302,-5.2109,-5.1737,-5.114,-4.9317,-4.7874,-4.6741,-4.5233,-4.4352,-4.3764,-4.2838,-4.2322,-4.2339,-4.2615,-4.2845,-4.2945,-4.3439,-4.3437,-4.3044,-4.2929,-4.2696,-4.2206,-4.225,-4.2194,-4.2107,-4.215,-4.215,-4.2136,-4.2121,-4.215,-4.2107,-4.2092,-4.2092,-4.2092,-4.2092,-4.2092,-4.2078,-4.2049,-4.1773,-4.1424,-4.1091,-4.0742,-4.051,-4.0292,-4.0118,-4.0278,-4.0118,-4.067,-4.112,-4.1178,-4.1308,-4.1802,-4.2194,-4.2281,-4.2266,-4.215,-4.2339,-4.2745,-4.2876,-4.2948,-4.3196,-4.3327,-4.2709,-4.2008,-4.1165,-4.0571,-4.028,-4.0337,-4.0688,-4.0955,-4.1081,-4.0758,-4.0182,-4.0364,-4.0786,-4.1221,-4.1657,-4.1531,-4.139,-4.1081,-4.1011,-4.0842,-4.0884,-4.1109,-5.6697,-5.6697,-5.6697,-5.6697,-5.6697,-5.6697,-5.6697,-5.6697,-5.6697,-5.6697,-5.6697,-5.6697,-5.6697,-5.6697,-5.6697,-5.6697,-5.6614,-5.6547,-5.6216,-5.5532,-5.492,-5.4208,-5.3612,-5.3096,-5.2752,-5.2489,-5.2409,-5.2373,-5.2409,-5.2373,-5.2373,-5.2302,-5.1745,-5.1208,-5.0607,-4.9453,-4.8446,-4.743,-4.6077,-4.4999,-4.4568,-4.3437,-4.2658,-4.2658,-4.2905,-4.305,-4.3123,-4.3761,-4.379,-4.3268,-4.3166,-4.2847,-4.244,-4.244,-4.2513,-4.2382,-4.2368,-4.2687,-4.2687,-4.2673,-4.2484,-4.231,-4.2208,-4.2237,-4.2121,-4.2092,-4.2092,-4.2252,-4.2542,-4.2455,-4.2411,-4.2368,-4.2165,-4.2078,-4.186,-4.1541,-4.1424,-4.1004,-4.1047,-4.1395,-4.157,-4.1889,-4.2324,-4.2803,-4.2934,-4.2803,-4.2716,-4.2731,-4.3036,-4.305,-4.3108,-4.3472,-4.3589,-4.297,-4.2324,-4.1582,-4.0787,-4.0337,-4.0575,-4.1053,-4.1264,-4.1235,-4.1109,-4.0617,-4.0969,-4.1362,-4.1882,-4.2275,-4.2247,-4.2093,-4.198,-4.1797,-4.1713,-4.1854,-4.2064,-5.6697,-5.6697,-5.6697,-5.6697,-5.6697,-5.6697,-5.6697,-5.6697,-5.6697,-5.6697,-5.6697,-5.6697,-5.6697,-5.6697,-5.6697,-5.6697,-5.6697,-5.6663,-5.6597,-5.593,-5.5594,-5.467,-5.3857,-5.319,-5.2499,-5.2178,-5.2086,-5.2086,-5.2142,-5.2266,-5.2158,-5.1888,-5.1285,-5.0576,-4.9868,-4.9023,-4.8269,-4.7259,-4.6071,-4.5142,-4.4632,-4.3862,-4.2977,-4.3036,-4.3181,-4.3369,-4.3602,-4.3935,-4.4327,-4.3834,-4.3529,-4.3326,-4.3065,-4.2992,-4.3123,-4.3007,-4.305,-4.3326,-4.334,-4.334,-4.3166,-4.2934,-4.276,-4.2745,-4.276,-4.289,-4.2861,-4.2963,-4.3137,-4.3239,-4.3326,-4.334,-4.3355,-4.3239,-4.3123,-4.2789,-4.2615,-4.2223,-4.186,-4.215,-4.2107,-4.2469,-4.2876,-4.3355,-4.3732,-4.3515,-4.3311,-4.3369,-4.3413,-4.3427,-4.3588,-4.4052,-4.4123,-4.363,-4.2938,-4.2137,-4.134,-4.0505,-4.0617,-4.0912,-4.1011,-4.0884,-4.0983,-4.1278,-4.184,-4.2331,-4.2683,-4.2921,-4.3076,-4.3188,-4.3231,-4.3006,-4.2711,-4.2669,-4.2767,-5.6697,-5.6697,-5.6697,-5.6697,-5.6697,-5.6697,-5.6697,-5.6697,-5.6697,-5.6697,-5.6697,-5.6697,-5.6697,-5.6697,-5.6697,-5.6697,-5.6697,-5.6697,-5.6647,-5.6388,-5.5859,-5.4826,-5.382,-5.2976,-5.208,-5.1485,-5.1301,-5.1561,-5.1762,-5.2122,-5.203,-5.1445,-5.0854,-5.001,-4.9157,-4.8252,-4.7676,-4.6882,-4.6079,-4.5376,-4.4967,-4.4008,-4.35,-4.3515,-4.3732,-4.395,-4.4313,-4.4893,-4.5097,-4.4922,-4.4719,-4.44,-4.4153,-4.4008,-4.4008,-4.3993,-4.3979,-4.3892,-4.3993,-4.3993,-4.4124,-4.4008,-4.4052,-4.4037,-4.3819,-4.3645,-4.3573,-4.366,-4.3834,-4.3921,-4.4008,-4.4095,-4.4182,-4.4139,-4.4139,-4.3993,-4.3935,-4.3616,-4.3195,-4.3021,-4.2745,-4.2934,-4.3398,-4.3892,-4.4472,-4.4371,-4.424,-4.4313,-4.4298,-4.4066,-4.4313,-4.4902,-4.484,-4.4357,-4.3592,-4.2532,-4.1565,-4.0645,-4.0112,-4.0224,-4.035,-4.0716,-4.1025,-4.1601,-4.2697,-4.3287,-4.3497,-4.3793,-4.4102,-4.4172,-4.3947,-4.3764,-4.3329,-4.3118,-4.309,-5.6697,-5.6697,-5.6697,-5.6697,-5.6697,-5.6697,-5.6697,-5.6697,-5.6697,-5.6697,-5.6697,-5.6697,-5.6697,-5.6697,-5.6697,-5.6697,-5.6697,-5.6697,-5.6697,-5.6432,-5.6033,-5.4829,-5.3743,-5.2743,-5.1635,-5.079,-5.0554,-5.093,-5.1397,-5.1835,-5.1835,-5.121,-5.0438,-4.9559,-4.8599,-4.7536,-4.7104,-4.6638,-4.5902,-4.5621,-4.5329,-4.4618,-4.4298,-4.4298,-4.4356,-4.4531,-4.4806,-4.5387,-4.5488,-4.5082,-4.4922,-4.4603,-4.4066,-4.4371,-4.4618,-4.4574,-4.4342,-4.4124,-4.4516,-4.4632,-4.4777,-4.5097,-4.5213,-4.4705,-4.4356,-4.4124,-4.4153,-4.4313,-4.4501,-4.4618,-4.4734,-4.4835,-4.4951,-4.4995,-4.4995,-4.4966,-4.4835,-4.4472,-4.4081,-4.3776,-4.35,-4.3689,-4.4139,-4.4705,-4.5213,-4.5169,-4.514,-4.5169,-4.5039,-4.4748,-4.4702,-4.5273,-4.5164,-4.461,-4.3641,-4.261,-4.1718,-4.0871,-4.0224,-3.9859,-4.0308,-4.0716,-4.1123,-4.1938,-4.3062,-4.375,-4.4186,-4.4397,-4.4411,-4.4425,-4.4242,-4.413,-4.3975,-4.3676,-4.3518,-5.6697,-5.6697,-5.6697,-5.6697,-5.6697,-5.6697,-5.6697,-5.6697,-5.6697,-5.6697,-5.6697,-5.6697,-5.6697,-5.6697,-5.6697,-5.6697,-5.6697,-5.6697,-5.6697,-5.6564,-5.6172,-5.4684,-5.3479,-5.2356,-5.1053,-5.0151,-4.9797,-5.0221,-5.0761,-5.145,-5.1614,-5.1,-5.0128,-4.9293,-4.8381,-4.7351,-4.6668,-4.6403,-4.6121,-4.597,-4.5634,-4.5256,-4.4995,-4.4922,-4.4922,-4.4908,-4.4995,-4.5576,-4.559,-4.5343,-4.5285,-4.5155,-4.4792,-4.5126,-4.5271,-4.5227,-4.5082,-4.5024,-4.5227,-4.5285,-4.5532,-4.575,-4.588,-4.5503,-4.5155,-4.4922,-4.4908,-4.4966,-4.5155,-4.5314,-4.5445,-4.559,-4.5706,-4.5837,-4.5837,-4.5837,-4.5532,-4.5184,-4.4864,-4.456,-4.4531,-4.4676,-4.5068,-4.5605,-4.5851,-4.5648,-4.5457,-4.5353,-4.5224,-4.5009,-4.4916,-4.5164,-4.5027,-4.469,-4.3692,-4.2747,-4.19,-4.0913,-3.9858,-3.9704,-4.0238,-4.0884,-4.1418,-4.2359,-4.3441,-4.3929,-4.4303,-4.4364,-4.4425,-4.4317,-4.427,-4.4219,-4.4102,-4.4013,-4.3925,-5.6514,-5.6597,-5.6663,-5.6697,-5.6697,-5.6697,-5.6658,-5.6658,-5.6619,-5.6658,-5.6697,-5.6697,-5.6697,-5.6697,-5.6697,-5.6697,-5.6697,-5.6697,-5.6697,-5.6641,-5.5957,-5.46,-5.2973,-5.1834,-5.0377,-4.9326,-4.8975,-4.9486,-5.0081,-5.0794,-5.1242,-5.0781,-4.9947,-4.9091,-4.8187,-4.7106,-4.6447,-4.6269,-4.6046,-4.5866,-4.5735,-4.5358,-4.4966,-4.5024,-4.5039,-4.5039,-4.5169,-4.5488,-4.588,-4.5866,-4.5851,-4.5793,-4.5764,-4.575,-4.5779,-4.5779,-4.5634,-4.5648,-4.5677,-4.5706,-4.575,-4.5851,-4.588,-4.5824,-4.5576,-4.5488,-4.5445,-4.5445,-4.5576,-4.5619,-4.5706,-4.5735,-4.5837,-4.588,-4.588,-4.588,-4.5735,-4.5459,-4.5227,-4.501,-4.5068,-4.5198,-4.5285,-4.5735,-4.5835,-4.5761,-4.5656,-4.5492,-4.5302,-4.512,-4.507,-4.5052,-4.4932,-4.4592,-4.374,-4.284,-4.2052,-4.1025,-3.9929,-3.969,-4.0266,-4.1011,-4.1783,-4.282,-4.3887,-4.399,-4.4209,-4.4176,-4.4035,-4.3988,-4.3988,-4.4129,-4.4129,-4.3879,-4.377,-5.5371,-5.5935,-5.6465,-5.6697,-5.6697,-5.6541,-5.6385,-5.6228,-5.6228,-5.6385,-5.6641,-5.668,-5.6697,-5.6697,-5.6697,-5.6697,-5.6697,-5.6658,-5.6697,-5.6369,-5.5854,-5.43,-5.2381,-5.1371,-4.9781,-4.8402,-4.8118,-4.8867,-4.9646,-5.0354,-5.0679,-5.0152,-4.9454,-4.8805,-4.7961,-4.6858,-4.6314,-4.6121,-4.6001,-4.5925,-4.5808,-4.5808,-4.5648,-4.5619,-4.5605,-4.5561,-4.5648,-4.5735,-4.588,-4.588,-4.588,-4.5866,-4.5866,-4.588,-4.588,-4.588,-4.588,-4.588,-4.588,-4.588,-4.588,-4.588,-4.588,-4.588,-4.5866,-4.588,-4.588,-4.588,-4.588,-4.588,-4.588,-4.588,-4.588,-4.588,-4.588,-4.588,-4.588,-4.5706,-4.5562,-4.5518,-4.5547,-4.5576,-4.5619,-4.5647,-4.5732,-4.5685,-4.5595,-4.5429,-4.5233,-4.5015,-4.4895,-4.4865,-4.4894,-4.4482,-4.3673,-4.3048,-4.2317,-4.1432,-4.0378,-4.0266,-4.0393,-4.1432,-4.2514,-4.3406,-4.4214,-4.4068,-4.3818,-4.3594,-4.3499,-4.3355,-4.3245,-4.3184,-4.3039,-4.2798,-4.2881,-5.4721,-5.5185,-5.5901,-5.6398,-5.6625,-5.6402,-5.6053,-5.5781,-5.579,-5.5894,-5.6139,-5.6391,-5.6603,-5.668,-5.6697,-5.6697,-5.6697,-5.658,-5.6502,-5.6188,-5.5385,-5.3962,-5.2461,-5.1017,-4.9578,-4.8213,-4.8031,-4.8495,-4.9244,-4.9821,-4.9979,-4.9582,-4.9107,-4.846,-4.7591,-4.6726,-4.6135,-4.6046,-4.597,-4.5925,-4.588,-4.588,-4.588,-4.588,-4.588,-4.588,-4.588,-4.588,-4.588,-4.588,-4.588,-4.588,-4.588,-4.588,-4.588,-4.588,-4.588,-4.588,-4.588,-4.588,-4.588,-4.588,-4.588,-4.588,-4.588,-4.588,-4.588,-4.588,-4.588,-4.588,-4.588,-4.588,-4.588,-4.588,-4.588,-4.588,-4.588,-4.5808,-4.5721,-4.5721,-4.5735,-4.575,-4.5779,-4.5779,-4.579,-4.5549,-4.5458,-4.523,-4.5032,-4.4894,-4.4769,-4.4723,-4.4751,-4.4376,-4.3642,-4.3146,-4.2683,-4.1769,-4.0884,-4.087,-4.1053,-4.2191,-4.3287,-4.3896,-4.4068,-4.3662,-4.3423,-4.3039,-4.2541,-4.2186,-4.2137,-4.2101,-4.1954,-4.1756,-4.1581,-5.4225,-5.4403,-5.5175,-5.5891,-5.6415,-5.6156,-5.5701,-5.5288,-5.5254,-5.5213,-5.5247,-5.5821,-5.6313,-5.6641,-5.6697,-5.6697,-5.6619,-5.6463,-5.6267,-5.5797,-5.5033,-5.3582,-5.2254,-5.0992,-4.959,-4.8529,-4.8041,-4.8225,-4.8646,-4.9138,-4.93,-4.9056,-4.863,-4.8015,-4.7219,-4.655,-4.609,-4.5956,-4.5925,-4.588,-4.588,-4.588,-4.588,-4.588,-4.588,-4.588,-4.588,-4.588,-4.588,-4.588,-4.588,-4.588,-4.588,-4.588,-4.588,-4.588,-4.588,-4.588,-4.588,-4.588,-4.588,-4.588,-4.588,-4.588,-4.588,-4.588,-4.588,-4.588,-4.588,-4.588,-4.588,-4.588,-4.588,-4.588,-4.588,-4.588,-4.588,-4.588,-4.588,-4.588,-4.588,-4.588,-4.588,-4.588,-4.573,-4.5504,-4.5261,-4.5,-4.4815,-4.4676,-4.4597,-4.4551,-4.4612,-4.4152,-4.3694,-4.3287,-4.295,-4.2402,-4.1657,-4.1545,-4.1713,-4.2654,-4.3424,-4.4009,-4.4021,-4.3423,-4.2771,-4.2284,-4.173,-4.1132,-4.1045,-4.1058,-4.0958,-4.0706,-4.0236,-5.292,-5.3234,-5.4547,-5.5187,-5.5322,-5.5433,-5.5271,-5.4826,-5.4633,-5.4465,-5.4449,-5.481,-5.5564,-5.668,-5.6697,-5.6658,-5.6541,-5.6307,-5.5845,-5.5353,-5.4559,-5.3208,-5.1964,-5.0979,-4.9806,-4.8802,-4.8007,-4.7716,-4.8484,-4.8642,-4.8499,-4.8424,-4.8125,-4.7626,-4.7033,-4.6447,-4.6043,-4.5924,-4.588,-4.588,-4.588,-4.588,-4.588,-4.588,-4.588,-4.588,-4.588,-4.588,-4.588,-4.588,-4.588,-4.588,-4.588,-4.588,-4.588,-4.588,-4.588,-4.588,-4.588,-4.588,-4.588,-4.588,-4.588,-4.588,-4.588,-4.588,-4.588,-4.588,-4.588,-4.588,-4.588,-4.588,-4.588,-4.588,-4.588,-4.588,-4.588,-4.588,-4.588,-4.588,-4.588,-4.588,-4.588,-4.5835,-4.564,-4.5444,-4.5216,-4.494,-4.4597,-4.4504,-4.4425,-4.4425,-4.4472,-4.4457,-4.4214,-4.361,-4.3188,-4.2753,-4.2388,-4.2149,-4.2289,-4.2921,-4.362,-4.4149,-4.3784,-4.3088,-4.2444,-4.1594,-4.0807,-4.0211,-4.007,-3.9981,-3.9917,-3.975,-3.9376]},{"header":{"parameterUnit":"m.s-1","parameterCategory":1,"la1":31.0,"la2":29.5877,"lo1":-88.7671,"lo2":-86.6584,"dy":0.0162,"dx":0.0185,"nx":115,"ny":88,"refTime":"2026-04-09T12:00:00:Z","depth":0,"parameterNumber":3,"parameterNumberName":"V-component_of_WINDS"},"data":[0.0,0.0,0.0,0.0,0.0,0.0,0.0,0.0,0.0,0.0,0.0,0.0,0.0,0.0,0.0,0.0,0.0,0.0,0.0,0.0,0.0,0.0,0.0,0.0,0.0,0.0,0.0,0.0,0.0,0.0,0.0,0.0,0.0,0.0,0.0,0.0,0.0,0.0,0.0,0.0,0.0,0.0,0.0,0.0,0.0,0.0,0.0,0.0,0.0,0.0,0.0,0.0,0.0,0.0,0.0,0.0,0.0,0.0,0.0,0.0,0.0,0.0,0.0,0.0,0.0,0.0,0.0,0.0,0.0,0.0,0.0,0.0,0.0,0.0,0.0,0.0,0.0,0.0,0.0,0.0,0.0,0.0,0.0,0.0,0.0,0.0,0.0,0.0,0.0,0.0,0.0,0.0,0.0,0.0,0.0,0.0,0.0,0.0,0.0,0.0,0.0,0.0,0.0,0.0,0.0,0.0,0.0,0.0,0.0,0.0,0.0,0.0,0.0,0.0,0.0,0.0,0.0,0.0,0.0,0.0,0.0,0.0,0.0,0.0,0.0,0.0,0.0,0.0,0.0,0.0,0.0,0.0,0.0,0.0,0.0,0.0,0.0,0.0,0.0,0.0,0.0,0.0,0.0,0.0,0.0,0.0,0.0,0.0,0.0,0.0,0.0,0.0,0.0,0.0,0.0,0.0,0.0,0.0,0.0,0.0,0.0,0.0,0.0,0.0,0.0,0.0,0.0,0.0,0.0,0.0,0.0,0.0,0.0,0.0,0.0,0.0,0.0,0.0,0.0,0.0,0.0,0.0,0.0,0.0,0.0,0.0,0.0,0.0,0.0,0.0,0.0,0.0,0.0,0.0,0.0,0.0,0.0,0.0,0.0,0.0,0.0,0.0,0.0,0.0,0.0,0.0,0.0,0.0,0.0,0.0,0.0,0.0,0.0,0.0,0.0,0.0,0.0,0.0,0.0,0.0,0.0,0.0,0.0,0.0,0.0,0.0,0.0,0.0,0.0,0.0,0.0,0.0,0.0,0.0,0.0,0.0,0.0,0.0,0.0,0.0,0.0,0.0,0.0,0.0,0.0,0.0,0.0,0.0,0.0,0.0,0.0,0.0,0.0,0.0,0.0,0.0,0.0,0.0,0.0,0.0,0.0,0.0,0.0,0.0,0.0,0.0,0.0,0.0,0.0,0.0,0.0,0.0,0.0,0.0,0.0,0.0,0.0,0.0,0.0,0.0,0.0,0.0,0.0,0.0,0.0,0.0,0.0,0.0,0.0,0.0,0.0,0.0,0.0,0.0,0.0,0.0,0.0,0.0,0.0,0.0,0.0,0.0,0.0,0.0,0.0,0.0,0.0,0.0,0.0,0.0,0.0,0.0,0.0,0.0,0.0,0.0,0.0,0.0,0.0,0.0,0.0,0.0,0.0,0.0,0.0,0.0,0.0,0.0,0.0,0.0,0.0,0.0,0.0,0.0,0.0,0.0,0.0,0.0,0.0,0.0,0.0,0.0,0.0,0.0,0.0,0.0,0.0,0.0,0.0,0.0,0.0,0.0,0.0,0.0,0.0,0.0,0.0,0.0,0.0,0.0,0.0,0.0,0.0,0.0,0.0,0.0,0.0,0.0,0.0,0.0,0.0,0.0,0.0,0.0,0.0,0.0,0.0,0.0,0.0,0.0,0.0,0.0,0.0,0.0,0.0,0.0,0.0,0.0,0.0,0.0,0.0,0.0,0.0,0.0,0.0,0.0,0.0,0.0,0.0,0.0,0.0,0.0,0.0,0.0,0.0,0.0,0.0,0.0,0.0,0.0,0.0,0.0,0.0,0.0,0.0,0.0,0.0,0.0,0.0,0.0,0.0,0.0,0.0,0.0,0.0,0.0,0.0,0.0,0.0,0.0,0.0,0.0,0.0,0.0,0.0,0.0,0.0,0.0,0.0,0.0,0.0,0.0,0.0,0.0,0.0,0.0,0.0,0.0,0.0,0.0,0.0,0.0,0.0,0.0,0.0,0.0,0.0,0.0,0.0,0.0,0.0,0.0,0.0,0.0,0.0,0.0,0.0,0.0,0.0,0.0,0.0,0.0,0.0,0.0,0.0,0.0,0.0,0.0,0.0,0.0,0.0,0.0,0.0,0.0,0.0,0.0,0.0,0.0,0.0,0.0,0.0,0.0,0.0,0.0,0.0,0.0,0.0,0.0,0.0,0.0,0.0,0.0,0.0,0.0,0.0,0.0,0.0,0.0,0.0,0.0,0.0,0.0,0.0,0.0,0.0,0.0,0.0,0.0,0.0,0.0,0.0,0.0,0.0,0.0,0.0,0.0,0.0,0.0,0.0,0.0,0.0,0.0,0.0,0.0,0.0,0.0,0.0,0.0,0.0,0.0,0.0,0.0,0.0,0.0,0.0,0.0,0.0,0.0,0.0,0.0,0.0,0.0,0.0,0.0,0.0,0.0,0.0,0.0,0.0,0.0,0.0,0.0,0.0,0.0,0.0,0.0,0.0,0.0,0.0,0.0,0.0,0.0,0.0,0.0,0.0,0.0,0.0,0.0,0.0,0.0,0.0,0.0,0.0,0.0,0.0,0.0,0.0,0.0,0.0,0.0,0.0,0.0,0.0,0.0,0.0,0.0,0.0,0.0,0.0,0.0,0.0,0.0,0.0,0.0,0.0,0.0,0.0,0.0,0.0,0.0,0.0,0.0,0.0,0.0,0.0,0.0,0.0,0.0,0.0,0.0,0.0,0.0,0.0,0.0,0.0,0.0,0.0,0.0,0.0,0.0,0.0,0.0,0.0,0.0,0.0,0.0,0.0,0.0,0.0,0.0,0.0,0.0,0.0,0.0,0.0,0.0,0.0,0.0,0.0,0.0,0.0,0.0,0.0,0.0,0.0,0.0,0.0,0.0,0.0,0.0,0.0,0.0,0.0,0.0,0.0,0.0,0.0,0.0,0.0,0.0,0.0,0.0,0.0,0.0,0.0,0.0,0.0,0.0,0.0,0.0,0.0,0.0,0.0,0.0,0.0,0.0,0.0,0.0,0.0,0.0,0.0,0.0,0.0,0.0,0.0,0.0,0.0,0.0,0.0,0.0,0.0,0.0,0.0,0.0,0.0,0.0,0.0,0.0,0.0,0.0,0.0,0.0,0.0,0.0,0.0,0.0,0.0,0.0,0.0,0.0,0.0,0.0,0.0,0.0,0.0,0.0,0.0,0.0,0.0,0.0,0.0,0.0,0.0,0.0,0.0,0.0,0.0,0.0,0.0,0.0,0.0,0.0,0.0,0.0,0.0,0.0,0.0,0.0,0.0,0.0,0.0,0.0,0.0,0.0,0.0,0.0,0.0,0.0,0.0,0.0,0.0,0.0,0.0,0.0,0.0,0.0,0.0,0.0,0.0,0.0,0.0,0.0,0.0,0.0,0.0,0.0,0.0,0.0,0.0,0.0,0.0,0.0,0.0,0.0,0.0,0.0,0.0,0.0,0.0,0.0,0.0,0.0,0.0,0.0,0.0,0.0,0.0,0.0,0.0,0.0,0.0,0.0,0.0,0.0,0.0,0.0,0.0,0.0,0.0,0.0,0.0,0.0,0.0,0.0,0.0,0.0,0.0,0.0,0.0,0.0,0.0,0.0,0.0,0.0,0.0,0.0,0.0,0.0,0.0,0.0,0.0,0.0,0.0,0.0,0.0,0.0,0.0,0.0,0.0,0.0,0.0,0.0,0.0,0.0,0.0,0.0,0.0,0.0,0.0,0.0,0.0,0.0,0.0,0.0,0.0,0.0,0.0,0.0,0.0,0.0,0.0,0.0,0.0,0.0,0.0,0.0,0.0,0.0,0.0,0.0,0.0,0.0,0.0,0.0,0.0,0.0,0.0,0.0,0.0,0.0,0.0,0.0,0.0,0.0,0.0,0.0,0.0,0.0,0.0,0.0,0.0,0.0,0.0,0.0,0.0,0.0,0.0,0.0,0.0,0.0,0.0,0.0,0.0,0.0,0.0,0.0,0.0,0.0,0.0,0.0,0.0,0.0,0.0,0.0,0.0,0.0,0.0,0.0,0.0,0.0,0.0,0.0,0.0,0.0,0.0,0.0,0.0,0.0,0.0,0.0,0.0,0.0,0.0,0.0,0.0,0.0,0.0,0.0,0.0,0.0,0.0,0.0,0.0,0.0,0.0,0.0,0.0,0.0,0.0,0.0,0.0,0.0,0.0,0.0,0.0,0.0,0.0,0.0,0.0,0.0,0.0,0.0,0.0,0.0,0.0,0.0,0.7164,0.0,0.0,0.0,0.0,0.0,0.0,0.0,0.0,0.0,0.0,0.0,0.0,0.0,0.0,0.0,0.0,0.0,0.0,0.0,0.0,0.0,0.0,0.0,0.0,0.0,0.0,0.0,0.0,0.0,0.0,0.0,0.0,0.0,0.0,0.0,0.0,0.0,0.0,0.0,0.0,0.0,0.0,0.0,0.0,0.0,0.0,0.0,0.0,0.0,0.0,0.0,0.0,0.0,0.0,0.0,0.0,0.0,0.0,0.0,0.0,0.0,0.0,0.0,0.0,0.0,0.0,0.0,0.0,0.0,0.0,0.0,0.0,0.0,0.0,0.0,0.0,0.0,0.0,0.0,0.0,0.0,0.0,0.0,0.0,0.0,0.0,0.0,0.0,0.0,0.0,0.0,0.0,0.0,0.0,0.0,0.0,0.0,0.0,0.0,0.0,0.0,0.0,0.0,0.0,0.0,0.0,0.0,0.0,0.0,0.0,0.9046,0.8227,0.8249,0.7891,0.7109,0.0,0.0,0.0,0.0,0.0,0.0,0.0,0.0,0.0,0.0,0.0,0.0,0.0,0.0,0.0,0.0,0.0,0.0,0.0,0.0,0.0,0.0,0.0,0.0,0.0,0.0,0.0,0.0,0.0,0.0,0.0,0.0,0.0,0.0,0.0,0.0,0.0,0.0,0.0,0.0,0.0,0.0,0.0,0.0,0.0,0.0,0.0,0.0,0.0,0.0,0.0,0.0,0.0,0.0,0.0,0.0,0.0,0.0,0.0,0.0,0.0,0.0,0.0,0.0,0.0,0.0,0.0,0.0,0.0,0.0,0.0,0.0,0.0,0.0,0.0,0.0,0.0,0.0,0.0,0.0,0.0,0.0,0.0,0.0,0.0,0.0,0.0,0.0,0.0,0.0,0.0,0.0,0.0,0.0,0.0,0.0,0.0,0.0,0.0,0.0,0.0,0.0,0.0,0.0,0.0,0.0,0.0,0.0,0.0,0.0,0.0,0.0,0.8176,0.8049,0.7637,0.0,0.0,0.0,0.0,0.0,0.0,0.0,0.0,0.0,0.0,0.0,0.0,0.0,0.0,0.0,0.0,0.0,0.0,0.0,0.0,0.0,0.0,0.0,0.0,0.0,0.0,0.0,0.0,0.0,0.0,0.0,0.0,0.0,0.0,0.0,0.0,0.0,0.0,0.0,0.0,0.0,0.0,0.0,0.0,0.0,0.0,0.0,0.0,0.0,0.0,0.0,0.0,0.0,0.0,0.0,0.0,0.0,0.0,0.0,0.0,0.0,0.0,0.0,0.0,0.0,0.0,0.0,0.0,0.0,0.0,0.0,0.0,0.0,0.0,0.0,0.0,0.0,0.0,0.0,0.0,0.0,0.0,0.0,0.0,0.0,0.0,0.0,0.0,0.0,0.0,0.0,0.0,0.0,0.0,0.0,0.0,0.0,0.0,0.0,0.0,0.0,0.0,0.0,0.0,0.0,0.0,0.0,0.0,0.0,0.0,0.9177,0.8643,0.9085,0.0,0.936,0.0,0.0,0.0,0.0,0.0,0.0,0.0,0.0,0.0,0.0,0.0,0.0,0.0,0.0,0.0,0.0,0.0,0.0,0.0,0.0,0.0,0.0,0.0,0.0,0.0,0.0,0.0,0.0,0.0,0.0,0.0,0.0,0.0,0.0,0.0,0.0,0.0,0.0,0.0,0.0,0.0,0.0,0.0,0.0,0.0,0.0,0.0,0.0,0.0,0.0,0.0,0.0,0.0,0.0,0.0,0.0,0.0,0.0,0.0,0.0,0.0,0.0,0.0,0.0,0.0,0.0,0.0,0.0,0.0,0.0,0.0,0.0,0.0,0.0,0.0,0.0,0.0,0.0,0.0,0.0,0.0,0.0,0.0,0.0,0.0,0.0,0.0,0.0,0.0,0.0,0.0,0.0,0.0,0.0,0.0,0.0,0.0,0.0,0.0,0.0,0.0,0.0,0.0,0.0,0.0,0.0,0.0,0.0,0.0,0.0,0.8505,0.8633,0.8848,0.8987,0.0,0.0,0.0,0.0,0.0,0.0,0.0,0.0,0.0,0.0,0.0,0.0,0.0,0.0,0.0,0.0,0.0,0.0,0.0,0.0,0.0,0.0,0.0,0.0,0.0,0.0,0.0,0.0,0.0,0.0,0.0,0.0,0.0,0.0,0.0,0.0,0.0,0.0,0.0,0.0,0.0,0.0,0.0,0.0,0.0,0.0,0.0,0.0,0.0,0.0,0.0,0.0,0.0,0.0,0.0,0.0,0.0,0.0,0.0,0.0,0.0,0.0,0.0,0.0,0.0,0.0,0.0,0.0,0.0,0.0,0.0,0.0,0.0,0.0,0.0,0.0,0.0,0.0,0.0,0.0,0.0,0.0,0.0,0.0,0.0,0.0,0.0,0.0,0.0,0.0,0.0,0.0,0.0,0.0,0.0,0.0,0.0,0.0,0.0,0.0,0.0,0.0,0.0,0.0,0.0,0.0,0.0,0.0,0.0,0.0,0.7593,0.0,0.9009,0.8761,0.8701,0.8912,0.0,0.0,0.0,0.0,0.0,0.0,0.0,0.0,0.0,0.0,0.0,0.0,0.0,0.0,0.0,0.0,0.0,0.0,0.0,0.0,0.0,0.0,0.0,0.0,0.0,0.0,0.0,0.0,0.0,0.0,0.0,0.0,0.0,0.0,0.0,0.0,0.0,0.0,0.0,0.0,0.0,0.0,0.0,0.0,0.0,0.0,0.0,0.0,0.0,0.0,0.0,0.0,0.0,0.0,0.0,0.0,0.0,0.0,0.0,0.0,0.0,0.0,0.0,0.0,0.0,0.0,0.0,0.0,0.0,0.0,0.0,0.0,0.0,0.0,0.0,0.0,0.0,0.0,0.0,0.0,0.0,0.0,0.0,0.0,0.0,0.0,0.0,0.0,0.0,0.0,0.0,0.0,0.0,0.0,0.0,0.0,0.0,0.0,0.0,0.0,0.0,0.0,0.0,0.0,0.0,0.0,0.0,0.0,0.0,0.7985,0.9087,1.0092,0.9178,0.8863,0.0,0.0,0.0,0.0,0.0,0.0,0.0,0.0,0.0,0.0,0.0,0.0,0.0,0.0,0.0,0.0,0.0,0.0,0.0,0.0,0.0,0.0,0.0,0.0,0.0,0.0,0.0,0.0,0.0,0.0,0.0,0.0,0.0,0.0,0.0,0.0,0.0,0.0,0.0,0.0,0.0,0.0,0.0,0.0,0.0,0.0,0.0,0.0,0.0,0.0,0.0,0.0,0.0,0.0,0.0,0.0,0.0,0.0,0.0,0.0,0.0,0.0,0.0,0.0,0.0,0.0,0.0,0.0,0.0,0.0,0.0,0.0,0.0,0.0,0.0,0.0,0.0,0.0,0.0,0.0,0.0,0.0,0.0,0.0,0.0,0.0,0.0,0.0,0.0,0.0,0.0,0.0,0.0,0.0,0.0,0.0,0.0,0.0,0.0,0.0,0.0,0.0,0.0,0.0,0.0,0.0,0.0,0.0,0.0,0.6986,0.8024,0.88,0.9167,0.88,0.8526,0.0,0.0,0.0,0.0,0.0,0.0,0.0,0.0,0.0,0.0,0.0,0.0,0.0,0.0,0.0,0.0,0.0,0.0,0.0,0.0,0.0,0.0,0.0,0.0,0.0,0.0,0.0,0.0,0.0,0.0,0.0,0.0,0.0,0.0,0.0,0.0,0.0,0.0,0.0,0.0,0.0,0.0,0.0,0.0,0.0,0.0,0.0,0.0,0.0,0.0,0.0,0.0,0.0,0.0,0.0,0.0,0.0,0.0,0.0,0.0,0.0,0.0,0.0,0.0,0.0,0.0,0.0,0.0,0.0,0.0,0.0,0.0,0.0,0.0,0.0,0.0,0.0,0.0,0.0,0.0,0.0,0.0,0.0,0.0,0.0,0.0,0.0,0.0,0.0,0.0,0.0,0.0,0.0,0.0,0.0,0.0,0.0,0.0,0.0,0.0,0.0,0.0,0.0,0.0,0.0,0.0,0.0,0.0,0.0,0.7787,0.0,0.9152,0.0,0.897,0.8693,0.0,0.0,0.0,0.0,0.0,0.0,0.0,0.0,0.0,0.0,0.0,0.0,0.0,0.0,0.0,0.0,0.0,0.0,0.0,0.0,0.0,0.0,0.0,0.0,0.0,0.0,0.0,0.0,0.0,0.0,0.0,0.0,0.0,0.0,0.0,0.0,0.0,0.0,0.0,0.0,0.0,0.0,0.0,0.0,0.0,0.0,0.0,0.0,0.0,0.0,0.0,0.0,0.0,0.0,0.0,0.0,0.0,0.0,0.0,0.0,0.0,0.0,0.0,0.0,0.0,0.0,0.0,0.0,0.0,0.0,0.0,0.0,0.0,0.0,0.0,0.0,0.0,0.0,0.0,0.0,0.0,0.0,0.0,0.0,0.0,0.0,0.0,0.0,0.0,0.0,0.0,0.0,0.0,0.0,0.0,0.0,0.0,0.0,0.0,0.0,0.0,0.0,0.0,0.0,0.0,0.0,0.0,0.0,0.9511,0.9511,0.9999,1.026,1.0261,0.9736,0.9472,0.0,0.0,0.0,0.0,0.0,0.0,0.0,0.0,0.0,0.0,0.0,0.0,0.0,0.0,0.0,0.0,0.0,0.0,0.0,0.0,0.0,0.0,0.0,0.0,0.0,0.0,0.0,0.0,0.0,0.0,0.0,0.0,0.0,0.0,0.0,0.0,0.0,0.0,0.0,0.0,0.0,0.0,0.0,0.0,0.0,0.0,0.0,0.0,0.0,0.0,0.0,0.0,0.0,0.0,0.0,0.0,0.0,0.0,0.0,0.0,0.0,0.0,0.0,0.0,0.0,0.0,0.0,0.0,0.0,0.0,0.0,0.0,0.0,0.0,0.0,0.0,0.0,0.0,0.0,0.0,0.0,0.0,0.0,0.0,0.0,0.0,0.0,0.0,0.0,0.0,0.0,0.0,0.0,0.0,0.0,0.0,0.0,0.0,0.0,0.0,0.0,0.0,0.0,0.0,0.0,0.0,0.0,0.0,0.0,1.009,1.0625,1.0521,0.9789,0.959,0.9326,0.0,0.0,0.0,0.0,0.0,0.0,0.0,0.0,0.0,0.0,0.0,0.0,0.0,0.0,0.0,0.0,0.0,0.0,0.0,0.0,0.0,0.0,0.0,0.0,0.0,0.0,0.0,0.0,0.0,0.0,0.0,0.0,0.0,0.0,0.0,0.0,0.0,0.0,0.0,0.0,0.0,0.0,0.0,0.0,0.0,0.0,0.0,0.0,0.0,0.0,0.0,0.0,0.0,0.0,0.0,0.0,0.0,0.0,0.0,0.0,0.0,0.0,0.0,0.0,0.0,0.0,0.0,0.0,0.0,0.0,0.0,0.0,0.0,0.0,0.0,0.0,0.0,0.0,0.0,0.0,0.0,0.0,0.0,0.0,0.0,0.0,0.0,0.0,0.0,0.0,0.0,0.0,0.0,0.0,0.0,0.0,0.0,0.0,0.0,0.0,0.0,0.0,0.0,0.0,0.0,0.0,0.0,0.0,0.0,1.1931,1.209,1.1724,1.0782,1.0363,0.9994,0.966,0.0,0.0,0.0,0.0,0.0,0.0,0.0,0.0,0.0,0.0,0.0,0.0,0.0,0.0,0.0,0.0,0.0,0.0,0.0,0.0,0.0,0.0,0.0,0.0,0.0,0.0,0.0,0.0,0.0,0.0,0.0,0.0,0.0,0.0,0.0,0.0,0.0,0.0,0.0,0.0,0.0,0.0,0.0,0.0,0.0,0.0,0.0,0.0,0.0,0.0,0.0,0.0,0.0,0.0,0.0,0.0,0.0,0.0,0.0,0.0,0.0,0.0,0.0,0.0,0.0,0.0,0.0,0.0,0.0,0.0,0.0,0.0,0.0,0.0,0.0,0.0,0.0,0.0,0.0,0.0,0.0,0.0,0.0,0.0,0.0,0.0,0.0,0.0,0.0,0.0,0.0,0.0,0.0,0.0,0.0,0.0,0.0,0.0,0.0,0.0,0.0,0.0,0.0,0.0,0.0,0.0,0.0,0.0,1.4716,1.4249,1.3647,1.2941,1.1882,1.1294,0.0,0.0,0.0,0.0,0.0,0.0,0.0,0.0,0.0,0.0,0.0,0.0,0.0,0.0,0.0,0.0,0.0,0.0,0.0,0.0,0.0,0.0,0.0,0.0,0.0,0.0,0.0,0.0,0.0,0.0,0.0,0.0,0.0,0.0,0.0,0.0,0.0,0.0,0.0,0.0,0.0,0.0,0.0,0.0,0.0,0.0,0.0,0.0,0.0,0.0,0.0,0.0,0.0,0.0,0.0,0.0,0.0,0.0,0.0,0.0,0.0,0.0,0.0,0.0,0.0,0.0,0.0,0.0,0.0,0.0,0.0,0.0,0.0,0.0,0.0,0.0,0.0,0.0,0.0,0.0,0.0,0.0,0.0,0.0,0.0,0.0,0.0,0.0,0.0,0.0,0.0,0.0,0.0,0.0,0.0,0.0,0.0,0.0,0.0,0.0,0.0,0.0,0.0,0.0,0.0,0.0,0.0,0.0,0.0,1.6454,1.6375,1.5421,1.3618,1.2821,1.2109,0.0,0.0,0.0,0.0,0.0,0.0,0.0,0.0,0.0,0.0,0.0,0.0,0.0,0.0,0.0,0.0,0.0,0.0,0.0,0.0,0.0,0.0,0.0,0.0,0.0,0.0,0.0,0.0,0.0,0.0,0.0,0.0,0.0,0.0,0.0,0.0,0.0,0.0,0.0,0.0,0.0,0.0,0.0,0.0,0.0,0.0,0.0,0.0,0.0,0.0,0.0,0.0,0.0,0.0,0.0,0.0,0.0,0.0,0.0,0.0,0.0,0.0,0.0,0.0,0.0,0.0,0.0,0.0,0.0,0.0,0.0,0.0,0.0,0.0,0.0,0.0,0.0,0.0,0.0,0.0,0.0,0.0,0.0,0.0,0.0,0.0,0.0,0.0,0.0,0.0,0.0,0.0,0.0,0.0,0.0,0.0,0.0,0.0,0.0,0.0,0.0,0.0,0.0,0.0,0.0,0.0,0.0,0.0,1.6297,1.7186,1.7917,1.7337,1.5265,1.3958,1.3043,0.0,0.0,0.0,0.0,0.0,0.0,0.0,0.0,0.0,0.0,0.0,0.0,0.0,0.0,0.0,0.0,0.0,0.0,0.0,0.0,0.0,0.0,0.0,0.0,0.0,0.0,0.0,0.0,0.0,0.0,0.0,0.0,0.0,0.0,0.0,0.0,0.0,0.0,0.0,0.0,0.0,0.0,0.0,0.0,0.0,0.0,0.0,0.0,0.0,0.0,0.0,0.0,0.0,0.0,0.0,0.0,0.0,0.0,0.0,0.0,0.0,0.0,0.0,0.0,0.0,0.0,0.0,0.0,0.0,0.0,0.0,0.0,0.0,0.0,0.0,0.0,0.0,0.0,0.0,0.0,0.0,0.0,0.0,0.0,0.0,0.0,0.0,0.0,0.0,0.0,0.0,0.0,0.0,0.0,0.0,0.0,0.0,0.0,0.0,0.0,0.0,0.0,0.0,0.0,0.0,0.0,0.0,0.0,1.695,1.7565,1.9081,1.9159,1.7578,1.5291,1.4025,0.0,0.0,0.0,0.0,0.0,0.0,0.0,0.0,0.0,0.0,0.0,0.0,0.0,0.0,0.0,0.0,0.0,0.0,0.0,0.0,0.0,0.0,0.0,0.0,0.0,0.0,0.0,0.0,0.0,0.0,0.0,0.0,0.0,0.0,0.0,0.0,0.0,0.0,0.0,0.0,0.0,0.0,0.0,0.0,0.0,0.0,0.0,0.0,0.0,0.0,0.0,0.0,0.0,0.0,0.0,0.0,0.0,0.0,0.0,0.0,0.0,0.0,0.0,0.0,0.0,0.0,0.0,0.0,0.0,0.0,0.0,0.0,0.0,0.0,0.0,0.0,0.0,0.0,0.0,0.0,0.0,0.0,0.0,0.0,0.0,0.0,0.0,0.0,0.0,0.0,0.0,0.0,0.0,0.0,0.0,0.0,0.0,0.0,0.0,0.0,0.0,0.0,0.0,0.0,0.0,0.0,0.0,0.0,1.8872,1.9939,2.0332,2.0321,1.9941,1.7285,1.5273,0.0,0.0,0.0,0.0,0.0,0.0,0.0,0.0,0.0,0.0,0.0,0.0,0.0,0.0,0.0,0.0,0.0,0.0,0.0,0.0,0.0,0.0,0.0,0.0,0.0,0.0,0.0,0.0,0.0,0.0,0.0,0.0,0.0,0.0,0.0,0.0,0.0,0.0,0.0,0.0,0.0,0.0,0.0,0.0,0.0,0.0,0.0,0.0,0.9208,0.0,0.0,0.0,0.0,0.0,0.0,0.0,0.0,0.0,0.0,0.0,0.0,0.0,0.0,0.0,0.0,0.0,0.0,0.0,0.0,0.0,0.0,0.0,0.0,0.0,0.0,0.0,0.0,0.0,0.0,0.0,0.0,0.0,0.0,0.0,0.0,0.0,0.0,0.0,0.0,0.0,0.0,0.0,0.0,0.0,0.0,0.0,0.0,0.0,0.0,0.0,0.0,0.0,0.0,0.0,0.0,0.0,0.0,0.0,1.976,2.0686,2.1236,2.1249,2.066,1.8685,1.6835,0.0,0.0,0.0,0.0,0.0,0.0,0.0,0.0,0.0,0.0,0.0,0.0,0.0,0.0,0.0,0.0,0.0,0.0,0.0,0.0,0.0,0.0,0.0,0.0,0.0,0.0,0.0,0.0,0.0,0.0,0.0,0.0,0.0,0.0,0.0,0.0,0.0,0.0,0.0,0.0,0.0,0.0,0.0,0.0,0.0,0.0,0.0,0.0,0.0,0.0,0.0,0.0,0.0,0.0,0.0,0.0,0.0,0.0,0.0,0.0,0.0,0.0,0.0,0.0,0.0,0.0,0.0,0.0,0.0,0.0,0.0,0.0,0.0,0.0,0.0,0.0,0.0,0.0,0.0,0.0,0.0,0.0,0.0,0.0,0.0,0.0,0.0,0.0,0.0,0.0,0.0,0.0,0.0,0.0,0.0,0.0,0.0,0.0,0.0,0.0,0.0,0.0,0.0,0.0,0.0,0.0,0.0,1.8332,2.0232,2.0923,2.1969,2.2009,2.0987,1.9719,1.828,1.6612,0.0,0.0,0.0,0.0,0.0,0.0,0.0,0.0,0.0,0.0,0.0,0.0,0.0,0.0,0.0,0.0,0.0,0.0,0.0,0.0,0.0,0.0,0.0,0.0,0.0,0.0,0.0,0.0,0.0,0.0,0.0,0.0,0.0,0.0,0.0,0.0,0.0,0.0,0.7719,0.9097,0.0,0.0,0.0,0.0,0.0,0.0,0.0,0.0,0.9789,0.0,0.0,0.0,0.0,0.0,0.0,0.0,0.0,0.0,0.0,0.0,0.0,0.0,0.0,0.0,0.0,0.0,0.0,0.0,0.0,0.0,0.0,0.0,0.0,0.0,0.0,0.0,0.0,0.0,0.0,0.0,0.0,0.0,0.0,0.0,0.0,0.0,0.0,0.0,0.0,0.0,0.0,0.0,0.0,0.0,0.0,0.0,0.0,0.0,0.0,0.0,0.0,0.0,0.0,0.0,0.0,1.5522,1.8729,2.0875,2.1939,2.2672,2.2753,2.2127,2.053,1.8668,1.656,0.0,0.0,0.0,0.0,0.0,0.0,0.0,0.0,0.0,0.0,0.0,0.0,0.0,0.0,0.0,0.0,0.0,0.0,0.0,0.0,0.0,0.0,0.0,0.0,0.0,0.0,0.0,0.0,0.0,0.0,0.0,0.0,0.0,0.0,0.0,0.0,0.0,0.0,0.0,1.0565,1.1358,0.0,0.0,0.0,0.0,0.0,0.0,0.0,0.0,1.0576,0.0,0.0,0.0,0.0,0.0,0.0,0.0,0.0,0.0,0.0,0.0,0.0,0.0,0.0,0.0,0.0,0.0,0.0,0.0,0.0,0.0,0.0,0.0,0.0,0.0,0.0,0.0,0.0,0.0,0.0,0.0,0.0,0.0,0.0,0.0,0.0,0.0,0.0,0.0,0.0,0.0,0.0,0.0,0.0,0.0,0.0,0.0,0.0,0.0,0.0,0.0,0.0,0.0,0.0,0.0,1.5812,1.8712,2.081,2.2063,2.2825,2.2962,2.2401,2.0401,1.8432,0.0,0.0,0.0,0.0,0.0,0.0,0.0,0.0,0.0,0.0,0.0,0.0,0.0,0.0,0.0,0.0,0.0,0.0,0.0,0.0,0.0,0.0,0.0,0.0,0.0,0.0,0.0,0.0,0.0,0.0,0.0,0.0,0.0,0.0,0.0,0.0,0.0,0.0,0.0,0.0,1.1661,1.2465,1.2867,0.0,0.0,0.0,0.0,0.0,0.0,1.0212,1.0182,0.0,0.0,0.0,0.0,0.0,0.0,0.0,0.0,0.0,0.0,0.0,0.0,0.0,0.0,0.0,0.0,0.0,0.0,0.0,0.0,0.0,0.0,0.0,0.0,0.0,0.0,0.0,0.0,0.0,0.0,0.0,0.0,0.0,0.0,0.0,0.0,0.0,0.0,0.0,0.0,0.0,0.0,0.0,0.0,0.0,0.0,0.0,0.0,0.0,0.0,0.0,0.0,0.0,0.0,0.0,1.5898,1.8622,2.0637,2.1924,2.2886,2.308,2.24,2.0361,1.8393,0.0,0.0,0.0,0.0,0.0,0.0,0.0,0.0,0.0,0.0,0.0,0.0,0.0,0.0,0.0,0.0,0.0,0.0,0.0,0.0,0.0,0.0,0.0,0.0,0.0,0.0,0.0,0.0,0.0,0.0,0.0,0.0,0.0,0.0,0.0,0.0,0.0,0.0,0.0,0.0,0.0,1.3179,1.446,1.365,0.0,0.0,0.0,0.0,1.1131,1.0836,0.0,0.0,0.0,0.0,0.0,0.0,0.0,0.0,0.0,0.0,0.0,0.0,0.0,0.0,0.0,0.0,0.0,0.0,0.0,0.0,0.0,0.0,0.0,0.0,0.0,0.0,0.0,0.0,0.0,0.0,0.0,0.0,0.0,0.0,0.0,0.0,0.0,0.0,0.0,0.0,0.0,0.0,0.0,0.0,0.0,0.0,0.0,0.0,0.0,0.0,0.0,0.0,0.0,0.0,0.0,0.0,1.5681,1.8819,2.0893,2.1837,2.3259,2.3511,2.2426,2.1158,1.9219,0.0,0.0,0.0,0.0,0.0,0.0,0.0,0.0,0.0,0.0,0.0,0.0,0.0,0.0,0.0,0.0,0.0,0.0,0.0,0.0,0.0,0.0,0.0,0.0,0.0,0.0,0.0,0.0,0.0,0.0,0.0,0.0,0.0,0.0,0.0,0.0,0.0,0.0,0.0,0.0,0.0,1.2907,1.3732,1.3706,1.3604,0.0,0.0,1.3212,1.2658,1.304,0.0,0.0,0.0,0.0,0.0,0.0,0.0,0.0,0.0,0.0,0.0,0.0,0.0,0.0,0.0,0.0,0.0,0.0,0.0,0.0,0.0,0.0,0.0,0.0,0.0,0.0,0.0,0.0,0.0,0.0,0.0,0.0,0.0,0.0,0.0,0.0,0.0,0.0,0.0,0.0,0.0,0.0,0.0,0.0,0.0,0.0,0.0,0.0,0.0,0.0,0.0,0.0,0.0,0.0,0.0,1.3302,1.5834,1.8721,2.0819,2.2059,2.3393,2.3563,2.2427,2.0949,1.9012,0.0,0.0,0.0,0.0,0.0,0.0,0.0,0.0,0.0,0.0,0.0,0.0,0.0,0.0,0.0,0.0,0.0,0.0,0.0,0.0,0.0,0.0,0.0,0.0,0.0,0.0,0.0,0.0,0.0,0.0,0.0,0.0,0.0,0.0,0.0,0.0,0.0,0.0,0.0,0.0,0.0,0.0,1.4635,1.5074,0.0,0.0,0.0,1.5471,1.5571,0.0,0.0,0.0,0.0,0.0,0.0,0.0,0.0,0.0,0.0,0.0,0.0,0.0,0.0,0.0,0.0,0.0,0.0,0.0,0.0,0.0,0.0,0.0,0.0,0.0,0.0,0.0,0.0,0.0,0.0,0.0,0.0,0.0,0.0,0.0,0.0,0.0,0.0,0.0,0.0,0.0,0.0,0.0,0.0,0.0,0.0,0.0,0.0,0.0,0.0,0.0,0.0,0.0,0.0,0.0,0.0,0.0,1.6194,1.8931,2.0994,2.2284,2.3493,2.355,2.2427,2.0845,0.0,0.0,0.0,0.0,0.0,0.0,0.0,0.0,0.0,0.0,0.0,0.0,0.0,0.0,0.0,0.0,0.0,0.0,0.0,0.0,0.0,0.0,0.0,0.0,0.0,0.0,0.0,0.4023,0.0,0.0,0.0,0.0,0.0,0.0,0.0,0.0,0.0,0.0,0.0,0.0,0.0,0.0,1.4792,1.5523,1.6546,1.751,0.0,0.0,1.7931,1.8336,1.7644,1.6383,0.0,0.0,0.0,0.0,0.0,0.0,0.0,0.0,0.0,0.0,0.0,0.0,0.0,0.0,0.0,0.0,0.0,0.0,0.0,0.0,0.0,0.0,0.0,0.0,0.0,0.0,0.0,0.0,0.0,0.0,0.0,0.0,0.0,0.0,0.0,0.0,0.0,0.0,0.0,0.0,0.0,0.0,0.0,0.0,0.0,0.0,0.0,0.0,0.0,0.0,0.0,0.0,0.0,0.0,0.0,1.6761,1.9762,2.1631,2.2293,2.3493,2.3576,2.2426,2.125,1.9522,0.0,0.0,0.0,0.0,0.0,0.0,0.0,0.0,0.0,0.0,0.0,0.0,0.0,0.0,0.0,0.0,0.0,0.0,0.0,0.0,0.0,0.0,0.0,0.0,0.0,0.0,0.0,0.0,0.0,0.0,0.0,0.0,0.0,0.0,0.0,0.0,0.0,0.0,0.0,0.0,0.0,1.5135,1.5872,1.767,1.9205,0.0,0.0,2.0852,2.0385,1.9217,1.7673,1.5611,0.0,0.0,0.0,0.0,0.0,0.0,0.0,0.0,0.0,0.0,0.0,0.0,0.0,0.0,0.0,0.0,0.0,0.0,0.0,0.0,0.0,0.0,0.0,0.0,0.0,0.0,0.0,0.0,0.0,0.0,0.0,0.0,0.0,0.0,0.0,0.0,0.0,0.0,0.0,0.0,0.0,0.0,0.0,0.0,0.0,0.0,0.0,0.0,0.0,0.0,0.0,0.0,0.0,1.4506,1.7285,2.0375,2.2219,2.2794,2.3631,2.3563,2.244,2.0949,1.9198,0.0,0.0,0.0,0.0,0.0,0.0,0.0,0.0,0.0,0.0,0.0,0.0,0.0,0.0,0.0,0.0,0.0,0.0,0.0,0.0,0.0,0.0,0.0,0.0,0.0,0.0,0.0,0.0,0.4959,0.5171,0.6008,0.0,0.0,0.0,0.0,0.0,0.0,0.0,0.0,0.0,0.0,1.5974,1.7031,1.9244,0.0,0.0,2.272,2.3039,2.2545,2.1442,1.9813,1.7334,1.4692,0.0,0.0,0.0,0.0,0.0,0.0,0.0,0.0,0.0,0.0,0.0,0.0,0.0,0.0,0.0,0.0,0.0,0.0,0.0,0.0,0.0,0.0,0.0,0.0,0.0,0.0,0.0,0.0,0.0,0.0,0.0,0.0,0.0,0.0,0.0,0.0,0.0,0.0,0.0,0.0,0.0,0.0,0.0,0.0,0.0,0.0,0.0,0.0,0.0,0.0,0.0,0.0,1.4692,1.764,2.0795,2.2604,2.2957,2.3599,2.3394,2.2265,2.0782,1.9191,0.0,0.0,0.0,0.0,0.0,0.0,0.0,0.0,0.0,0.0,0.0,0.0,0.0,0.0,0.0,0.0,0.0,0.0,0.0,0.0,0.0,0.0,0.0,0.0,0.0,0.0,0.0,0.0,0.5728,0.5905,0.6305,0.0,0.0,0.0,0.0,0.0,0.0,0.0,0.0,0.0,0.0,1.6667,1.7941,2.022,2.2214,2.3395,2.3805,2.3948,2.3851,2.2384,2.0429,1.812,0.0,0.0,0.0,0.0,0.0,0.0,0.0,0.0,0.0,0.0,0.0,0.0,0.0,0.0,0.0,0.0,0.0,0.0,0.0,0.0,0.0,0.0,0.0,0.0,0.0,0.0,0.0,0.0,0.0,0.0,0.902,0.0,0.0,0.0,0.0,0.0,0.0,0.0,0.0,0.0,0.0,0.0,0.0,0.0,0.0,0.0,0.0,0.0,0.0,0.0,0.0,0.0,0.0,1.5414,1.7788,2.0979,2.2642,2.2604,2.3258,2.3036,2.1937,2.0978,1.9631,1.7917,0.0,0.0,0.0,0.0,0.0,0.0,0.0,0.0,0.0,0.0,0.0,0.0,0.0,0.0,0.0,0.0,0.0,0.0,0.0,0.0,0.0,0.0,0.0,0.0,0.0,0.0,0.6275,0.6289,0.6296,0.0,0.0,0.0,0.0,0.0,0.0,0.0,0.0,0.0,0.0,1.5091,1.7174,1.844,2.0329,2.2366,2.4308,2.3755,2.3309,2.4047,2.153,1.8979,0.0,0.0,0.0,0.0,0.0,0.0,0.0,0.0,0.0,0.0,0.0,0.0,0.0,0.0,0.0,0.0,0.0,0.0,0.0,0.0,0.0,0.0,0.0,0.0,0.0,0.0,0.0,1.2657,1.2192,0.0,0.0,0.0,0.0,0.0,0.0,0.0,0.0,0.0,0.0,0.0,1.6769,1.6469,0.0,0.0,0.0,0.0,0.0,0.0,0.0,0.0,0.0,0.0,0.0,0.0,1.4912,1.7628,2.0262,2.1686,2.1939,2.2079,2.1877,2.1313,2.0076,1.8635,1.6954,0.0,0.0,0.0,0.0,0.0,0.0,0.0,0.0,0.0,0.0,0.0,0.0,0.0,0.0,0.0,0.0,0.0,0.0,0.0,0.0,0.0,0.0,0.0,0.0,0.0,0.683,0.0,0.0,0.0,0.0,0.0,0.0,0.0,0.0,0.0,0.0,0.0,1.2129,1.4141,1.619,1.8062,1.9633,2.1488,2.2964,0.0,0.0,0.0,0.0,0.0,0.0,0.0,0.0,0.0,0.0,0.0,0.0,0.0,0.0,1.5254,1.3817,1.3372,1.2904,1.1866,0.0,0.0,0.0,0.0,0.0,0.0,0.0,0.0,0.0,0.0,0.0,0.0,0.0,0.0,1.509,0.0,1.3707,0.0,0.0,0.0,0.0,0.0,0.0,0.0,0.0,1.7719,1.8432,1.8866,1.8876,1.8876,0.0,1.8876,1.7626,0.0,0.0,0.0,0.0,0.0,0.0,0.0,0.0,1.5024,1.7661,2.0155,2.1516,2.1675,2.1725,2.1602,2.128,1.9881,1.8476,1.7161,1.5653,1.4141,0.0,0.0,0.0,0.0,0.0,0.0,0.0,0.0,0.0,0.0,0.0,0.0,0.0,0.0,0.0,0.0,0.0,0.0,0.0,0.0,0.0,0.0,0.0,0.7418,0.0,0.0,0.0,0.0,0.0,0.0,0.0,0.0,0.0,1.133,1.2224,1.35,1.5294,1.7264,1.9076,2.0599,0.0,0.0,0.0,0.0,0.0,0.0,0.0,2.011,2.0729,1.9635,1.8619,1.8461,1.8257,1.7982,1.7684,0.0,0.0,1.5515,1.5012,1.4453,1.3189,1.408,1.4595,1.2926,1.3868,1.4913,0.0,0.0,0.0,0.0,0.0,0.0,0.0,0.0,1.7554,1.7182,0.0,1.5753,0.0,0.0,0.0,0.0,0.0,1.5411,0.0,0.0,1.9841,2.0731,2.1145,2.1155,2.1139,2.1176,2.1098,2.0638,1.9668,1.6703,0.0,0.0,0.0,0.0,0.0,0.0,1.5642,1.7777,2.0608,2.2026,2.1861,2.2166,2.2125,2.1725,2.0225,1.9132,1.849,1.7339,1.5799,1.3745,1.3061,0.0,0.0,0.0,0.0,0.0,0.0,0.0,0.0,0.0,0.0,0.0,0.0,0.0,0.0,0.0,0.0,0.0,0.0,0.0,0.0,0.8027,0.0,0.0,0.0,0.0,0.0,0.0,0.0,0.0,0.0,0.0,1.2778,1.4203,1.5525,1.6181,0.0,0.0,0.0,0.0,2.3729,2.4996,2.419,2.3724,2.4392,2.252,2.1185,2.1804,0.0,0.0,2.0442,2.039,2.0034,1.8934,1.8728,1.8375,1.7519,1.6786,1.5866,1.4631,1.5491,1.6007,1.5121,1.6204,1.7659,2.2879,0.0,0.0,0.0,0.0,2.0261,2.0897,2.128,2.07,2.022,1.9827,1.8495,0.0,0.0,0.0,0.0,0.0,0.0,1.922,2.0369,2.1414,2.2149,2.2594,2.2594,2.2594,2.2573,2.2263,2.1797,2.1166,1.9644,1.7812,1.5828,0.0,0.0,0.0,0.0,1.5469,1.7624,1.9436,2.0609,2.1185,2.1297,2.1134,2.073,1.943,1.8713,1.8724,1.7123,1.5844,1.499,1.3839,0.0,0.0,0.0,0.0,0.0,0.0,0.0,0.0,0.0,0.0,0.0,0.0,0.0,0.0,0.0,0.0,0.0,0.0,0.0,0.852,0.8902,0.9073,0.0,0.0,0.0,0.0,0.0,0.0,0.0,0.0,0.0,1.647,1.6938,1.7638,0.0,0.0,2.1993,2.3147,2.3987,2.4625,2.5007,2.4762,0.0,0.0,2.3551,2.2898,2.3905,2.3919,2.3782,2.3631,2.2934,2.2125,2.1338,2.0516,1.9751,1.9135,1.8463,1.7398,1.597,1.6954,1.783,1.6752,1.7673,1.8835,2.6371,2.335,2.2771,2.249,2.2379,2.3308,2.396,2.4353,2.3898,2.3432,2.2915,2.1569,2.0472,1.9527,1.8475,0.0,0.0,0.0,2.1342,2.2252,2.3153,2.3722,2.4002,2.4178,2.4064,2.3712,2.3432,2.2977,2.2346,2.1787,2.0741,1.9104,0.0,0.0,1.6291,1.5887,1.6621,1.8532,1.9784,2.0711,2.1303,2.1277,2.113,2.0808,1.9575,1.8911,1.8978,1.7375,1.6235,1.5705,1.4331,1.3133,0.0,0.0,0.0,0.0,0.0,0.0,0.0,0.0,0.0,0.0,0.0,0.6906,0.7131,0.0,0.0,0.0,0.8715,0.9199,0.9714,1.0116,0.0,0.0,0.0,0.0,0.0,0.0,0.0,1.3702,1.4968,1.6502,1.8656,1.9255,1.9834,2.0912,2.2101,2.3111,2.3837,0.0,2.5076,2.4875,2.5412,2.5819,2.5635,2.5216,2.5067,2.5614,2.5912,2.5751,2.5073,2.4353,2.3567,2.251,2.1708,2.0965,2.0152,1.9684,1.8932,1.7381,1.825,1.8951,1.8026,1.8803,1.9615,2.9024,2.8041,2.6827,2.5902,2.5482,2.631,2.6978,2.7372,2.6915,2.6434,2.5947,2.4676,2.3505,2.2532,2.128,0.0,2.1994,2.249,2.3174,2.4064,2.4871,2.5241,2.5261,2.5678,2.542,2.4549,2.4476,2.4053,2.3297,2.3143,2.2936,2.2459,1.9158,1.7823,1.8526,1.8164,1.8622,2.0051,2.1168,2.1863,2.2071,2.1857,2.1708,2.1519,2.0242,1.939,1.9125,1.7845,1.6765,1.5985,1.4633,1.3838,1.3634,0.0,0.0,0.0,0.0,0.0,0.0,0.0,0.0,0.0,0.0,0.0,0.0,0.0,0.0,0.0,0.9945,0.0,1.1252,1.1441,0.0,0.0,0.0,1.1008,1.1514,1.2135,1.2972,1.4165,0.0,0.0,1.9622,2.1078,2.1964,2.2023,2.3015,2.3787,2.3841,2.4755,2.522,2.4864,2.6109,2.7048,2.6787,2.7144,2.7386,2.7141,2.7447,2.7108,2.567,2.5032,2.4313,2.2821,2.2373,2.1939,2.0775,2.0595,2.0301,1.9296,1.9451,1.9666,1.941,1.978,2.0249,3.0258,3.0171,2.9853,2.8582,2.6895,2.7365,2.7862,2.8235,2.78,2.7541,2.7355,2.5999,2.4716,2.3525,2.3205,2.3174,2.3422,2.4177,2.4652,2.4933,2.5471,2.573,2.573,2.5823,2.5595,2.5003,2.4364,2.3929,2.3691,2.2998,2.278,2.2946,2.1797,2.0959,2.0462,1.9982,2.0004,2.0558,2.1497,2.2158,2.2509,2.1947,2.1455,2.1062,1.9671,1.8559,1.7801,1.692,1.6251,1.5858,1.5112,1.465,1.4488,1.3263,0.0,0.0,0.0,0.0,0.0,0.0,0.0,0.0,0.0,0.81,0.8664,0.0,0.9233,0.0,1.1185,1.1753,1.2017,1.2004,0.0,0.0,1.2704,1.2807,1.2994,1.3803,1.4585,1.5209,1.7111,1.8829,1.9978,2.1898,2.3187,2.3273,2.3855,2.449,2.4935,2.5208,2.5519,2.5786,2.6479,2.7185,2.7738,2.8609,2.912,2.8907,2.8614,2.8058,2.7203,2.59,2.4679,2.3811,2.2902,2.2088,2.1331,2.1534,2.1776,2.1437,2.0607,2.006,2.0804,2.0877,2.0996,3.1041,3.1187,3.1197,3.0432,2.9155,2.9363,2.9601,2.9798,2.9352,2.9042,2.8763,2.7614,2.6682,2.5999,2.5989,2.5989,2.6009,2.6299,2.6388,2.6388,2.6465,2.6542,2.6542,2.6542,2.62,2.5502,2.4809,2.4271,2.3909,2.336,2.3236,2.3535,2.3432,2.3153,2.2586,2.1776,2.1493,2.1841,2.2286,2.2588,2.2644,2.1966,2.145,2.119,1.9572,1.8348,1.7656,1.6634,1.6087,1.6065,1.5252,1.4935,1.5282,1.3921,1.2518,0.0,0.0,0.0,0.0,0.0,0.0,0.0,0.0,0.0,0.0,0.0,1.0546,1.1853,1.2316,1.2761,1.332,1.3354,1.3556,1.4109,1.435,1.4495,1.4529,1.5008,1.5541,1.6082,1.7601,1.9153,2.0498,2.2077,2.3321,2.3888,2.4097,2.4412,2.4976,2.5294,2.5554,2.5871,2.6752,2.7953,2.9155,3.0049,3.0539,3.0295,2.9597,2.8755,2.7841,2.6443,2.5127,2.4258,2.354,2.2903,2.2375,2.2686,2.3105,2.3011,2.2614,2.2217,2.2283,2.2128,2.2122,3.1384,3.1543,3.1543,3.1554,3.1481,3.1492,3.1454,3.1311,3.0864,3.0387,2.986,2.9052,2.8638,2.8485,2.8524,2.8483,2.8421,2.7966,2.7779,2.781,2.7376,2.7247,2.732,2.732,2.6822,2.592,2.544,2.4788,2.3981,2.395,2.3908,2.3981,2.4311,2.4507,2.4456,2.335,2.2925,2.3297,2.3156,2.299,2.2751,2.2063,2.1625,2.1428,1.9736,1.8469,1.7813,1.6686,1.6103,1.6196,1.5211,1.5038,1.5881,1.4169,1.298,0.0,1.1579,0.0,0.0,0.0,0.0,0.0,0.0,0.0,0.0,1.1328,1.2145,1.3349,1.3454,1.3835,1.4756,1.4936,1.5162,1.5616,1.5854,1.5974,1.5909,1.5996,1.63,1.6915,1.798,1.9328,2.0977,2.2059,2.3105,2.4017,2.4292,2.4484,2.483,2.5166,2.539,2.5526,2.6966,2.8609,3.0295,3.1143,3.1376,3.118,3.0215,2.9108,2.7895,2.6687,2.552,2.4516,2.4204,2.4014,2.3513,2.392,2.4299,2.4313,2.4693,2.4679,2.3716,2.331,2.312,3.1121,3.1321,3.1379,3.1616,3.2117,3.2117,3.1604,3.0812,3.0729,3.0212,2.9435,2.9249,2.8752,2.8069,2.8059,2.7862,2.7537,2.7034,2.7034,2.7365,2.6957,2.6946,2.7299,2.732,2.6775,2.5896,2.544,2.49,2.4363,2.4053,2.4064,2.4373,2.4456,2.4507,2.4487,0.0,0.0,0.0,2.3313,2.3073,2.2994,2.2453,2.18,2.1036,1.9888,0.0,1.6869,1.6525,1.6048,1.5389,1.5335,0.0,0.0,0.0,0.0,0.0,0.0,0.0,0.0,0.0,0.0,0.0,1.5165,1.4892,1.4193,1.4281,1.4534,1.4791,1.4825,1.5024,1.544,1.5435,1.5682,1.6399,1.6791,1.6841,1.6454,1.7065,1.7696,1.7915,1.8825,1.9979,2.1345,2.2705,2.3652,2.4095,2.5003,2.566,2.5815,2.5257,2.5076,2.5899,2.7348,2.8749,3.0189,3.0848,3.1198,3.1087,3.0283,2.9116,2.7976,2.6782,2.5738,2.4978,2.4814,2.4829,2.4665,2.5154,2.5561,2.5561,2.605,2.6088,2.4924,2.4258,2.3757,3.1368,0.0,3.1424,3.1672,0.0,3.2315,3.1963,3.1329,3.1122,3.0512,2.9653,2.9653,2.9259,2.8597,2.8359,2.8007,2.7562,2.6926,2.6739,2.6946,2.6718,2.6739,2.6978,2.7195,2.6936,2.6216,2.5761,2.5316,2.4838,2.4664,2.4664,2.4848,2.5088,2.5099,2.4838,2.46,2.4322,2.3888,2.3738,2.3464,2.3115,2.2735,2.2205,2.1592,0.0,0.0,0.0,0.0,0.0,0.0,0.0,0.0,0.0,0.0,0.0,1.5447,1.536,1.5284,1.5254,1.6039,1.6809,1.7444,1.8192,1.7893,1.6135,1.5903,1.5955,1.6191,1.6,1.5995,1.6424,1.6203,1.6369,1.7219,1.7514,1.7606,1.7649,1.8032,1.8466,1.8769,1.9456,2.0399,2.1745,2.2903,2.3956,2.4672,2.5266,2.6009,2.6695,2.6417,2.6418,2.7164,2.8027,2.9057,3.0063,3.0697,3.122,3.1487,3.0975,2.9944,2.8809,2.7841,2.6945,2.6131,2.59,2.5871,2.5912,2.6389,2.6782,2.685,2.7271,2.7393,2.6497,2.5629,2.472,3.1711,3.19,3.1475,3.1684,3.2201,3.219,3.2117,3.2012,0.0,0.0,0.0,3.0149,2.986,2.9394,2.8856,2.8359,2.7872,2.6982,2.6656,2.6739,2.6656,2.6656,2.676,2.7123,2.7071,2.6604,2.6221,2.5771,2.5357,2.5303,2.5347,2.5378,2.5699,2.5658,2.5179,2.4735,2.4321,2.4012,2.4127,2.3914,2.3292,2.297,2.2691,2.2371,2.1054,1.9878,1.8851,1.8094,1.7387,1.6798,1.6499,1.6635,1.7189,1.6675,1.669,1.7511,1.7196,1.7315,1.8116,1.8328,1.8807,1.9666,2.0477,1.9941,1.7617,1.7203,1.7158,1.7497,1.7147,1.7082,1.7486,1.7158,1.7256,1.8152,1.8261,1.8414,1.8742,1.8818,1.9004,1.9442,1.9747,2.0512,2.1968,2.2912,2.386,2.4952,2.5396,2.5973,2.7318,2.7654,2.7861,2.827,2.8733,2.9367,3.0139,3.0697,3.1286,3.2005,3.1653,3.0907,2.9916,2.9238,2.8505,2.7528,2.7366,2.747,2.7484,2.7877,2.8166,2.818,2.856,2.8736,2.8085,2.7162,2.5968,3.1865,3.1563,3.1505,3.1623,3.1855,3.1845,3.1946,3.1957,3.1578,3.1309,3.1164,3.076,3.0336,2.9849,2.9001,2.8359,2.7872,2.6982,2.6822,0.0,2.6791,2.6832,2.7206,2.7278,2.7071,2.6635,2.6542,2.6283,2.5834,2.5802,2.5782,2.5792,2.5844,2.5668,2.5189,2.4735,2.4466,2.4394,2.4273,2.4136,2.4041,2.3545,2.3091,2.2643,2.1813,2.074,1.9375,1.9189,1.8709,1.7817,1.7737,1.7755,1.7867,1.7912,1.8132,1.8531,1.9316,1.9987,2.0322,2.0749,2.1062,2.1248,2.1412,2.083,1.9404,1.9096,1.8873,1.8545,1.8447,1.8403,1.848,1.8425,1.8578,1.9071,1.9169,1.9255,1.9321,1.9342,1.9496,1.9954,1.9682,2.0204,2.1833,2.2761,2.3406,2.4095,2.526,2.651,2.7351,2.8102,2.839,2.8526,2.8855,2.9431,3.0139,3.0697,3.1272,3.2059,3.1721,3.1124,3.0418,3.0174,2.9808,2.9197,2.9333,2.9672,2.9706,2.9957,2.9862,2.9821,2.993,2.9835,2.9252,2.856,2.742,3.2393,3.2158,3.1719,3.1752,3.2119,3.2245,3.2317,3.2339,3.2209,3.1826,3.135,3.0884,3.0429,2.9932,2.9032,2.8359,2.7893,2.7241,2.7102,2.7278,2.7092,2.7102,2.732,2.751,2.7386,2.7019,2.7189,2.7076,2.6662,2.6677,2.6677,2.6656,2.6428,2.6154,2.5927,2.5264,2.4745,2.4497,2.4428,2.4326,2.4199,2.4064,2.3688,2.3112,2.2607,2.1811,2.0642,2.0347,1.9768,1.8777,1.8763,1.8654,1.8403,1.878,1.9287,1.986,2.052,2.1099,2.1585,2.1822,2.2055,2.2349,2.2346,2.201,2.1114,2.0774,2.0511,2.0271,2.003,1.9899,1.9888,1.9637,1.954,1.9758,1.978,1.9791,1.9824,2.0063,2.0293,2.05,2.0577,2.0962,2.1875,2.2621,2.3262,2.3856,2.5259,2.6434,2.6837,2.7422,2.8002,2.8445,2.8816,2.9392,3.005,3.0621,3.1272,3.2073,3.1965,3.1531,3.1015,3.0893,3.0635,3.0133,3.0256,3.0378,3.0432,3.0405,3.0405,3.0405,3.0405,3.0242,2.9957,2.9265,2.7773,3.2871,3.2725,3.209,3.2048,3.2401,3.2625,3.2669,3.2669,3.2669,3.2333,3.1671,3.1195,3.0791,3.0367,2.9394,2.8731,2.8349,2.7821,2.762,2.761,2.761,2.762,2.7593,2.7924,2.7841,2.7527,2.7759,2.7696,2.7361,2.732,2.732,2.7247,2.6739,2.6459,2.6438,2.5523,2.4859,2.4528,2.4507,2.4375,2.4148,2.4375,2.4209,2.3713,2.3438,2.2936,2.2116,2.1638,2.0948,2.0129,1.9834,1.9572,1.9264,1.9753,2.0343,2.1015,2.1453,2.1898,2.2405,2.2452,2.263,2.2957,2.3001,2.2848,2.2488,2.2138,2.18,2.1627,2.1211,2.1025,2.0971,2.0686,2.0445,2.0434,2.0445,2.0467,2.0478,2.0795,2.0993,2.0982,2.1199,2.141,2.1672,2.2323,2.3205,2.4229,2.5269,2.5953,2.6366,2.6951,2.7642,2.8346,2.877,2.9104,2.9707,3.0417,3.1209,3.2023,3.2191,3.1924,3.1599,3.149,3.1355,3.0948,3.0853,3.092,3.0839,3.0853,3.0893,3.0934,3.0961,3.0839,3.0608,2.9821,2.8275,3.3135,3.2812,3.2695,3.2571,3.2431,3.2646,3.27,3.269,3.2669,3.2706,3.2452,3.2116,3.1822,3.1671,3.0439,2.9808,2.9684,2.8887,2.8493,2.8483,2.8493,2.8493,2.8462,2.8535,2.8307,2.7903,2.7914,2.7717,2.733,2.732,2.732,2.7206,2.6428,2.5968,2.5865,2.5034,2.4559,2.4507,2.4507,2.4322,2.3992,2.4293,2.4457,2.4402,2.4386,2.4104,2.3455,2.3067,2.2564,2.204,2.1188,2.0741,2.073,2.1146,2.143,2.1531,2.2352,2.2874,2.2922,2.2951,2.2936,2.299,2.3001,2.299,2.2947,2.2892,2.2499,2.1887,2.1603,2.1594,2.1516,2.1483,2.1461,2.145,2.1461,2.145,2.1428,2.1483,2.1386,2.0938,2.1058,2.0885,2.0952,2.1839,2.3212,2.4534,2.4915,2.5553,2.6706,2.7227,2.7722,2.8385,2.857,2.8658,2.9202,2.9997,3.0992,3.1946,3.2205,3.2101,3.2042,3.2019,3.2033,3.1748,3.1857,3.1829,3.1884,3.2042,3.196,3.1762,3.1775,3.1802,3.1314,3.0649,2.9292,3.332,3.3135,3.29,3.2808,3.2903,3.3292,3.3368,3.312,3.311,3.2975,3.2716,3.2463,3.2246,3.1915,3.0895,3.0408,3.0356,2.9725,2.9425,2.9404,2.9166,2.9011,2.9021,2.9021,2.8649,2.7997,2.8193,2.7955,2.7423,2.732,2.732,2.7247,2.6646,2.6335,2.6206,2.5399,2.49,2.49,2.4803,2.4649,2.4535,2.4766,2.4827,2.4725,2.4816,2.4672,2.4224,2.3973,2.3525,2.2772,2.2335,2.1901,2.1319,2.1756,2.2018,2.2062,2.263,2.3001,2.3001,2.3001,2.3001,2.3001,2.3001,2.311,2.3394,2.3427,2.3362,2.3285,2.2783,2.2422,2.2422,2.2433,2.2422,2.2422,2.2422,2.2324,2.2051,2.2269,2.2149,2.1461,2.1549,2.1561,2.1335,2.1851,2.2934,2.4023,2.4406,2.5112,2.6171,2.6688,2.7155,2.7603,2.8082,2.8798,2.9416,3.0054,3.0929,3.1829,3.2205,3.2205,3.2169,3.2205,3.2169,3.2205,3.2205,3.2205,3.2151,3.2205,3.2205,3.2205,3.2191,3.2042,3.1422,3.111,3.0052,3.3418,3.3359,3.3155,3.317,3.3347,3.3875,3.3935,3.3565,3.3441,3.3192,3.2903,3.2731,3.2551,3.2147,3.1402,3.106,3.0988,3.045,3.018,3.0129,2.9715,2.9497,2.9497,2.9497,2.9073,2.8452,2.8504,2.8142,2.7403,2.732,2.732,2.7247,2.6843,2.6553,2.632,2.5606,2.5189,2.5181,2.494,2.4881,2.5136,2.5179,2.5114,2.5053,2.5278,2.5207,2.4891,2.4738,2.4355,2.3635,2.3351,2.2892,2.2258,2.2484,2.2735,2.2925,2.322,2.3405,2.3405,2.3405,2.3416,2.3416,2.3405,2.3558,2.3842,2.394,2.4104,2.4312,2.382,2.3416,2.3416,2.3416,2.3405,2.3405,2.3405,2.3209,2.2779,2.3023,2.2815,2.2007,2.204,2.2193,2.1942,2.2237,2.2951,2.3853,2.4404,2.4965,2.58,2.6543,2.7035,2.7408,2.8345,2.9063,2.9555,3.012,3.0834,3.1451,3.1834,3.2109,3.2146,3.2146,3.2205,3.2205,3.2205,3.2205,3.2205,3.2205,3.2205,3.2205,3.2191,3.2096,3.1707,3.1558,3.0853,3.3418,3.3422,3.3651,3.3769,3.378,3.405,3.4142,3.408,3.3596,3.3379,3.3265,3.2923,3.2669,3.2576,3.2081,3.1905,3.1791,3.1019,3.0615,3.0563,3.0139,2.9953,2.9973,2.9953,2.9684,2.9114,2.8752,2.8152,2.7361,2.732,2.732,2.7289,2.6843,2.6407,2.5978,2.5523,2.521,2.5275,2.4925,2.5004,2.5699,2.5423,2.538,2.5581,2.5737,2.5808,2.5742,2.5423,2.5139,2.5043,2.4192,2.364,2.3585,2.3596,2.3831,2.4257,2.4355,2.4388,2.4355,2.4373,2.4344,2.4377,2.4301,2.441,2.4432,2.4454,2.4497,2.4519,2.4508,2.4421,2.441,2.4301,2.4312,2.4355,2.4377,2.4126,2.3662,2.3591,2.3215,2.2484,2.2335,2.24,2.2335,2.2684,2.3416,2.4307,2.5036,2.575,2.6594,2.7319,2.7912,2.8627,2.9293,2.9707,2.8955,2.9951,3.0747,3.1426,3.2142,3.2112,3.204,3.2036,3.2173,3.2232,3.2232,3.2232,3.2218,3.2205,3.2205,3.2205,3.2205,3.2083,3.1974,3.211,3.1422,3.3544,3.3713,3.4065,3.4316,3.4543,3.482,3.4766,3.4567,3.4401,3.3976,3.341,3.3203,3.2996,3.2669,3.2504,3.2256,3.1915,3.1091,3.0688,3.0626,3.0222,2.9994,2.9994,2.9994,2.9756,2.9301,2.8835,2.8152,2.7403,2.732,2.732,2.7237,2.6843,2.6521,2.6314,2.5875,2.5782,2.6055,2.5771,2.5928,2.6454,2.6404,2.6399,2.6443,2.6096,2.5895,2.5895,2.5721,2.5502,2.5226,2.4825,2.4519,2.4257,2.4213,2.429,2.4465,2.4526,2.4526,2.4526,2.4526,2.4526,2.4526,2.4526,2.465,2.4898,2.4975,2.5084,2.5295,2.5393,2.5393,2.5262,2.4869,2.4607,2.4836,2.4661,2.4454,2.4203,2.3929,2.3471,2.2925,2.2761,2.287,2.3062,2.3335,2.3973,2.512,2.5617,2.6148,2.7001,2.783,2.8656,2.9436,3.0316,3.0861,3.0738,3.1069,3.1751,3.237,3.2914,3.3082,3.3117,3.2786,3.2806,3.2653,3.2531,3.2236,3.2236,3.2205,3.2205,3.2205,3.2205,3.2205,3.2205,3.2205,3.1599,3.368,3.3922,3.436,3.4673,3.4922,3.5232,3.5252,3.4962,3.4878,3.4463,3.3903,3.3582,3.3203,3.2944,3.2742,3.2514,3.2142,3.1485,3.1122,3.106,3.0501,3.0212,3.0191,3.0067,2.9829,2.9497,2.9052,2.8369,2.7562,2.7479,2.7455,2.7289,2.6978,2.675,2.6594,2.6304,2.6324,2.648,2.6295,2.6365,2.6925,2.6915,2.6949,2.7007,2.6476,2.6136,2.6125,2.5983,2.5764,2.55,2.5404,2.5262,2.4978,2.4945,2.4945,2.4934,2.4956,2.4945,2.4945,2.4945,2.4956,2.4945,2.4956,2.5098,2.5423,2.5456,2.559,2.5819,2.5895,2.5895,2.5786,2.5317,2.5076,2.5317,2.512,2.4803,2.4519,2.4192,2.37,2.3132,2.2968,2.3143,2.3438,2.3651,2.4254,2.5282,2.5782,2.6539,2.7197,2.8302,2.9101,2.9694,3.0918,3.1538,3.1785,3.2176,3.2226,3.2772,3.3413,3.3703,3.3846,3.3569,3.3295,3.3115,3.2843,3.2467,3.2277,3.2246,3.2232,3.2232,3.2205,3.2205,3.2205,3.2205,3.1626,3.3922,3.4047,3.461,3.4922,3.4984,3.5294,3.5418,3.5314,3.4973,3.4805,3.4546,3.3883,3.3461,3.3275,3.2954,3.269,3.2535,3.2112,3.1884,3.1836,3.1029,3.0636,3.0605,3.0191,2.9942,2.9839,2.9487,2.8804,2.7903,2.7841,2.7665,2.7361,2.7289,2.705,2.6656,2.6635,2.6625,2.6594,2.6318,2.647,2.713,2.6966,2.6988,2.7248,2.69,2.6649,2.6617,2.6179,2.5884,2.5863,2.5852,2.5884,2.5786,2.5775,2.5841,2.5775,2.5841,2.5852,2.583,2.5797,2.5742,2.5742,2.583,2.5764,2.5786,2.5819,2.5852,2.5884,2.5895,2.5895,2.5895,2.5808,2.5775,2.5874,2.571,2.5306,2.4705,2.4443,2.4082,2.323,2.3001,2.3012,2.317,2.3622,2.4277,2.4937,2.5926,2.7019,2.7587,2.8726,2.9313,2.9695,3.0676,3.1647,3.238,3.3025,3.2896,3.2935,3.3552,3.4001,3.4211,3.4045,3.3865,3.3634,3.3349,3.3023,3.2752,3.2671,3.2477,3.2436,3.2341,3.2246,3.2205,3.2151,3.1843,3.4173,3.461,3.4797,3.5046,3.5232,3.5356,3.5428,3.5418,3.5262,3.5045,3.4805,3.4515,3.4049,3.3451,3.3223,3.3016,3.2669,3.2514,3.2297,3.1884,3.1122,3.0708,3.0615,3.0212,2.9829,2.9549,2.9373,2.8835,2.8051,2.7896,2.7696,2.7392,2.732,2.7237,2.7081,2.7092,2.7081,2.7071,2.7087,2.7238,2.7504,2.7704,2.7896,2.7991,2.7715,2.7555,2.75,2.6507,2.5928,2.5928,2.5895,2.5895,2.5895,2.5895,2.5895,2.5895,2.5895,2.5895,2.5895,2.5895,2.5895,2.5895,2.5895,2.5895,2.5895,2.5895,2.5895,2.5895,2.5895,2.5895,2.5895,2.5895,2.5917,2.5895,2.56,2.5229,2.4596,2.394,2.3383,2.3099,2.3001,2.3274,2.3831,2.4244,2.4707,2.5763,2.6559,2.726,2.8657,2.8982,2.9711,3.0462,3.1173,3.1574,3.2188,3.2934,3.3343,3.3555,3.4153,3.4485,3.4617,3.4641,3.4409,3.407,3.3824,3.3552,3.3257,3.3023,3.2789,3.2599,3.2504,3.2381,3.2259,3.2083,3.1843,3.4485,3.4922,3.5046,3.518,3.5428,3.5428,3.5428,3.5428,3.5428,3.5262,3.5014,3.4878,3.4515,3.3955,3.3603,3.3234,3.2965,3.2809,3.2525,3.2173,3.1557,3.1122,3.0874,3.0274,2.987,2.9611,2.9559,2.9177,2.8473,2.8411,2.8131,2.7614,2.751,2.7455,2.734,2.732,2.732,2.7309,2.7478,2.7631,2.782,2.816,2.8441,2.8459,2.8196,2.8012,2.7914,2.6977,2.642,2.6387,2.6278,2.6103,2.5939,2.5895,2.5895,2.5895,2.5895,2.5895,2.5895,2.5895,2.5895,2.5895,2.5895,2.5895,2.5895,2.5895,2.5895,2.5895,2.5895,2.5895,2.5917,2.6092,2.6157,2.6168,2.5775,2.5262,2.4738,2.405,2.3646,2.3651,2.3667,2.3952,2.4233,2.4673,2.5013,2.6182,2.6818,2.7421,2.8837,2.9253,2.9907,3.0461,3.0814,3.1268,3.1915,3.2752,3.3686,3.4271,3.49,3.5063,3.5184,3.5156,3.5058,3.4504,3.4151,3.3826,3.3555,3.3227,3.2966,3.2816,3.2748,3.2381,3.2205,3.2205,3.2055,3.4922,3.4984,3.5242,3.5356,3.5428,3.5428,3.5428,3.5428,3.5428,3.5407,3.5304,3.5014,3.4837,3.4598,3.3955,3.3513,3.3306,3.2996,3.2721,3.2535,3.2188,3.1764,3.1133,3.0439,3.0056,2.9942,2.9942,2.9694,2.9166,2.9145,2.8845,2.8038,2.7945,2.7779,2.7541,2.7423,2.7496,2.7517,2.7614,2.7857,2.8072,2.8301,2.8535,2.8746,2.8364,2.8089,2.8023,2.7654,2.7326,2.7206,2.6747,2.6354,2.6005,2.5895,2.5895,2.5895,2.5895,2.5895,2.5895,2.5895,2.5895,2.5895,2.5895,2.5895,2.5937,2.5979,2.6021,2.6021,2.6021,2.6001,2.6079,2.631,2.6562,2.6562,2.6234,2.5764,2.5357,2.4858,2.4596,2.4581,2.4706,2.4787,2.4657,2.5066,2.5458,2.5937,2.6907,2.7817,2.85,2.9189,2.9389,2.9844,3.0392,3.097,3.1601,3.2371,3.3278,3.4218,3.4953,3.5358,3.5521,3.5521,3.552,3.4978,3.4585,3.4233,3.3989,3.381,3.3604,3.3522,3.3118,3.2517,3.2359,3.2562,3.2576,3.5046,3.5294,3.5366,3.5428,3.5428,3.5428,3.5428,3.5428,3.5428,3.5428,3.5387,3.5304,3.5055,3.4805,3.4567,3.4111,3.3492,3.3254,3.2996,3.2747,3.2566,3.1868,3.105,3.0646,3.0325,3.0067,3.0025,2.9756,2.9332,2.9342,2.9011,2.8452,2.8421,2.8369,2.8266,2.8204,2.8255,2.8242,2.833,2.8402,2.8492,2.8629,2.871,2.8781,2.8661,2.8596,2.8606,2.8497,2.7818,2.6878,2.666,2.6366,2.6026,2.5961,2.5994,2.5983,2.595,2.5928,2.5939,2.5939,2.5928,2.5895,2.6005,2.599,2.6104,2.626,2.6343,2.6385,2.6385,2.6468,2.6598,2.6658,2.6791,2.7009,2.6791,2.6484,2.6233,2.5841,2.5535,2.5532,2.5573,2.5615,2.5789,2.6168,2.6636,2.7126,2.7797,2.8538,2.9048,2.9181,2.937,2.9647,3.0131,3.0652,3.1287,3.2016,3.2909,3.3913,3.474,3.544,3.5562,3.5642,3.5642,3.5425,3.5222,3.491,3.4897,3.4841,3.4597,3.4109,3.3729,3.324,3.3376,3.3501,3.3433,3.5242,3.5428,3.5428,3.5428,3.5428,3.5428,3.5428,3.5428,3.5428,3.5428,3.5428,3.5428,3.5283,3.5045,3.4838,3.4422,3.3769,3.3461,3.313,3.2721,3.2659,3.2112,3.1412,3.1102,3.0739,3.0325,3.0274,3.0025,2.9673,2.9591,2.9342,2.899,2.8907,2.8814,2.8576,2.8618,2.8628,2.8624,2.8663,2.87,2.8716,2.8773,2.879,2.8803,2.8803,2.8803,2.8803,2.8792,2.8244,2.7457,2.7173,2.6966,2.6562,2.6496,2.6496,2.6496,2.6496,2.6518,2.6496,2.6496,2.6496,2.6507,2.6496,2.6667,2.6977,2.7229,2.747,2.7653,2.7523,2.749,2.7482,2.7337,2.7435,2.7863,2.7843,2.7613,2.7292,2.7015,2.686,2.6801,2.6782,2.661,2.6638,2.7135,2.7557,2.7932,2.8339,2.8947,2.9444,2.9409,2.951,2.9902,3.0438,3.1143,3.1927,3.2686,3.3569,3.4457,3.4901,3.5602,3.5751,3.5845,3.5696,3.5696,3.571,3.5669,3.548,3.5263,3.4829,3.4423,3.4179,3.403,3.4016,3.4165,3.4124,3.5428,3.5428,3.5428,3.5428,3.5428,3.5428,3.5428,3.5428,3.5428,3.5428,3.5428,3.5428,3.5397,3.5387,3.5024,3.4608,3.409,3.3668,3.3192,3.2871,3.2649,3.237,3.2064,3.1609,3.1143,3.0698,3.0677,3.0377,3.0025,2.9942,2.9766,2.9466,2.9373,2.9166,2.899,2.8856,2.8783,2.8884,2.8958,2.903,2.9042,2.9072,2.9117,2.9132,2.8989,2.8967,2.8924,2.8836,2.8495,2.8089,2.8034,2.7708,2.7337,2.7316,2.7349,2.7349,2.7294,2.7327,2.7316,2.7217,2.7239,2.7239,2.7305,2.7635,2.8036,2.8388,2.875,2.892,2.8955,2.862,2.8326,2.8155,2.8127,2.8401,2.8886,2.8836,2.8452,2.8294,2.835,2.8248,2.8174,2.7805,2.7556,2.7758,2.8425,2.9041,2.9432,2.9943,3.0338,3.0453,3.0451,3.0453,3.1104,3.1797,3.2646,3.3445,3.4388,3.5257,3.5492,3.5899,3.6089,3.6103,3.5832,3.571,3.571,3.571,3.5629,3.5331,3.5019,3.4897,3.4761,3.445,3.4233,3.4504,3.4599,3.5428,3.5428,3.5428,3.5428,3.5428,3.5428,3.5428,3.5428,3.5428,3.5428,3.5428,3.5428,3.5428,3.5428,3.5262,3.4848,3.4124,3.3844,3.3513,3.2721,3.2669,3.2638,3.2421,3.2095,3.1474,3.0936,3.0708,3.045,3.0129,3.0036,2.9953,2.9849,2.9777,2.9787,2.9663,2.957,2.9694,2.9715,2.9716,2.9692,2.9735,2.9775,2.9805,2.9784,2.95,2.9325,2.9226,2.9,2.876,2.8585,2.8254,2.7984,2.7811,2.7899,2.7998,2.8053,2.7965,2.791,2.7668,2.7535,2.7425,2.769,2.7944,2.8116,2.8648,2.9242,2.956,2.9652,2.9567,2.9374,2.8866,2.85,2.8317,2.8349,2.8343,2.8507,2.8829,2.9487,2.9548,2.9316,2.9199,2.9,2.8148,2.8795,2.9441,3.0117,3.0626,3.1094,3.1314,3.1444,3.1483,3.1406,3.1993,3.2738,3.3589,3.4404,3.5167,3.5858,3.611,3.6346,3.6495,3.6388,3.6185,3.5927,3.571,3.5723,3.5764,3.5683,3.5411,3.5344,3.5317,3.5114,3.4965,3.5087,3.5046,3.5428,3.5428,3.5428,3.5428,3.5428,3.5428,3.5428,3.5428,3.5428,3.5428,3.5428,3.5428,3.5428,3.5428,3.5387,3.4931,3.4113,3.3596,3.3192,3.2721,3.2669,3.2669,3.2649,3.2411,3.1981,3.1402,3.134,3.0967,3.0491,3.0284,3.0212,3.0005,2.9994,2.9963,2.9994,2.9994,2.9963,2.9974,3.0063,3.0115,3.0091,3.0175,3.022,3.0199,2.9947,2.9751,2.9467,2.9307,2.908,2.8943,2.8782,2.8687,2.8645,2.888,2.9135,2.9247,2.9147,2.8969,2.8712,2.8297,2.8195,2.8522,2.888,2.9379,2.9864,3.0407,3.0764,3.0905,3.0757,3.0363,2.9533,2.8959,2.8589,2.8074,2.7833,2.7951,2.8545,2.9424,2.9963,2.9644,2.9557,2.9234,2.9123,2.9632,3.0202,3.0772,3.125,3.1719,3.2032,3.2202,3.2489,3.2646,3.3091,3.3772,3.4625,3.5368,3.5989,3.6458,3.663,3.6897,3.7091,3.6848,3.6523,3.6334,3.6117,3.5873,3.5873,3.5805,3.5723,3.5615,3.5574,3.5669,3.5669,3.5493,3.5439,3.5428,3.5428,3.5428,3.5428,3.5428,3.5428,3.5428,3.5428,3.5428,3.5428,3.5428,3.5428,3.5428,3.5428,3.5428,3.49,3.4062,3.3327,3.2923,3.2758,3.2669,3.2669,3.2649,3.2576,3.2442,3.2112,3.1915,3.1485,3.0853,3.0657,3.0377,3.0077,2.9994,2.9994,2.9994,2.9994,2.9994,2.9995,3.019,3.0245,3.0304,3.0424,3.051,3.0548,3.0362,3.0166,2.9882,2.9711,2.9533,2.9283,2.9551,2.9736,2.9886,3.0136,3.0498,3.0722,3.0471,3.0156,2.9693,2.9271,2.9028,2.9566,3.0011,3.0598,3.111,3.148,3.1819,3.1998,3.1843,3.1304,3.0485,2.9722,2.8947,2.8299,2.7739,2.7671,2.8041,2.8796,2.929,2.9457,2.9555,2.9422,2.9729,3.0244,3.0816,3.1447,3.1954,3.2463,3.2855,3.3077,3.3417,3.3613,3.3966,3.4463,3.529,3.5948,3.663,3.6987,3.7176,3.7486,3.7754,3.7811,3.7582,3.689,3.6592,3.6334,3.6035,3.5859,3.5791,3.575,3.575,3.5791,3.5818,3.5845,3.594,3.5428,3.5428,3.5428,3.5428,3.5428,3.5428,3.5428,3.5428,3.5428,3.5428,3.5428,3.5428,3.5428,3.5428,3.5428,3.49,3.4093,3.3451,3.3037,3.2778,3.2669,3.2669,3.2669,3.2669,3.2607,3.253,3.2215,3.1629,3.0967,3.0667,3.0553,3.0139,3.0036,3.0046,3.0005,2.9994,2.9994,3.0151,3.0441,3.0647,3.0799,3.1182,3.1398,3.1366,3.1141,3.085,3.0597,3.0302,3.0064,3.0039,3.0406,3.0812,3.1156,3.1362,3.1496,3.1504,3.1436,3.1125,3.0599,2.9829,2.9726,3.008,3.0602,3.113,3.1677,3.2206,3.2679,3.2673,3.2574,3.2118,3.1436,3.0785,2.9683,2.8939,2.8468,2.8249,2.8356,2.865,2.9125,2.9351,2.9558,2.999,3.0645,3.1381,3.2167,3.293,3.3625,3.4162,3.4633,3.458,3.4515,3.4633,3.4737,3.5273,3.5887,3.648,3.7103,3.7458,3.7748,3.8111,3.8465,3.8895,3.8667,3.7867,3.7175,3.6754,3.6429,3.6144,3.6049,3.6144,3.6035,3.594,3.6212,3.6483,3.6659,3.5428,3.5428,3.5428,3.5428,3.5428,3.5428,3.5428,3.5428,3.5428,3.5428,3.5428,3.5428,3.5428,3.5428,3.5428,3.491,3.4134,3.3575,3.3141,3.2742,3.2669,3.2669,3.2669,3.2669,3.2669,3.2618,3.2457,3.2054,3.1454,3.1412,3.0967,3.0491,3.0356,3.0243,3.0046,2.9994,3.0099,3.0245,3.0713,3.1178,3.1476,3.2077,3.2392,3.2353,3.2208,3.1911,3.1472,3.1191,3.0975,3.1111,3.1482,3.1921,3.2381,3.282,3.294,3.2667,3.2426,3.2084,3.1475,3.074,3.056,3.1156,3.1707,3.2385,3.2995,3.3479,3.3677,3.3715,3.3853,3.3632,3.3264,3.2401,3.1665,3.0818,2.9913,2.9409,2.9285,2.9172,2.9484,2.9905,3.0348,3.1017,3.193,3.2688,3.3597,3.4428,3.5221,3.5717,3.6201,3.5809,3.5365,3.526,3.526,3.56,3.6162,3.6768,3.7322,3.7732,3.8065,3.8443,3.8867,3.9179,3.9142,3.8681,3.803,3.7406,3.7107,3.6875,3.6699,3.655,3.6645,3.6754,3.6958,3.7161,3.7338,3.5428,3.5428,3.5428,3.5428,3.5428,3.5428,3.5428,3.5428,3.5428,3.5428,3.5428,3.5428,3.5428,3.5428,3.5324,3.4931,3.4082,3.3717,3.3265,3.2742,3.2669,3.2669,3.2669,3.2669,3.2669,3.2669,3.2628,3.2421,3.1957,3.1874,3.1474,3.0874,3.0657,3.045,3.0087,3.0099,3.0193,3.0495,3.1064,3.1629,3.242,3.3074,3.3534,3.3534,3.3484,3.3215,3.2718,3.2207,3.2131,3.2222,3.2559,3.2965,3.3478,3.4344,3.4576,3.4007,3.347,3.2945,3.2306,3.1722,3.147,3.2041,3.2887,3.3668,3.4218,3.4487,3.4786,3.492,3.4939,3.4832,3.4369,3.4048,3.3319,3.2393,3.1315,3.0629,3.0417,3.044,3.0866,3.1193,3.1447,3.2311,3.3479,3.4043,3.4894,3.5735,3.6475,3.6488,3.6815,3.6292,3.59,3.5717,3.5704,3.59,3.6345,3.6881,3.7393,3.7861,3.806,3.8358,3.8809,3.9292,3.9156,3.902,3.8871,3.8288,3.796,3.7553,3.7228,3.7133,3.739,3.7553,3.765,3.7745,3.7881,3.5428,3.5428,3.5428,3.5428,3.5428,3.5428,3.5428,3.5428,3.5428,3.5428,3.5428,3.5428,3.5428,3.5428,3.5428,3.49,3.4269,3.3938,3.3472,3.2773,3.2669,3.2669,3.2669,3.2669,3.2669,3.2669,3.2669,3.2411,3.2153,3.206,3.1629,3.0967,3.0801,3.047,3.0139,3.0308,3.0349,3.0547,3.1403,3.251,3.361,3.4299,3.4593,3.4581,3.4581,3.4399,3.3987,3.3401,3.3166,3.3373,3.3589,3.3995,3.4532,3.539,3.5817,3.5397,3.4508,3.3343,3.2928,3.2613,3.2565,3.3095,3.3607,3.4152,3.4896,3.534,3.5596,3.5417,3.5513,3.5397,3.4996,3.4475,3.3619,3.3074,3.2524,3.1985,3.1712,3.205,3.2431,3.3158,3.3595,3.4438,3.5427,3.58,3.6196,3.7011,3.7586,3.7521,3.7325,3.6776,3.624,3.5992,3.6083,3.6292,3.6467,3.703,3.7503,3.7985,3.8091,3.8305,3.8826,3.9251,3.9251,3.9142,3.9047,3.8925,3.8532,3.8055,3.7689,3.7689,3.7946,3.8138,3.8247,3.8342,3.8437,3.5428,3.5428,3.5428,3.5428,3.5428,3.5428,3.5428,3.5428,3.5428,3.5428,3.5428,3.5428,3.5428,3.5428,3.5428,3.4921,3.4227,3.4072,3.3575,3.2903,3.268,3.2669,3.2669,3.2669,3.2669,3.2669,3.2659,3.2628,3.239,3.2297,3.2064,3.1536,3.1381,3.1091,3.0472,3.0631,3.0685,3.1161,3.2207,3.3598,3.4605,3.5283,3.5715,3.5715,3.5715,3.5475,3.503,3.4483,3.4265,3.4511,3.4726,3.5004,3.5453,3.6045,3.6502,3.6,3.5505,3.4929,3.4545,3.4237,3.4218,3.4525,3.5057,3.5688,3.6332,3.6625,3.6819,3.6884,3.6547,3.6178,3.5867,3.5559,3.5128,3.4495,3.3725,3.3832,3.3627,3.3846,3.4231,3.5003,3.5643,3.6139,3.6528,3.6658,3.6841,3.7338,3.7743,3.773,3.7534,3.7168,3.6619,3.6123,3.6358,3.6684,3.6781,3.7088,3.7672,3.8038,3.809,3.837,3.8888,3.9169,3.9156,3.9034,3.8857,3.8776,3.8776,3.8749,3.8505,3.8505,3.8545,3.8654,3.8749,3.8857,3.8952,3.5428,3.5428,3.5428,3.5428,3.5428,3.5428,3.5428,3.5428,3.5428,3.5428,3.5428,3.5428,3.5428,3.5428,3.5376,3.5004,3.4339,3.4183,3.3606,3.311,3.2789,3.2669,3.2669,3.2669,3.2669,3.2669,3.2669,3.2638,3.2649,3.2587,3.238,3.2008,3.1853,3.1464,3.1002,3.1021,3.1211,3.1764,3.325,3.4544,3.5488,3.637,3.6687,3.6781,3.6734,3.6534,3.6048,3.5463,3.5319,3.5547,3.5605,3.5821,3.621,3.68,3.7045,3.6789,3.6491,3.6434,3.6077,3.5838,3.5846,3.6037,3.6447,3.6802,3.7494,3.79,3.7887,3.771,3.7436,3.7071,3.6763,3.6235,3.5683,3.5249,3.4923,3.5335,3.5508,3.4927,3.4884,3.5522,3.6126,3.681,3.7116,3.7246,3.7469,3.7769,3.79,3.79,3.7704,3.7442,3.7207,3.6737,3.6907,3.7135,3.7027,3.7319,3.782,3.8149,3.8202,3.8445,3.8973,3.9074,3.8979,3.8844,3.8695,3.864,3.8627,3.8979,3.9292,3.9088,3.8952,3.9115,3.9237,3.9305,3.9305,3.5428,3.5428,3.5428,3.5428,3.5428,3.5428,3.5428,3.5428,3.5428,3.5428,3.5428,3.5428,3.5428,3.5428,3.5387,3.5148,3.4723,3.4318,3.3841,3.3327,3.2965,3.2742,3.269,3.2669,3.2669,3.2669,3.2669,3.2669,3.2669,3.2669,3.239,3.206,3.2112,3.1526,3.1246,3.1455,3.2211,3.2904,3.4268,3.532,3.6278,3.7113,3.7657,3.7703,3.7703,3.7611,3.732,3.6521,3.6178,3.6427,3.6332,3.6474,3.6895,3.7403,3.7515,3.7508,3.7482,3.7423,3.7254,3.6754,3.6321,3.6488,3.6934,3.7459,3.7854,3.79,3.79,3.7874,3.7625,3.7194,3.6632,3.6044,3.5613,3.5234,3.4972,3.4946,3.5038,3.4933,3.5008,3.5861,3.6502,3.7063,3.7495,3.7586,3.7599,3.7861,3.79,3.79,3.79,3.7717,3.7756,3.7599,3.7639,3.7612,3.7293,3.7466,3.7697,3.8132,3.8411,3.8735,3.9139,3.9088,3.8993,3.8776,3.8667,3.8572,3.8586,3.9007,3.9292,3.9305,3.9305,3.9305,3.9305,3.9305,3.9305,3.5428,3.5428,3.5428,3.5428,3.5428,3.5428,3.5428,3.5428,3.5428,3.5428,3.5428,3.5428,3.5428,3.5428,3.5397,3.518,3.4837,3.466,3.4111,3.3555,3.3192,3.2985,3.2861,3.268,3.2669,3.2669,3.2669,3.2669,3.2669,3.2669,3.2618,3.2442,3.2426,3.205,3.1871,3.2126,3.3149,3.43,3.5276,3.6196,3.6988,3.7508,3.79,3.79,3.79,3.7762,3.7459,3.7049,3.6909,3.6922,3.6888,3.7087,3.732,3.7703,3.7854,3.79,3.79,3.79,3.79,3.7469,3.7273,3.7299,3.7586,3.7808,3.7913,3.79,3.79,3.7808,3.7599,3.7129,3.6841,3.6057,3.5378,3.4972,3.4789,3.475,3.4803,3.4907,3.5365,3.6279,3.6698,3.7116,3.7508,3.7861,3.7861,3.79,3.79,3.7913,3.7965,3.8031,3.8083,3.8174,3.8214,3.809,3.7772,3.7661,3.7515,3.8064,3.8624,3.8942,3.9264,3.9264,3.9142,3.8898,3.8722,3.8735,3.8857,3.9129,3.9278,3.9319,3.9319,3.9305,3.9305,3.9305,3.9305,3.5428,3.5428,3.5428,3.5428,3.5428,3.5428,3.5428,3.5428,3.5428,3.5428,3.5428,3.5428,3.5428,3.5428,3.5407,3.5304,3.4993,3.4837,3.4422,3.3976,3.3534,3.3234,3.2975,3.2752,3.2669,3.2669,3.2669,3.2669,3.2669,3.2669,3.2649,3.2696,3.2753,3.2462,3.226,3.2944,3.4046,3.5273,3.6181,3.6907,3.7626,3.7816,3.79,3.7952,3.807,3.8154,3.8046,3.7937,3.7843,3.7727,3.7624,3.7614,3.7675,3.7795,3.79,3.79,3.79,3.79,3.79,3.79,3.79,3.7789,3.7815,3.79,3.79,3.79,3.79,3.7874,3.7521,3.7207,3.709,3.6384,3.5861,3.5587,3.5365,3.5312,3.543,3.5561,3.6096,3.6737,3.6985,3.7155,3.7586,3.7939,3.7991,3.7965,3.79,3.8044,3.8292,3.8357,3.8436,3.8553,3.8658,3.849,3.8311,3.7984,3.7807,3.8226,3.8712,3.9054,3.9305,3.9359,3.9183,3.879,3.8722,3.8884,3.9237,3.9644,3.9549,3.9359,3.94,3.9441,3.9305,3.9305,3.9305,3.5428,3.5428,3.5428,3.5428,3.5428,3.5428,3.5428,3.5428,3.5428,3.5428,3.5428,3.5428,3.5428,3.5428,3.5428,3.5366,3.5262,3.4973,3.4743,3.4494,3.3976,3.3513,3.3213,3.3006,3.2762,3.268,3.2669,3.2669,3.2669,3.2669,3.2669,3.2841,3.3037,3.3039,3.2267,3.3343,3.4623,3.5946,3.6875,3.763,3.8044,3.815,3.8024,3.8122,3.837,3.8494,3.8499,3.8856,3.8769,3.8418,3.84,3.8192,3.7919,3.7958,3.7991,3.7913,3.7952,3.7952,3.7939,3.7926,3.7952,3.7913,3.79,3.79,3.79,3.79,3.79,3.7887,3.7861,3.7612,3.7299,3.6998,3.6684,3.6475,3.6279,3.6123,3.6266,3.6123,3.6619,3.7024,3.7077,3.7194,3.7639,3.7991,3.807,3.8057,3.7952,3.8122,3.8488,3.8606,3.8671,3.8979,3.9097,3.8964,3.8747,3.8219,3.8082,3.8475,3.8868,3.9292,3.9549,3.9671,3.9359,3.8803,3.8979,3.9386,3.9807,4.0228,4.0106,3.997,3.9671,3.9604,3.9441,3.9481,3.9699,3.5428,3.5428,3.5428,3.5428,3.5428,3.5428,3.5428,3.5428,3.5428,3.5428,3.5428,3.5428,3.5428,3.5428,3.5428,3.5428,3.5376,3.5335,3.5128,3.4785,3.4401,3.3955,3.3582,3.3339,3.3043,3.2799,3.2669,3.2727,3.2669,3.2727,3.2727,3.2841,3.3604,3.4136,3.4538,3.5438,3.6673,3.7728,3.8492,3.8945,3.9171,3.8769,3.841,3.841,3.8632,3.8762,3.8828,3.9403,3.9429,3.8958,3.8867,3.8579,3.8214,3.8214,3.8279,3.8161,3.8148,3.8436,3.8436,3.8423,3.8253,3.8096,3.8004,3.8031,3.7926,3.79,3.79,3.8044,3.8305,3.8227,3.8187,3.8148,3.7965,3.7887,3.7691,3.7403,3.7299,3.692,3.6959,3.7273,3.7429,3.7717,3.8109,3.854,3.8658,3.854,3.8462,3.8475,3.8749,3.8762,3.8815,3.9315,3.9506,3.9461,3.921,3.8861,3.8537,3.8698,3.9183,3.9644,3.9848,3.9821,3.9699,3.9224,3.9563,3.9943,4.0445,4.0825,4.0798,4.0648,4.054,4.0363,4.0282,4.0418,4.0621,3.5428,3.5428,3.5428,3.5428,3.5428,3.5428,3.5428,3.5428,3.5428,3.5428,3.5428,3.5428,3.5428,3.5428,3.5428,3.5428,3.5428,3.5407,3.5366,3.5034,3.4908,3.4578,3.4146,3.3885,3.3769,3.3401,3.3182,3.3182,3.3058,3.2898,3.3069,3.3455,3.4267,3.5168,3.6065,3.7109,3.8052,3.8871,3.9436,3.985,3.9748,3.932,3.8697,3.8749,3.888,3.905,3.9259,3.956,3.9913,3.9468,3.9194,3.9011,3.8776,3.871,3.8828,3.8723,3.8762,3.9011,3.9024,3.9024,3.8867,3.8658,3.8501,3.8488,3.8501,3.8619,3.8593,3.8684,3.8841,3.8932,3.9011,3.9024,3.9037,3.8932,3.8828,3.8527,3.837,3.8018,3.7691,3.7952,3.7913,3.824,3.8606,3.9037,3.9377,3.9181,3.8998,3.905,3.9089,3.9102,3.9333,3.9926,4.0254,4.0243,4.0041,3.9639,3.9316,3.903,3.9224,3.9509,3.9604,3.9481,3.9576,3.9861,4.0404,4.0879,4.1218,4.1449,4.1598,4.1707,4.1747,4.153,4.1245,4.1205,4.13,3.5428,3.5428,3.5428,3.5428,3.5428,3.5428,3.5428,3.5428,3.5428,3.5428,3.5428,3.5428,3.5428,3.5428,3.5428,3.5428,3.5428,3.5428,3.5397,3.5406,3.5329,3.5097,3.5035,3.4898,3.4799,3.4564,3.4278,3.3885,3.3614,3.3126,3.3306,3.4132,3.4869,3.6002,3.7126,3.8295,3.904,3.9689,4.0144,4.0411,4.0311,3.9538,3.9168,3.9181,3.9377,3.9573,3.9899,4.0422,4.0605,4.0448,4.0265,3.9978,3.9756,3.9625,3.9625,3.9612,3.9599,3.952,3.9612,3.9612,3.973,3.9625,3.9664,3.9651,3.9455,3.9298,3.9233,3.9311,3.9468,3.9547,3.9625,3.9703,3.9782,3.9743,3.9743,3.9612,3.956,3.9272,3.8893,3.8736,3.8488,3.8658,3.9076,3.952,4.0043,3.9952,3.9834,3.9899,3.9886,3.9677,4.0075,4.0965,4.1178,4.1183,4.0829,4.0273,3.9703,3.9251,3.8735,3.8844,3.8966,3.9319,3.9617,4.0173,4.1232,4.1802,4.2005,4.229,4.2588,4.2656,4.2439,4.2263,4.1842,4.1639,4.1612,3.5428,3.5428,3.5428,3.5428,3.5428,3.5428,3.5428,3.5428,3.5428,3.5428,3.5428,3.5428,3.5428,3.5428,3.5428,3.5428,3.5428,3.5428,3.5428,3.552,3.5783,3.5776,3.5826,3.5912,3.5904,3.5646,3.5234,3.4758,3.4099,3.3501,3.3501,3.4379,3.5399,3.6588,3.7885,3.9272,3.9789,4.0275,4.07,4.0898,4.0814,4.0174,3.9886,3.9886,3.9939,4.0095,4.0344,4.0867,4.0958,4.0592,4.0448,4.0161,3.9677,3.9952,4.0174,4.0135,3.9926,3.973,4.0082,4.0187,4.0318,4.0605,4.071,4.0252,3.9939,3.973,3.9756,3.9899,4.0069,4.0174,4.0278,4.037,4.0474,4.0514,4.0514,4.0488,4.037,4.0043,3.969,3.9416,3.9168,3.9337,3.9743,4.0252,4.071,4.0671,4.0644,4.0671,4.0553,4.0292,4.0605,4.1485,4.1749,4.1599,4.1233,4.0701,4.0024,3.9383,3.8759,3.8491,3.8925,3.9319,3.9712,4.0499,4.1584,4.2249,4.267,4.2873,4.2887,4.29,4.2724,4.2616,4.2466,4.227,4.2209,3.5428,3.5428,3.5428,3.5428,3.5428,3.5428,3.5428,3.5428,3.5428,3.5428,3.5428,3.5428,3.5428,3.5428,3.5428,3.5428,3.5428,3.5428,3.5428,3.5603,3.6218,3.628,3.6498,3.6916,3.7092,3.6772,3.6263,3.574,3.4969,3.4054,3.384,3.4725,3.5838,3.6977,3.8226,3.9556,4.0389,4.0694,4.0984,4.1211,4.1089,4.0749,4.0514,4.0448,4.0448,4.0435,4.0514,4.1036,4.105,4.0827,4.0775,4.0657,4.0331,4.0631,4.0762,4.0723,4.0592,4.054,4.0723,4.0775,4.0997,4.1193,4.1311,4.0971,4.0657,4.0448,4.0435,4.0488,4.0657,4.0801,4.0919,4.105,4.1154,4.1272,4.1272,4.1272,4.0997,4.0684,4.0396,4.0122,4.0095,4.0226,4.0579,4.1063,4.1285,4.1102,4.111,4.1196,4.0989,4.0615,4.0978,4.1749,4.1896,4.1857,4.1463,4.1011,4.0286,3.9423,3.8407,3.8342,3.8857,3.9481,3.9997,4.0906,4.1951,4.2514,4.297,4.2935,4.29,4.2984,4.3032,4.2889,4.2869,4.2876,4.2883,3.5314,3.5366,3.5407,3.5428,3.5428,3.5428,3.549,3.549,3.5552,3.549,3.5428,3.5428,3.5428,3.5428,3.5428,3.5428,3.5428,3.5428,3.5428,3.5479,3.6513,3.6828,3.7092,3.7746,3.8135,3.7935,3.7495,3.6785,3.597,3.4991,3.4401,3.5146,3.6122,3.7245,3.8502,3.9878,4.0643,4.0846,4.1097,4.1298,4.118,4.084,4.0488,4.054,4.0553,4.0553,4.0671,4.0958,4.1311,4.1298,4.1285,4.1232,4.1206,4.1193,4.1219,4.1219,4.1089,4.1102,4.1128,4.1154,4.1193,4.1285,4.1311,4.1169,4.1036,4.0958,4.0919,4.0919,4.1036,4.1076,4.1154,4.118,4.1272,4.1311,4.1311,4.1311,4.118,4.0932,4.0723,4.0527,4.0579,4.0697,4.0775,4.118,4.1361,4.1385,4.1471,4.1594,4.1512,4.1074,4.1389,4.2012,4.2084,4.2132,4.1781,4.128,4.0521,3.9617,3.8475,3.8244,3.8884,3.9604,4.035,4.1441,4.2474,4.276,4.3067,4.3128,4.3273,4.3321,4.3321,4.3177,4.3177,4.3403,4.3485,3.46,3.4952,3.5283,3.5428,3.5428,3.5675,3.5921,3.6167,3.6167,3.5921,3.5479,3.5418,3.5428,3.5428,3.5428,3.5428,3.5428,3.549,3.5428,3.5911,3.6707,3.7407,3.7622,3.8536,3.9068,3.9108,3.8619,3.7667,3.6569,3.5587,3.5157,3.5938,3.6762,3.7619,3.8752,4.0109,4.0795,4.0984,4.1147,4.1261,4.1246,4.1246,4.1102,4.1076,4.1063,4.1023,4.1102,4.118,4.1311,4.1311,4.1311,4.1298,4.1298,4.1311,4.1311,4.1311,4.1311,4.1311,4.1311,4.1311,4.1311,4.1311,4.1311,4.1311,4.1298,4.1311,4.1311,4.1311,4.1311,4.1311,4.1311,4.1311,4.1311,4.1311,4.1311,4.1311,4.1311,4.1154,4.0934,4.0984,4.101,4.1036,4.1076,4.1191,4.1358,4.1498,4.1597,4.172,4.1904,4.1794,4.1866,4.2297,4.2324,4.2304,4.1991,4.1571,4.0865,4.0011,3.8993,3.8884,3.9007,4.0011,4.1055,4.21,4.2978,4.3211,4.3437,4.3689,4.3784,4.3926,4.4007,4.404,4.4181,4.4415,4.4308,3.4277,3.4567,3.4931,3.5242,3.5469,3.5932,3.6401,3.6746,3.6839,3.6646,3.6197,3.5839,3.5541,3.5418,3.5428,3.5428,3.5428,3.5613,3.5737,3.6228,3.7095,3.796,3.8642,3.9324,3.9702,3.9832,3.9069,3.8145,3.7108,3.6363,3.6145,3.6688,3.7257,3.8031,3.9144,4.0262,4.0997,4.1097,4.1211,4.1261,4.1311,4.1311,4.1311,4.1311,4.1311,4.1311,4.1311,4.1311,4.1311,4.1311,4.1311,4.1311,4.1311,4.1311,4.1311,4.1311,4.1311,4.1311,4.1311,4.1311,4.1311,4.1311,4.1311,4.1311,4.1311,4.1311,4.1311,4.1311,4.1311,4.1311,4.1311,4.1311,4.1311,4.1311,4.1311,4.1311,4.1311,4.1246,4.1167,4.1167,4.118,4.1193,4.1219,4.1219,4.1411,4.1647,4.1746,4.1993,4.2177,4.2324,4.2484,4.2533,4.256,4.2388,4.2052,4.1666,4.1218,4.0336,3.9481,3.9468,3.9644,4.0743,4.1802,4.2576,4.3211,4.3566,4.3804,4.4181,4.4634,4.4943,4.4989,4.5049,4.5187,4.537,4.5477,3.3966,3.416,3.4729,3.5095,3.5509,3.6207,3.6868,3.738,3.7533,3.7594,3.744,3.6685,3.5962,3.5479,3.5428,3.5428,3.5552,3.5798,3.6106,3.6757,3.7823,3.8662,3.9376,3.9929,4.0247,4.0093,3.9426,3.8704,3.7921,3.7281,3.7066,3.7388,3.7909,3.8622,3.9622,4.0465,4.1047,4.1198,4.1261,4.1311,4.1311,4.1311,4.1311,4.1311,4.1311,4.1311,4.1311,4.1311,4.1311,4.1311,4.1311,4.1311,4.1311,4.1311,4.1311,4.1311,4.1311,4.1311,4.1311,4.1311,4.1311,4.1311,4.1311,4.1311,4.1311,4.1311,4.1311,4.1311,4.1311,4.1311,4.1311,4.1311,4.1311,4.1311,4.1311,4.1311,4.1311,4.1311,4.1311,4.1311,4.1311,4.1311,4.1311,4.1311,4.1448,4.1696,4.1931,4.2239,4.2435,4.2582,4.2693,4.2741,4.2706,4.2452,4.2195,4.1802,4.1476,4.0947,4.0228,4.0119,4.0282,4.1191,4.2025,4.2685,4.3259,4.3804,4.4387,4.4851,4.5341,4.5883,4.5987,4.6002,4.6091,4.6314,4.6697,3.3471,3.4323,3.517,3.5583,3.5841,3.6777,3.7544,3.8123,3.8432,3.867,3.8659,3.8111,3.7039,3.5418,3.5428,3.549,3.5675,3.6044,3.6613,3.7248,3.8469,3.9372,4.0144,4.0733,4.0693,4.0408,3.9927,3.9422,3.8912,3.8432,3.8234,3.8518,3.8797,3.9347,3.9993,4.0733,4.1276,4.135,4.1311,4.1311,4.1311,4.1311,4.1311,4.1311,4.1311,4.1311,4.1311,4.1311,4.1311,4.1311,4.1311,4.1311,4.1311,4.1311,4.1311,4.1311,4.1311,4.1311,4.1311,4.1311,4.1311,4.1311,4.1311,4.1311,4.1311,4.1311,4.1311,4.1311,4.1311,4.1311,4.1311,4.1311,4.1311,4.1311,4.1311,4.1311,4.1311,4.1311,4.1311,4.1311,4.1311,4.1311,4.1311,4.1361,4.1547,4.1733,4.198,4.2275,4.2693,4.279,4.29,4.29,4.2852,4.2838,4.2697,4.2114,4.1707,4.1286,4.0933,4.0703,4.0838,4.1449,4.2215,4.2821,4.3499,4.4134,4.4727,4.5492,4.6225,4.677,4.6916,4.7019,4.7047,4.7163,4.745]}]]